<?xml version="1.0" encoding="UTF-8" standalone="no" ?>
<gpx xmlns="http://www.topografix.com/GPX/1/1" xmlns:xsi="http://www.w3.org/2001/XMLSchema-instance" xsi:schemaLocation="http://www.topografix.com/GPX/1/1 http://www.topografix.com/GPX/1/1/gpx.xsd" version="1.1" creator="VisuGPX - https://www.visugpx.com">
  <metadata>
    <name>-1-Lanne-Sud 3</name>
    <desc><![CDATA[SEMAINE LSVC 2024]]></desc>
  </metadata>
  <wpt lat="43.01557" lon="-0.79164">
    <ele>1436.1</ele>
    <name><![CDATA[Col de la Hourc]]></name>
    <type><![CDATA[GENERIC]]></type>
  </wpt>
  <wpt lat="43.0036" lon="-0.73141">
    <ele>1352.6</ele>
    <name><![CDATA[Col de Labays]]></name>
    <type><![CDATA[GENERIC]]></type>
  </wpt>
  <wpt lat="43.00329" lon="-0.6746">
    <ele>1014.8</ele>
    <name><![CDATA[Col de Bouesou]]></name>
    <type><![CDATA[GENERIC]]></type>
  </wpt>
  <wpt lat="43.04926" lon="-0.66504">
    <ele>449.5</ele>
    <name><![CDATA[Lourdios-Ichère]]></name>
    <type><![CDATA[GENERIC]]></type>
  </wpt>
  <wpt lat="43.04103" lon="-0.63525">
    <ele>673.3</ele>
    <name><![CDATA[Col d'Ichère]]></name>
    <type><![CDATA[GENERIC]]></type>
  </wpt>
  <wpt lat="42.98595" lon="-0.74359">
    <ele>1472.7</ele>
    <name><![CDATA[Pas de Lamayo]]></name>
    <type><![CDATA[GENERIC]]></type>
  </wpt>
  <wpt lat="43.0049" lon="-0.65844">
    <ele>1015</ele>
    <name><![CDATA[Col de Houratat]]></name>
    <type><![CDATA[GENERIC]]></type>
  </wpt>
  <wpt lat="43.0036" lon="-0.73141">
    <ele>1352.6</ele>
    <name><![CDATA[Col de Labays]]></name>
    <type><![CDATA[GENERIC]]></type>
  </wpt>
  <wpt lat="43.00329" lon="-0.6746">
    <ele>1014.8</ele>
    <name><![CDATA[Col de Bouesou]]></name>
    <type><![CDATA[GENERIC]]></type>
  </wpt>
  <wpt lat="42.99834" lon="-0.75279">
    <ele>1220.1</ele>
    <name><![CDATA[Col de Suscouss]]></name>
    <type><![CDATA[GENERIC]]></type>
  </wpt>
  <wpt lat="42.99001" lon="-0.73898">
    <ele>1437</ele>
    <name><![CDATA[Pas de Guillers]]></name>
    <type><![CDATA[GENERIC]]></type>
  </wpt>
  <wpt lat="42.99828" lon="-0.75281">
    <ele>1221</ele>
    <name><![CDATA[Col de Suscouss]]></name>
    <type><![CDATA[GENERIC]]></type>
  </wpt>
  <wpt lat="43.0049" lon="-0.65844">
    <ele>1015</ele>
    <name><![CDATA[Col de Houratat]]></name>
    <type><![CDATA[GENERIC]]></type>
  </wpt>
  <wpt lat="43.01553" lon="-0.79136">
    <ele>1436.5</ele>
    <name><![CDATA[Col de la Hourc]]></name>
    <type><![CDATA[GENERIC]]></type>
  </wpt>
  <wpt lat="43.04103" lon="-0.63525">
    <ele>673.3</ele>
    <name><![CDATA[Col d'Ichère]]></name>
    <type><![CDATA[GENERIC]]></type>
  </wpt>
  <trk>
    <name><![CDATA[-1-Lanne-Sud 3]]></name>
    <extensions>
      <line xmlns="http://www.topografix.com/GPX/gpx_style/0/2">
        <color>0000FF</color>
        <width>4</width>
      </line>
    </extensions>
    <trkseg>
      <trkpt lat="43.09712" lon="-0.77879">
        <ele>337.01</ele>
        <time>2024-05-30T20:29:59.000Z</time>
      </trkpt>
      <trkpt lat="43.09728" lon="-0.77867">
        <ele>336.78</ele>
        <time>2024-05-30T20:29:59.004Z</time>
      </trkpt>
      <trkpt lat="43.09746" lon="-0.77859">
        <ele>336.54</ele>
        <time>2024-05-30T20:29:59.011Z</time>
      </trkpt>
      <trkpt lat="43.09807" lon="-0.7786">
        <ele>336.25</ele>
        <time>2024-05-30T20:29:59.031Z</time>
      </trkpt>
      <trkpt lat="43.09821" lon="-0.77857">
        <ele>335.8</ele>
        <time>2024-05-30T20:29:59.053Z</time>
      </trkpt>
      <trkpt lat="43.09835" lon="-0.77849">
        <ele>335.41</ele>
        <time>2024-05-30T20:29:59.079Z</time>
      </trkpt>
      <trkpt lat="43.09929" lon="-0.77777">
        <ele>335.03</ele>
        <time>2024-05-30T20:29:59.126Z</time>
      </trkpt>
      <trkpt lat="43.09979" lon="-0.77746">
        <ele>334.55</ele>
        <time>2024-05-30T20:29:59.184Z</time>
      </trkpt>
      <trkpt lat="43.10012" lon="-0.77728">
        <ele>333.97</ele>
        <time>2024-05-30T20:29:59.249Z</time>
      </trkpt>
      <trkpt lat="43.10049" lon="-0.77722">
        <ele>333.33</ele>
        <time>2024-05-30T20:29:59.322Z</time>
      </trkpt>
      <trkpt lat="43.10061" lon="-0.77718">
        <ele>332.75</ele>
        <time>2024-05-30T20:29:59.397Z</time>
      </trkpt>
      <trkpt lat="43.10072" lon="-0.7771">
        <ele>332.16</ele>
        <time>2024-05-30T20:29:59.475Z</time>
      </trkpt>
      <trkpt lat="43.10084" lon="-0.77691">
        <ele>331.5</ele>
        <time>2024-05-30T20:29:59.556Z</time>
      </trkpt>
      <trkpt lat="43.10092" lon="-0.77669">
        <ele>330.91</ele>
        <time>2024-05-30T20:29:59.641Z</time>
      </trkpt>
      <trkpt lat="43.10097" lon="-0.77604">
        <ele>330.41</ele>
        <time>2024-05-30T20:29:59.735Z</time>
      </trkpt>
      <trkpt lat="43.10103" lon="-0.77574">
        <ele>329.97</ele>
        <time>2024-05-30T20:29:59.834Z</time>
      </trkpt>
      <trkpt lat="43.10134" lon="-0.77485">
        <ele>329.46</ele>
        <time>2024-05-30T20:29:59.947Z</time>
      </trkpt>
      <trkpt lat="43.10141" lon="-0.77471">
        <ele>329.03</ele>
        <time>2024-05-30T20:30:00.063Z</time>
      </trkpt>
      <trkpt lat="43.10184" lon="-0.77415">
        <ele>328.96</ele>
        <time>2024-05-30T20:30:00.191Z</time>
      </trkpt>
      <trkpt lat="43.10196" lon="-0.77406">
        <ele>328.8</ele>
        <time>2024-05-30T20:30:00.322Z</time>
      </trkpt>
      <trkpt lat="43.10313" lon="-0.77378">
        <ele>328.07</ele>
        <time>2024-05-30T20:30:00.476Z</time>
      </trkpt>
      <trkpt lat="43.10375" lon="-0.77356">
        <ele>327.81</ele>
        <time>2024-05-30T20:30:00.643Z</time>
      </trkpt>
      <trkpt lat="43.10404" lon="-0.77349">
        <ele>327.18</ele>
        <time>2024-05-30T20:30:00.816Z</time>
      </trkpt>
      <trkpt lat="43.10436" lon="-0.77335">
        <ele>326.43</ele>
        <time>2024-05-30T20:30:00.996Z</time>
      </trkpt>
      <trkpt lat="43.10442" lon="-0.77334">
        <ele>325.81</ele>
        <time>2024-05-30T20:30:01.177Z</time>
      </trkpt>
      <trkpt lat="43.10448" lon="-0.77334">
        <ele>325.22</ele>
        <time>2024-05-30T20:30:01.359Z</time>
      </trkpt>
      <trkpt lat="43.105" lon="-0.77354">
        <ele>324.76</ele>
        <time>2024-05-30T20:30:01.552Z</time>
      </trkpt>
      <trkpt lat="43.10522" lon="-0.7736">
        <ele>324.4</ele>
        <time>2024-05-30T20:30:01.749Z</time>
      </trkpt>
      <trkpt lat="43.10545" lon="-0.77357">
        <ele>324.02</ele>
        <time>2024-05-30T20:30:01.951Z</time>
      </trkpt>
      <trkpt lat="43.10559" lon="-0.77352">
        <ele>323.65</ele>
        <time>2024-05-30T20:30:02.156Z</time>
      </trkpt>
      <trkpt lat="43.10579" lon="-0.77339">
        <ele>323.28</ele>
        <time>2024-05-30T20:30:02.365Z</time>
      </trkpt>
      <trkpt lat="43.10614" lon="-0.77311">
        <ele>322.95</ele>
        <time>2024-05-30T20:30:02.582Z</time>
      </trkpt>
      <trkpt lat="43.10682" lon="-0.77277">
        <ele>322.55</ele>
        <time>2024-05-30T20:30:02.814Z</time>
      </trkpt>
      <trkpt lat="43.10702" lon="-0.7727">
        <ele>322.26</ele>
        <time>2024-05-30T20:30:03.050Z</time>
      </trkpt>
      <trkpt lat="43.10842" lon="-0.77252">
        <ele>321.87</ele>
        <time>2024-05-30T20:30:03.314Z</time>
      </trkpt>
      <trkpt lat="43.10905" lon="-0.77263">
        <ele>321.35</ele>
        <time>2024-05-30T20:30:03.591Z</time>
      </trkpt>
      <trkpt lat="43.10927" lon="-0.77263">
        <ele>321.12</ele>
        <time>2024-05-30T20:30:03.872Z</time>
      </trkpt>
      <trkpt lat="43.10945" lon="-0.7726">
        <ele>320.95</ele>
        <time>2024-05-30T20:30:04.157Z</time>
      </trkpt>
      <trkpt lat="43.10965" lon="-0.77247">
        <ele>320.87</ele>
        <time>2024-05-30T20:30:04.446Z</time>
      </trkpt>
      <trkpt lat="43.10988" lon="-0.77229">
        <ele>320.8</ele>
        <time>2024-05-30T20:30:04.741Z</time>
      </trkpt>
      <trkpt lat="43.11028" lon="-0.7722">
        <ele>320.73</ele>
        <time>2024-05-30T20:30:05.044Z</time>
      </trkpt>
      <trkpt lat="43.11028" lon="-0.77212">
        <ele>320.73</ele>
        <time>2024-05-30T20:30:05.348Z</time>
      </trkpt>
      <trkpt lat="43.11025" lon="-0.77095">
        <ele>320.87</ele>
        <time>2024-05-30T20:30:05.669Z</time>
      </trkpt>
      <trkpt lat="43.11026" lon="-0.77084">
        <ele>321.03</ele>
        <time>2024-05-30T20:30:05.992Z</time>
      </trkpt>
      <trkpt lat="43.11036" lon="-0.77063">
        <ele>321.26</ele>
        <time>2024-05-30T20:30:06.318Z</time>
      </trkpt>
      <trkpt lat="43.11042" lon="-0.77055">
        <ele>321.49</ele>
        <time>2024-05-30T20:30:06.646Z</time>
      </trkpt>
      <trkpt lat="43.11052" lon="-0.77047">
        <ele>321.71</ele>
        <time>2024-05-30T20:30:06.976Z</time>
      </trkpt>
      <trkpt lat="43.11113" lon="-0.77021">
        <ele>321.83</ele>
        <time>2024-05-30T20:30:07.319Z</time>
      </trkpt>
      <trkpt lat="43.11132" lon="-0.77006">
        <ele>322.06</ele>
        <time>2024-05-30T20:30:07.667Z</time>
      </trkpt>
      <trkpt lat="43.11148" lon="-0.76984">
        <ele>322.29</ele>
        <time>2024-05-30T20:30:08.019Z</time>
      </trkpt>
      <trkpt lat="43.11161" lon="-0.76958">
        <ele>322.52</ele>
        <time>2024-05-30T20:30:08.376Z</time>
      </trkpt>
      <trkpt lat="43.11175" lon="-0.76919">
        <ele>322.65</ele>
        <time>2024-05-30T20:30:08.739Z</time>
      </trkpt>
      <trkpt lat="43.11181" lon="-0.76901">
        <ele>322.76</ele>
        <time>2024-05-30T20:30:09.105Z</time>
      </trkpt>
      <trkpt lat="43.11216" lon="-0.76731">
        <ele>322.79</ele>
        <time>2024-05-30T20:30:09.497Z</time>
      </trkpt>
      <trkpt lat="43.11297" lon="-0.76442">
        <ele>322.81</ele>
        <time>2024-05-30T20:30:09.934Z</time>
      </trkpt>
      <trkpt lat="43.113" lon="-0.76414">
        <ele>322.75</ele>
        <time>2024-05-30T20:30:10.375Z</time>
      </trkpt>
      <trkpt lat="43.11298" lon="-0.76405">
        <ele>322.65</ele>
        <time>2024-05-30T20:30:10.818Z</time>
      </trkpt>
      <trkpt lat="43.113" lon="-0.76398">
        <ele>322.49</ele>
        <time>2024-05-30T20:30:11.262Z</time>
      </trkpt>
      <trkpt lat="43.11304" lon="-0.76394">
        <ele>322.26</ele>
        <time>2024-05-30T20:30:11.707Z</time>
      </trkpt>
      <trkpt lat="43.11315" lon="-0.76354">
        <ele>322</ele>
        <time>2024-05-30T20:30:12.158Z</time>
      </trkpt>
      <trkpt lat="43.11327" lon="-0.76253">
        <ele>321.83</ele>
        <time>2024-05-30T20:30:12.624Z</time>
      </trkpt>
      <trkpt lat="43.11325" lon="-0.76209">
        <ele>321.39</ele>
        <time>2024-05-30T20:30:13.096Z</time>
      </trkpt>
      <trkpt lat="43.11324" lon="-0.76082">
        <ele>320.87</ele>
        <time>2024-05-30T20:30:13.587Z</time>
      </trkpt>
      <trkpt lat="43.11326" lon="-0.76036">
        <ele>320.3</ele>
        <time>2024-05-30T20:30:14.085Z</time>
      </trkpt>
      <trkpt lat="43.11335" lon="-0.75981">
        <ele>319.59</ele>
        <time>2024-05-30T20:30:14.591Z</time>
      </trkpt>
      <trkpt lat="43.11334" lon="-0.75948">
        <ele>318.98</ele>
        <time>2024-05-30T20:30:15.102Z</time>
      </trkpt>
      <trkpt lat="43.11328" lon="-0.7593">
        <ele>318.32</ele>
        <time>2024-05-30T20:30:15.616Z</time>
      </trkpt>
      <trkpt lat="43.11321" lon="-0.75919">
        <ele>317.63</ele>
        <time>2024-05-30T20:30:16.132Z</time>
      </trkpt>
      <trkpt lat="43.11256" lon="-0.75853">
        <ele>317.06</ele>
        <time>2024-05-30T20:30:16.664Z</time>
      </trkpt>
      <trkpt lat="43.11245" lon="-0.75833">
        <ele>316.31</ele>
        <time>2024-05-30T20:30:17.200Z</time>
      </trkpt>
      <trkpt lat="43.11237" lon="-0.75805">
        <ele>315.52</ele>
        <time>2024-05-30T20:30:17.740Z</time>
      </trkpt>
      <trkpt lat="43.11235" lon="-0.75787">
        <ele>314.71</ele>
        <time>2024-05-30T20:30:18.283Z</time>
      </trkpt>
      <trkpt lat="43.11236" lon="-0.75759">
        <ele>313.85</ele>
        <time>2024-05-30T20:30:18.830Z</time>
      </trkpt>
      <trkpt lat="43.11268" lon="-0.75596">
        <ele>312.7</ele>
        <time>2024-05-30T20:30:19.402Z</time>
      </trkpt>
      <trkpt lat="43.11271" lon="-0.75568">
        <ele>311.78</ele>
        <time>2024-05-30T20:30:19.978Z</time>
      </trkpt>
      <trkpt lat="43.11272" lon="-0.75505">
        <ele>310.77</ele>
        <time>2024-05-30T20:30:20.563Z</time>
      </trkpt>
      <trkpt lat="43.11272" lon="-0.75215">
        <ele>308.85</ele>
        <time>2024-05-30T20:30:21.191Z</time>
      </trkpt>
      <trkpt lat="43.11274" lon="-0.75008">
        <ele>307.75</ele>
        <time>2024-05-30T20:30:21.849Z</time>
      </trkpt>
      <trkpt lat="43.11272" lon="-0.74965">
        <ele>306.88</ele>
        <time>2024-05-30T20:30:22.513Z</time>
      </trkpt>
      <trkpt lat="43.11266" lon="-0.74927">
        <ele>305.95</ele>
        <time>2024-05-30T20:30:23.183Z</time>
      </trkpt>
      <trkpt lat="43.11235" lon="-0.74783">
        <ele>305.29</ele>
        <time>2024-05-30T20:30:23.875Z</time>
      </trkpt>
      <trkpt lat="43.1123" lon="-0.74718">
        <ele>304.92</ele>
        <time>2024-05-30T20:30:24.576Z</time>
      </trkpt>
      <trkpt lat="43.11239" lon="-0.74645">
        <ele>304.97</ele>
        <time>2024-05-30T20:30:25.288Z</time>
      </trkpt>
      <trkpt lat="43.11262" lon="-0.7457">
        <ele>304.51</ele>
        <time>2024-05-30T20:30:26.012Z</time>
      </trkpt>
      <trkpt lat="43.11299" lon="-0.7442">
        <ele>304.81</ele>
        <time>2024-05-30T20:30:26.759Z</time>
      </trkpt>
      <trkpt lat="43.11348" lon="-0.74256">
        <ele>304.64</ele>
        <time>2024-05-30T20:30:27.532Z</time>
      </trkpt>
      <trkpt lat="43.11369" lon="-0.74179">
        <ele>304.45</ele>
        <time>2024-05-30T20:30:28.317Z</time>
      </trkpt>
      <trkpt lat="43.11371" lon="-0.74146">
        <ele>304.45</ele>
        <time>2024-05-30T20:30:29.107Z</time>
      </trkpt>
      <trkpt lat="43.11367" lon="-0.74114">
        <ele>304.53</ele>
        <time>2024-05-30T20:30:29.902Z</time>
      </trkpt>
      <trkpt lat="43.11355" lon="-0.74065">
        <ele>304.57</ele>
        <time>2024-05-30T20:30:30.705Z</time>
      </trkpt>
      <trkpt lat="43.11349" lon="-0.7403">
        <ele>304.64</ele>
        <time>2024-05-30T20:30:31.513Z</time>
      </trkpt>
      <trkpt lat="43.11336" lon="-0.7386">
        <ele>304.5</ele>
        <time>2024-05-30T20:30:32.346Z</time>
      </trkpt>
      <trkpt lat="43.11335" lon="-0.73826">
        <ele>304.57</ele>
        <time>2024-05-30T20:30:33.184Z</time>
      </trkpt>
      <trkpt lat="43.11339" lon="-0.73804">
        <ele>304.59</ele>
        <time>2024-05-30T20:30:34.025Z</time>
      </trkpt>
      <trkpt lat="43.11347" lon="-0.73783">
        <ele>304.62</ele>
        <time>2024-05-30T20:30:34.870Z</time>
      </trkpt>
      <trkpt lat="43.11354" lon="-0.7377">
        <ele>304.6</ele>
        <time>2024-05-30T20:30:35.717Z</time>
      </trkpt>
      <trkpt lat="43.11351" lon="-0.73764">
        <ele>304.6</ele>
        <time>2024-05-30T20:30:36.565Z</time>
      </trkpt>
      <trkpt lat="43.11246" lon="-0.73617">
        <ele>304.72</ele>
        <time>2024-05-30T20:30:37.443Z</time>
      </trkpt>
      <trkpt lat="43.11223" lon="-0.73594">
        <ele>304.59</ele>
        <time>2024-05-30T20:30:38.327Z</time>
      </trkpt>
      <trkpt lat="43.11208" lon="-0.73586">
        <ele>304.5</ele>
        <time>2024-05-30T20:30:39.214Z</time>
      </trkpt>
      <trkpt lat="43.11196" lon="-0.73581">
        <ele>304.42</ele>
        <time>2024-05-30T20:30:40.104Z</time>
      </trkpt>
      <trkpt lat="43.11163" lon="-0.73576">
        <ele>304.24</ele>
        <time>2024-05-30T20:30:41.000Z</time>
      </trkpt>
      <trkpt lat="43.1102" lon="-0.73564">
        <ele>304.33</ele>
        <time>2024-05-30T20:30:41.925Z</time>
      </trkpt>
      <trkpt lat="43.1089" lon="-0.73557">
        <ele>303.71</ele>
        <time>2024-05-30T20:30:42.876Z</time>
      </trkpt>
      <trkpt lat="43.10851" lon="-0.73549">
        <ele>303.56</ele>
        <time>2024-05-30T20:30:43.835Z</time>
      </trkpt>
      <trkpt lat="43.10759" lon="-0.73516">
        <ele>303.43</ele>
        <time>2024-05-30T20:30:44.813Z</time>
      </trkpt>
      <trkpt lat="43.10694" lon="-0.73482">
        <ele>303.59</ele>
        <time>2024-05-30T20:30:45.805Z</time>
      </trkpt>
      <trkpt lat="43.10641" lon="-0.73446">
        <ele>303.59</ele>
        <time>2024-05-30T20:30:46.809Z</time>
      </trkpt>
      <trkpt lat="43.10591" lon="-0.73396">
        <ele>303.76</ele>
        <time>2024-05-30T20:30:47.825Z</time>
      </trkpt>
      <trkpt lat="43.1049" lon="-0.73269">
        <ele>303.94</ele>
        <time>2024-05-30T20:30:48.868Z</time>
      </trkpt>
      <trkpt lat="43.10451" lon="-0.7323">
        <ele>304.13</ele>
        <time>2024-05-30T20:30:49.921Z</time>
      </trkpt>
      <trkpt lat="43.10405" lon="-0.7317">
        <ele>304.25</ele>
        <time>2024-05-30T20:30:50.987Z</time>
      </trkpt>
      <trkpt lat="43.10362" lon="-0.73128">
        <ele>304.6</ele>
        <time>2024-05-30T20:30:52.063Z</time>
      </trkpt>
      <trkpt lat="43.10341" lon="-0.73101">
        <ele>304.92</ele>
        <time>2024-05-30T20:30:53.145Z</time>
      </trkpt>
      <trkpt lat="43.10284" lon="-0.73002">
        <ele>305.24</ele>
        <time>2024-05-30T20:30:54.246Z</time>
      </trkpt>
      <trkpt lat="43.10256" lon="-0.72947">
        <ele>305.68</ele>
        <time>2024-05-30T20:30:55.356Z</time>
      </trkpt>
      <trkpt lat="43.10227" lon="-0.72845">
        <ele>306.16</ele>
        <time>2024-05-30T20:30:56.482Z</time>
      </trkpt>
      <trkpt lat="43.1021" lon="-0.72806">
        <ele>306.68</ele>
        <time>2024-05-30T20:30:57.615Z</time>
      </trkpt>
      <trkpt lat="43.1016" lon="-0.72723">
        <ele>307.27</ele>
        <time>2024-05-30T20:30:58.764Z</time>
      </trkpt>
      <trkpt lat="43.10091" lon="-0.72563">
        <ele>308.03</ele>
        <time>2024-05-30T20:30:59.940Z</time>
      </trkpt>
      <trkpt lat="43.1005" lon="-0.72457">
        <ele>308.68</ele>
        <time>2024-05-30T20:31:01.134Z</time>
      </trkpt>
      <trkpt lat="43.10046" lon="-0.72451">
        <ele>309.33</ele>
        <time>2024-05-30T20:31:02.329Z</time>
      </trkpt>
      <trkpt lat="43.10038" lon="-0.7244">
        <ele>310</ele>
        <time>2024-05-30T20:31:03.526Z</time>
      </trkpt>
      <trkpt lat="43.10011" lon="-0.72411">
        <ele>310.73</ele>
        <time>2024-05-30T20:31:04.730Z</time>
      </trkpt>
      <trkpt lat="43.09969" lon="-0.72343">
        <ele>311.48</ele>
        <time>2024-05-30T20:31:05.947Z</time>
      </trkpt>
      <trkpt lat="43.09918" lon="-0.72293">
        <ele>312.31</ele>
        <time>2024-05-30T20:31:07.177Z</time>
      </trkpt>
      <trkpt lat="43.09834" lon="-0.72222">
        <ele>313.27</ele>
        <time>2024-05-30T20:31:08.426Z</time>
      </trkpt>
      <trkpt lat="43.09784" lon="-0.72201">
        <ele>314.09</ele>
        <time>2024-05-30T20:31:09.686Z</time>
      </trkpt>
      <trkpt lat="43.09757" lon="-0.72193">
        <ele>314.84</ele>
        <time>2024-05-30T20:31:10.951Z</time>
      </trkpt>
      <trkpt lat="43.09744" lon="-0.72183">
        <ele>315.58</ele>
        <time>2024-05-30T20:31:12.219Z</time>
      </trkpt>
      <trkpt lat="43.09736" lon="-0.72164">
        <ele>316.3</ele>
        <time>2024-05-30T20:31:13.490Z</time>
      </trkpt>
      <trkpt lat="43.09735" lon="-0.72141">
        <ele>317.01</ele>
        <time>2024-05-30T20:31:14.765Z</time>
      </trkpt>
      <trkpt lat="43.09738" lon="-0.72084">
        <ele>317.78</ele>
        <time>2024-05-30T20:31:16.048Z</time>
      </trkpt>
      <trkpt lat="43.09735" lon="-0.72072">
        <ele>318.5</ele>
        <time>2024-05-30T20:31:17.333Z</time>
      </trkpt>
      <trkpt lat="43.09721" lon="-0.72041">
        <ele>319.2</ele>
        <time>2024-05-30T20:31:18.623Z</time>
      </trkpt>
      <trkpt lat="43.09696" lon="-0.72006">
        <ele>319.92</ele>
        <time>2024-05-30T20:31:19.921Z</time>
      </trkpt>
      <trkpt lat="43.09687" lon="-0.71994">
        <ele>320.58</ele>
        <time>2024-05-30T20:31:21.221Z</time>
      </trkpt>
      <trkpt lat="43.09629" lon="-0.71952">
        <ele>321.25</ele>
        <time>2024-05-30T20:31:22.534Z</time>
      </trkpt>
      <trkpt lat="43.09596" lon="-0.71923">
        <ele>321.91</ele>
        <time>2024-05-30T20:31:23.855Z</time>
      </trkpt>
      <trkpt lat="43.09588" lon="-0.71912">
        <ele>322.51</ele>
        <time>2024-05-30T20:31:25.178Z</time>
      </trkpt>
      <trkpt lat="43.09558" lon="-0.71855">
        <ele>323.11</ele>
        <time>2024-05-30T20:31:26.512Z</time>
      </trkpt>
      <trkpt lat="43.09542" lon="-0.71806">
        <ele>323.61</ele>
        <time>2024-05-30T20:31:27.853Z</time>
      </trkpt>
      <trkpt lat="43.09538" lon="-0.7179">
        <ele>324.09</ele>
        <time>2024-05-30T20:31:29.197Z</time>
      </trkpt>
      <trkpt lat="43.09539" lon="-0.71773">
        <ele>324.55</ele>
        <time>2024-05-30T20:31:30.543Z</time>
      </trkpt>
      <trkpt lat="43.09556" lon="-0.71721">
        <ele>324.95</ele>
        <time>2024-05-30T20:31:31.898Z</time>
      </trkpt>
      <trkpt lat="43.09558" lon="-0.71713">
        <ele>325.32</ele>
        <time>2024-05-30T20:31:33.254Z</time>
      </trkpt>
      <trkpt lat="43.09557" lon="-0.71703">
        <ele>325.66</ele>
        <time>2024-05-30T20:31:34.612Z</time>
      </trkpt>
      <trkpt lat="43.09552" lon="-0.71704">
        <ele>325.94</ele>
        <time>2024-05-30T20:31:35.971Z</time>
      </trkpt>
      <trkpt lat="43.09527" lon="-0.71708">
        <ele>326.22</ele>
        <time>2024-05-30T20:31:37.335Z</time>
      </trkpt>
      <trkpt lat="43.09513" lon="-0.71705">
        <ele>326.45</ele>
        <time>2024-05-30T20:31:38.701Z</time>
      </trkpt>
      <trkpt lat="43.09494" lon="-0.71692">
        <ele>326.65</ele>
        <time>2024-05-30T20:31:40.072Z</time>
      </trkpt>
      <trkpt lat="43.09459" lon="-0.71671">
        <ele>326.84</ele>
        <time>2024-05-30T20:31:41.450Z</time>
      </trkpt>
      <trkpt lat="43.09408" lon="-0.71624">
        <ele>326.98</ele>
        <time>2024-05-30T20:31:42.841Z</time>
      </trkpt>
      <trkpt lat="43.09375" lon="-0.71608">
        <ele>327.02</ele>
        <time>2024-05-30T20:31:44.239Z</time>
      </trkpt>
      <trkpt lat="43.09313" lon="-0.7159">
        <ele>327.1</ele>
        <time>2024-05-30T20:31:45.649Z</time>
      </trkpt>
      <trkpt lat="43.09261" lon="-0.71562">
        <ele>327.12</ele>
        <time>2024-05-30T20:31:47.070Z</time>
      </trkpt>
      <trkpt lat="43.09254" lon="-0.7156">
        <ele>327.07</ele>
        <time>2024-05-30T20:31:48.493Z</time>
      </trkpt>
      <trkpt lat="43.09239" lon="-0.71561">
        <ele>327</ele>
        <time>2024-05-30T20:31:49.919Z</time>
      </trkpt>
      <trkpt lat="43.09236" lon="-0.71547">
        <ele>326.89</ele>
        <time>2024-05-30T20:31:51.347Z</time>
      </trkpt>
      <trkpt lat="43.09224" lon="-0.71539">
        <ele>326.77</ele>
        <time>2024-05-30T20:31:52.778Z</time>
      </trkpt>
      <trkpt lat="43.09198" lon="-0.71529">
        <ele>326.61</ele>
        <time>2024-05-30T20:31:54.214Z</time>
      </trkpt>
      <trkpt lat="43.09182" lon="-0.7152">
        <ele>326.44</ele>
        <time>2024-05-30T20:31:55.654Z</time>
      </trkpt>
      <trkpt lat="43.09154" lon="-0.715">
        <ele>326.33</ele>
        <time>2024-05-30T20:31:57.100Z</time>
      </trkpt>
      <trkpt lat="43.09126" lon="-0.71473">
        <ele>326.27</ele>
        <time>2024-05-30T20:31:58.553Z</time>
      </trkpt>
      <trkpt lat="43.09088" lon="-0.71432">
        <ele>326.12</ele>
        <time>2024-05-30T20:32:00.015Z</time>
      </trkpt>
      <trkpt lat="43.09064" lon="-0.71401">
        <ele>325.95</ele>
        <time>2024-05-30T20:32:01.484Z</time>
      </trkpt>
      <trkpt lat="43.09051" lon="-0.71388">
        <ele>325.81</ele>
        <time>2024-05-30T20:32:02.956Z</time>
      </trkpt>
      <trkpt lat="43.09011" lon="-0.71362">
        <ele>325.66</ele>
        <time>2024-05-30T20:32:04.437Z</time>
      </trkpt>
      <trkpt lat="43.08998" lon="-0.71359">
        <ele>325.63</ele>
        <time>2024-05-30T20:32:05.921Z</time>
      </trkpt>
      <trkpt lat="43.08967" lon="-0.71363">
        <ele>325.69</ele>
        <time>2024-05-30T20:32:07.411Z</time>
      </trkpt>
      <trkpt lat="43.08856" lon="-0.71391">
        <ele>325.71</ele>
        <time>2024-05-30T20:32:08.924Z</time>
      </trkpt>
      <trkpt lat="43.08836" lon="-0.71392">
        <ele>325.84</ele>
        <time>2024-05-30T20:32:10.441Z</time>
      </trkpt>
      <trkpt lat="43.08826" lon="-0.71388">
        <ele>326.03</ele>
        <time>2024-05-30T20:32:11.960Z</time>
      </trkpt>
      <trkpt lat="43.08821" lon="-0.71378">
        <ele>326.29</ele>
        <time>2024-05-30T20:32:13.480Z</time>
      </trkpt>
      <trkpt lat="43.08804" lon="-0.71325">
        <ele>326.72</ele>
        <time>2024-05-30T20:32:15.009Z</time>
      </trkpt>
      <trkpt lat="43.08798" lon="-0.71311">
        <ele>327.18</ele>
        <time>2024-05-30T20:32:16.540Z</time>
      </trkpt>
      <trkpt lat="43.08792" lon="-0.71302">
        <ele>327.74</ele>
        <time>2024-05-30T20:32:18.073Z</time>
      </trkpt>
      <trkpt lat="43.08785" lon="-0.71297">
        <ele>328.39</ele>
        <time>2024-05-30T20:32:19.608Z</time>
      </trkpt>
      <trkpt lat="43.08763" lon="-0.71288">
        <ele>329.1</ele>
        <time>2024-05-30T20:32:21.147Z</time>
      </trkpt>
      <trkpt lat="43.08703" lon="-0.71247">
        <ele>329.89</ele>
        <time>2024-05-30T20:32:22.700Z</time>
      </trkpt>
      <trkpt lat="43.08636" lon="-0.71194">
        <ele>331.04</ele>
        <time>2024-05-30T20:32:24.268Z</time>
      </trkpt>
      <trkpt lat="43.08627" lon="-0.71157">
        <ele>332.34</ele>
        <time>2024-05-30T20:32:25.842Z</time>
      </trkpt>
      <trkpt lat="43.08618" lon="-0.71147">
        <ele>333.71</ele>
        <time>2024-05-30T20:32:27.418Z</time>
      </trkpt>
      <trkpt lat="43.08591" lon="-0.71137">
        <ele>335.31</ele>
        <time>2024-05-30T20:32:29.000Z</time>
      </trkpt>
      <trkpt lat="43.08572" lon="-0.71135">
        <ele>336.85</ele>
        <time>2024-05-30T20:32:30.586Z</time>
      </trkpt>
      <trkpt lat="43.08538" lon="-0.71142">
        <ele>338.48</ele>
        <time>2024-05-30T20:32:32.178Z</time>
      </trkpt>
      <trkpt lat="43.08519" lon="-0.7114">
        <ele>340.32</ele>
        <time>2024-05-30T20:32:33.774Z</time>
      </trkpt>
      <trkpt lat="43.085" lon="-0.71129">
        <ele>342.35</ele>
        <time>2024-05-30T20:32:35.374Z</time>
      </trkpt>
      <trkpt lat="43.0849" lon="-0.71115">
        <ele>344.52</ele>
        <time>2024-05-30T20:32:36.977Z</time>
      </trkpt>
      <trkpt lat="43.08486" lon="-0.71094">
        <ele>346.89</ele>
        <time>2024-05-30T20:32:38.583Z</time>
      </trkpt>
      <trkpt lat="43.08488" lon="-0.71051">
        <ele>349.66</ele>
        <time>2024-05-30T20:32:40.196Z</time>
      </trkpt>
      <trkpt lat="43.08484" lon="-0.71043">
        <ele>352.25</ele>
        <time>2024-05-30T20:32:41.810Z</time>
      </trkpt>
      <trkpt lat="43.08475" lon="-0.7104">
        <ele>354.93</ele>
        <time>2024-05-30T20:32:43.426Z</time>
      </trkpt>
      <trkpt lat="43.08461" lon="-0.71039">
        <ele>357.72</ele>
        <time>2024-05-30T20:32:45.045Z</time>
      </trkpt>
      <trkpt lat="43.08444" lon="-0.71043">
        <ele>360.57</ele>
        <time>2024-05-30T20:32:46.667Z</time>
      </trkpt>
      <trkpt lat="43.08406" lon="-0.7102">
        <ele>363.75</ele>
        <time>2024-05-30T20:32:48.298Z</time>
      </trkpt>
      <trkpt lat="43.08403" lon="-0.71014">
        <ele>366.95</ele>
        <time>2024-05-30T20:32:49.930Z</time>
      </trkpt>
      <trkpt lat="43.08402" lon="-0.71011">
        <ele>370.23</ele>
        <time>2024-05-30T20:32:51.562Z</time>
      </trkpt>
      <trkpt lat="43.08407" lon="-0.70984">
        <ele>373.79</ele>
        <time>2024-05-30T20:32:53.198Z</time>
      </trkpt>
      <trkpt lat="43.08408" lon="-0.70954">
        <ele>377.35</ele>
        <time>2024-05-30T20:32:54.839Z</time>
      </trkpt>
      <trkpt lat="43.08405" lon="-0.70937">
        <ele>380.97</ele>
        <time>2024-05-30T20:32:56.482Z</time>
      </trkpt>
      <trkpt lat="43.08398" lon="-0.70924">
        <ele>384.65</ele>
        <time>2024-05-30T20:32:58.128Z</time>
      </trkpt>
      <trkpt lat="43.08385" lon="-0.70915">
        <ele>388.4</ele>
        <time>2024-05-30T20:32:59.776Z</time>
      </trkpt>
      <trkpt lat="43.08306" lon="-0.70893">
        <ele>392.63</ele>
        <time>2024-05-30T20:33:01.441Z</time>
      </trkpt>
      <trkpt lat="43.08234" lon="-0.70876">
        <ele>396.9</ele>
        <time>2024-05-30T20:33:03.120Z</time>
      </trkpt>
      <trkpt lat="43.08074" lon="-0.70828">
        <ele>401.25</ele>
        <time>2024-05-30T20:33:04.832Z</time>
      </trkpt>
      <trkpt lat="43.08013" lon="-0.70783">
        <ele>405.56</ele>
        <time>2024-05-30T20:33:06.558Z</time>
      </trkpt>
      <trkpt lat="43.07981" lon="-0.7077">
        <ele>409.5</ele>
        <time>2024-05-30T20:33:08.291Z</time>
      </trkpt>
      <trkpt lat="43.07969" lon="-0.70773">
        <ele>413.12</ele>
        <time>2024-05-30T20:33:10.026Z</time>
      </trkpt>
      <trkpt lat="43.07963" lon="-0.7078">
        <ele>416.53</ele>
        <time>2024-05-30T20:33:11.763Z</time>
      </trkpt>
      <trkpt lat="43.07969" lon="-0.70801">
        <ele>419.56</ele>
        <time>2024-05-30T20:33:13.503Z</time>
      </trkpt>
      <trkpt lat="43.07972" lon="-0.70825">
        <ele>422.51</ele>
        <time>2024-05-30T20:33:15.246Z</time>
      </trkpt>
      <trkpt lat="43.0797" lon="-0.70834">
        <ele>425.59</ele>
        <time>2024-05-30T20:33:16.991Z</time>
      </trkpt>
      <trkpt lat="43.07963" lon="-0.7084">
        <ele>428.65</ele>
        <time>2024-05-30T20:33:18.737Z</time>
      </trkpt>
      <trkpt lat="43.07851" lon="-0.70859">
        <ele>432.73</ele>
        <time>2024-05-30T20:33:20.506Z</time>
      </trkpt>
      <trkpt lat="43.07841" lon="-0.70865">
        <ele>435.59</ele>
        <time>2024-05-30T20:33:22.277Z</time>
      </trkpt>
      <trkpt lat="43.07807" lon="-0.70897">
        <ele>438.19</ele>
        <time>2024-05-30T20:33:24.056Z</time>
      </trkpt>
      <trkpt lat="43.07795" lon="-0.70902">
        <ele>440.82</ele>
        <time>2024-05-30T20:33:25.838Z</time>
      </trkpt>
      <trkpt lat="43.07777" lon="-0.70902">
        <ele>443.33</ele>
        <time>2024-05-30T20:33:27.624Z</time>
      </trkpt>
      <trkpt lat="43.07763" lon="-0.70898">
        <ele>445.73</ele>
        <time>2024-05-30T20:33:29.412Z</time>
      </trkpt>
      <trkpt lat="43.07719" lon="-0.70874">
        <ele>448.3</ele>
        <time>2024-05-30T20:33:31.210Z</time>
      </trkpt>
      <trkpt lat="43.07707" lon="-0.7087">
        <ele>450.45</ele>
        <time>2024-05-30T20:33:33.010Z</time>
      </trkpt>
      <trkpt lat="43.07673" lon="-0.70868">
        <ele>452.44</ele>
        <time>2024-05-30T20:33:34.817Z</time>
      </trkpt>
      <trkpt lat="43.07655" lon="-0.70873">
        <ele>454.22</ele>
        <time>2024-05-30T20:33:36.628Z</time>
      </trkpt>
      <trkpt lat="43.0759" lon="-0.70909">
        <ele>455.99</ele>
        <time>2024-05-30T20:33:38.453Z</time>
      </trkpt>
      <trkpt lat="43.07508" lon="-0.7093">
        <ele>457.81</ele>
        <time>2024-05-30T20:33:40.295Z</time>
      </trkpt>
      <trkpt lat="43.07469" lon="-0.70943">
        <ele>459.42</ele>
        <time>2024-05-30T20:33:42.145Z</time>
      </trkpt>
      <trkpt lat="43.07441" lon="-0.70966">
        <ele>460.91</ele>
        <time>2024-05-30T20:33:44.001Z</time>
      </trkpt>
      <trkpt lat="43.07428" lon="-0.71012">
        <ele>462.12</ele>
        <time>2024-05-30T20:33:45.864Z</time>
      </trkpt>
      <trkpt lat="43.07419" lon="-0.71026">
        <ele>463.43</ele>
        <time>2024-05-30T20:33:47.730Z</time>
      </trkpt>
      <trkpt lat="43.07409" lon="-0.71033">
        <ele>464.69</ele>
        <time>2024-05-30T20:33:49.598Z</time>
      </trkpt>
      <trkpt lat="43.07384" lon="-0.7103">
        <ele>465.94</ele>
        <time>2024-05-30T20:33:51.471Z</time>
      </trkpt>
      <trkpt lat="43.07379" lon="-0.71026">
        <ele>467.06</ele>
        <time>2024-05-30T20:33:53.346Z</time>
      </trkpt>
      <trkpt lat="43.07339" lon="-0.70996">
        <ele>468.28</ele>
        <time>2024-05-30T20:33:55.230Z</time>
      </trkpt>
      <trkpt lat="43.07321" lon="-0.70979">
        <ele>469.31</ele>
        <time>2024-05-30T20:33:57.118Z</time>
      </trkpt>
      <trkpt lat="43.07307" lon="-0.7096">
        <ele>470.32</ele>
        <time>2024-05-30T20:33:59.010Z</time>
      </trkpt>
      <trkpt lat="43.0729" lon="-0.70933">
        <ele>471.23</ele>
        <time>2024-05-30T20:34:00.907Z</time>
      </trkpt>
      <trkpt lat="43.07286" lon="-0.70923">
        <ele>472.01</ele>
        <time>2024-05-30T20:34:02.806Z</time>
      </trkpt>
      <trkpt lat="43.07268" lon="-0.70845">
        <ele>472.81</ele>
        <time>2024-05-30T20:34:04.717Z</time>
      </trkpt>
      <trkpt lat="43.07253" lon="-0.70804">
        <ele>473.67</ele>
        <time>2024-05-30T20:34:06.635Z</time>
      </trkpt>
      <trkpt lat="43.07219" lon="-0.70754">
        <ele>474.54</ele>
        <time>2024-05-30T20:34:08.563Z</time>
      </trkpt>
      <trkpt lat="43.07176" lon="-0.70714">
        <ele>475.18</ele>
        <time>2024-05-30T20:34:10.501Z</time>
      </trkpt>
      <trkpt lat="43.07132" lon="-0.70689">
        <ele>475.6</ele>
        <time>2024-05-30T20:34:12.448Z</time>
      </trkpt>
      <trkpt lat="43.071" lon="-0.70675">
        <ele>475.99</ele>
        <time>2024-05-30T20:34:14.402Z</time>
      </trkpt>
      <trkpt lat="43.07065" lon="-0.70668">
        <ele>476.43</ele>
        <time>2024-05-30T20:34:16.363Z</time>
      </trkpt>
      <trkpt lat="43.06992" lon="-0.70663">
        <ele>476.44</ele>
        <time>2024-05-30T20:34:18.339Z</time>
      </trkpt>
      <trkpt lat="43.06971" lon="-0.70658">
        <ele>476.65</ele>
        <time>2024-05-30T20:34:20.319Z</time>
      </trkpt>
      <trkpt lat="43.06931" lon="-0.70645">
        <ele>476.88</ele>
        <time>2024-05-30T20:34:22.307Z</time>
      </trkpt>
      <trkpt lat="43.06925" lon="-0.70642">
        <ele>477.05</ele>
        <time>2024-05-30T20:34:24.297Z</time>
      </trkpt>
      <trkpt lat="43.06907" lon="-0.70625">
        <ele>477.2</ele>
        <time>2024-05-30T20:34:26.291Z</time>
      </trkpt>
      <trkpt lat="43.06904" lon="-0.70619">
        <ele>477.35</ele>
        <time>2024-05-30T20:34:28.286Z</time>
      </trkpt>
      <trkpt lat="43.06902" lon="-0.70614">
        <ele>477.52</ele>
        <time>2024-05-30T20:34:30.282Z</time>
      </trkpt>
      <trkpt lat="43.06902" lon="-0.70604">
        <ele>477.72</ele>
        <time>2024-05-30T20:34:32.279Z</time>
      </trkpt>
      <trkpt lat="43.06912" lon="-0.70568">
        <ele>477.97</ele>
        <time>2024-05-30T20:34:34.282Z</time>
      </trkpt>
      <trkpt lat="43.06916" lon="-0.70529">
        <ele>478.28</ele>
        <time>2024-05-30T20:34:36.291Z</time>
      </trkpt>
      <trkpt lat="43.0692" lon="-0.70509">
        <ele>478.7</ele>
        <time>2024-05-30T20:34:38.303Z</time>
      </trkpt>
      <trkpt lat="43.0693" lon="-0.70488">
        <ele>479.12</ele>
        <time>2024-05-30T20:34:40.319Z</time>
      </trkpt>
      <trkpt lat="43.06946" lon="-0.70462">
        <ele>479.65</ele>
        <time>2024-05-30T20:34:42.340Z</time>
      </trkpt>
      <trkpt lat="43.06964" lon="-0.70448">
        <ele>480.3</ele>
        <time>2024-05-30T20:34:44.365Z</time>
      </trkpt>
      <trkpt lat="43.06984" lon="-0.70439">
        <ele>481.13</ele>
        <time>2024-05-30T20:34:46.394Z</time>
      </trkpt>
      <trkpt lat="43.07002" lon="-0.70423">
        <ele>481.94</ele>
        <time>2024-05-30T20:34:48.427Z</time>
      </trkpt>
      <trkpt lat="43.07015" lon="-0.70405">
        <ele>482.85</ele>
        <time>2024-05-30T20:34:50.464Z</time>
      </trkpt>
      <trkpt lat="43.07033" lon="-0.70387">
        <ele>483.93</ele>
        <time>2024-05-30T20:34:52.505Z</time>
      </trkpt>
      <trkpt lat="43.07043" lon="-0.70366">
        <ele>485.2</ele>
        <time>2024-05-30T20:34:54.550Z</time>
      </trkpt>
      <trkpt lat="43.07044" lon="-0.70344">
        <ele>486.77</ele>
        <time>2024-05-30T20:34:56.598Z</time>
      </trkpt>
      <trkpt lat="43.07034" lon="-0.70335">
        <ele>488.59</ele>
        <time>2024-05-30T20:34:58.649Z</time>
      </trkpt>
      <trkpt lat="43.06995" lon="-0.70314">
        <ele>490.71</ele>
        <time>2024-05-30T20:35:00.708Z</time>
      </trkpt>
      <trkpt lat="43.06979" lon="-0.70296">
        <ele>493.05</ele>
        <time>2024-05-30T20:35:02.771Z</time>
      </trkpt>
      <trkpt lat="43.06957" lon="-0.70261">
        <ele>495.56</ele>
        <time>2024-05-30T20:35:04.841Z</time>
      </trkpt>
      <trkpt lat="43.06918" lon="-0.70223">
        <ele>498.33</ele>
        <time>2024-05-30T20:35:06.921Z</time>
      </trkpt>
      <trkpt lat="43.06868" lon="-0.70179">
        <ele>501.18</ele>
        <time>2024-05-30T20:35:09.012Z</time>
      </trkpt>
      <trkpt lat="43.06858" lon="-0.70167">
        <ele>504.03</ele>
        <time>2024-05-30T20:35:11.106Z</time>
      </trkpt>
      <trkpt lat="43.06831" lon="-0.70086">
        <ele>507.38</ele>
        <time>2024-05-30T20:35:13.213Z</time>
      </trkpt>
      <trkpt lat="43.06807" lon="-0.70001">
        <ele>510.87</ele>
        <time>2024-05-30T20:35:15.333Z</time>
      </trkpt>
      <trkpt lat="43.06791" lon="-0.6996">
        <ele>514.22</ele>
        <time>2024-05-30T20:35:17.460Z</time>
      </trkpt>
      <trkpt lat="43.06763" lon="-0.69923">
        <ele>517.62</ele>
        <time>2024-05-30T20:35:19.595Z</time>
      </trkpt>
      <trkpt lat="43.06752" lon="-0.699">
        <ele>521.17</ele>
        <time>2024-05-30T20:35:21.734Z</time>
      </trkpt>
      <trkpt lat="43.06745" lon="-0.69871">
        <ele>524.89</ele>
        <time>2024-05-30T20:35:23.878Z</time>
      </trkpt>
      <trkpt lat="43.06708" lon="-0.69814">
        <ele>528.78</ele>
        <time>2024-05-30T20:35:26.033Z</time>
      </trkpt>
      <trkpt lat="43.06674" lon="-0.69766">
        <ele>532.57</ele>
        <time>2024-05-30T20:35:28.198Z</time>
      </trkpt>
      <trkpt lat="43.06654" lon="-0.6975">
        <ele>536.25</ele>
        <time>2024-05-30T20:35:30.367Z</time>
      </trkpt>
      <trkpt lat="43.06634" lon="-0.69742">
        <ele>539.98</ele>
        <time>2024-05-30T20:35:32.540Z</time>
      </trkpt>
      <trkpt lat="43.06602" lon="-0.69737">
        <ele>543.64</ele>
        <time>2024-05-30T20:35:34.720Z</time>
      </trkpt>
      <trkpt lat="43.06587" lon="-0.69732">
        <ele>547.28</ele>
        <time>2024-05-30T20:35:36.903Z</time>
      </trkpt>
      <trkpt lat="43.06532" lon="-0.69682">
        <ele>551.19</ele>
        <time>2024-05-30T20:35:39.099Z</time>
      </trkpt>
      <trkpt lat="43.06494" lon="-0.69659">
        <ele>554.94</ele>
        <time>2024-05-30T20:35:41.303Z</time>
      </trkpt>
      <trkpt lat="43.06466" lon="-0.69624">
        <ele>558.77</ele>
        <time>2024-05-30T20:35:43.515Z</time>
      </trkpt>
      <trkpt lat="43.06452" lon="-0.69616">
        <ele>562.18</ele>
        <time>2024-05-30T20:35:45.730Z</time>
      </trkpt>
      <trkpt lat="43.06413" lon="-0.69615">
        <ele>565.37</ele>
        <time>2024-05-30T20:35:47.953Z</time>
      </trkpt>
      <trkpt lat="43.06397" lon="-0.6961">
        <ele>568.74</ele>
        <time>2024-05-30T20:35:50.179Z</time>
      </trkpt>
      <trkpt lat="43.06381" lon="-0.69598">
        <ele>572.14</ele>
        <time>2024-05-30T20:35:52.409Z</time>
      </trkpt>
      <trkpt lat="43.06371" lon="-0.69598">
        <ele>575.19</ele>
        <time>2024-05-30T20:35:54.641Z</time>
      </trkpt>
      <trkpt lat="43.06344" lon="-0.69604">
        <ele>578.04</ele>
        <time>2024-05-30T20:35:56.878Z</time>
      </trkpt>
      <trkpt lat="43.06325" lon="-0.69603">
        <ele>580.83</ele>
        <time>2024-05-30T20:35:59.119Z</time>
      </trkpt>
      <trkpt lat="43.06295" lon="-0.69588">
        <ele>583.57</ele>
        <time>2024-05-30T20:36:01.366Z</time>
      </trkpt>
      <trkpt lat="43.06265" lon="-0.69554">
        <ele>586.25</ele>
        <time>2024-05-30T20:36:03.621Z</time>
      </trkpt>
      <trkpt lat="43.06225" lon="-0.69474">
        <ele>589.19</ele>
        <time>2024-05-30T20:36:05.890Z</time>
      </trkpt>
      <trkpt lat="43.062" lon="-0.69442">
        <ele>591.58</ele>
        <time>2024-05-30T20:36:08.166Z</time>
      </trkpt>
      <trkpt lat="43.06193" lon="-0.6944">
        <ele>593.58</ele>
        <time>2024-05-30T20:36:10.444Z</time>
      </trkpt>
      <trkpt lat="43.06187" lon="-0.69441">
        <ele>595.35</ele>
        <time>2024-05-30T20:36:12.723Z</time>
      </trkpt>
      <trkpt lat="43.06183" lon="-0.69447">
        <ele>596.9</ele>
        <time>2024-05-30T20:36:15.003Z</time>
      </trkpt>
      <trkpt lat="43.06179" lon="-0.69469">
        <ele>598.11</ele>
        <time>2024-05-30T20:36:17.286Z</time>
      </trkpt>
      <trkpt lat="43.06172" lon="-0.69479">
        <ele>599.29</ele>
        <time>2024-05-30T20:36:19.571Z</time>
      </trkpt>
      <trkpt lat="43.0616" lon="-0.69484">
        <ele>600.39</ele>
        <time>2024-05-30T20:36:21.859Z</time>
      </trkpt>
      <trkpt lat="43.06149" lon="-0.69479">
        <ele>601.34</ele>
        <time>2024-05-30T20:36:24.149Z</time>
      </trkpt>
      <trkpt lat="43.06088" lon="-0.69434">
        <ele>602.6</ele>
        <time>2024-05-30T20:36:26.453Z</time>
      </trkpt>
      <trkpt lat="43.06042" lon="-0.69377">
        <ele>603.45</ele>
        <time>2024-05-30T20:36:28.770Z</time>
      </trkpt>
      <trkpt lat="43.06023" lon="-0.69346">
        <ele>603.83</ele>
        <time>2024-05-30T20:36:31.092Z</time>
      </trkpt>
      <trkpt lat="43.05954" lon="-0.69258">
        <ele>603.52</ele>
        <time>2024-05-30T20:36:33.433Z</time>
      </trkpt>
      <trkpt lat="43.05943" lon="-0.69248">
        <ele>603.39</ele>
        <time>2024-05-30T20:36:35.777Z</time>
      </trkpt>
      <trkpt lat="43.05932" lon="-0.69247">
        <ele>603.15</ele>
        <time>2024-05-30T20:36:38.123Z</time>
      </trkpt>
      <trkpt lat="43.05908" lon="-0.69257">
        <ele>602.89</ele>
        <time>2024-05-30T20:36:40.474Z</time>
      </trkpt>
      <trkpt lat="43.05898" lon="-0.69257">
        <ele>602.41</ele>
        <time>2024-05-30T20:36:42.827Z</time>
      </trkpt>
      <trkpt lat="43.05897" lon="-0.69254">
        <ele>601.73</ele>
        <time>2024-05-30T20:36:45.181Z</time>
      </trkpt>
      <trkpt lat="43.05897" lon="-0.69248">
        <ele>600.87</ele>
        <time>2024-05-30T20:36:47.536Z</time>
      </trkpt>
      <trkpt lat="43.05904" lon="-0.69217">
        <ele>599.7</ele>
        <time>2024-05-30T20:36:49.895Z</time>
      </trkpt>
      <trkpt lat="43.05906" lon="-0.69163">
        <ele>598.47</ele>
        <time>2024-05-30T20:36:52.262Z</time>
      </trkpt>
      <trkpt lat="43.059" lon="-0.69126">
        <ele>597.22</ele>
        <time>2024-05-30T20:36:54.635Z</time>
      </trkpt>
      <trkpt lat="43.05885" lon="-0.69087">
        <ele>595.81</ele>
        <time>2024-05-30T20:36:57.014Z</time>
      </trkpt>
      <trkpt lat="43.05861" lon="-0.69051">
        <ele>594.36</ele>
        <time>2024-05-30T20:36:59.400Z</time>
      </trkpt>
      <trkpt lat="43.05827" lon="-0.69013">
        <ele>592.92</ele>
        <time>2024-05-30T20:37:01.795Z</time>
      </trkpt>
      <trkpt lat="43.05793" lon="-0.68985">
        <ele>591.36</ele>
        <time>2024-05-30T20:37:04.198Z</time>
      </trkpt>
      <trkpt lat="43.05763" lon="-0.68974">
        <ele>589.61</ele>
        <time>2024-05-30T20:37:06.607Z</time>
      </trkpt>
      <trkpt lat="43.05735" lon="-0.68979">
        <ele>587.78</ele>
        <time>2024-05-30T20:37:09.022Z</time>
      </trkpt>
      <trkpt lat="43.05716" lon="-0.68988">
        <ele>586.03</ele>
        <time>2024-05-30T20:37:11.441Z</time>
      </trkpt>
      <trkpt lat="43.05676" lon="-0.68975">
        <ele>583.89</ele>
        <time>2024-05-30T20:37:13.868Z</time>
      </trkpt>
      <trkpt lat="43.05665" lon="-0.68981">
        <ele>582</ele>
        <time>2024-05-30T20:37:16.298Z</time>
      </trkpt>
      <trkpt lat="43.05654" lon="-0.69001">
        <ele>580.27</ele>
        <time>2024-05-30T20:37:18.731Z</time>
      </trkpt>
      <trkpt lat="43.05619" lon="-0.69037">
        <ele>578.49</ele>
        <time>2024-05-30T20:37:21.173Z</time>
      </trkpt>
      <trkpt lat="43.05602" lon="-0.69049">
        <ele>576.52</ele>
        <time>2024-05-30T20:37:23.619Z</time>
      </trkpt>
      <trkpt lat="43.05597" lon="-0.69047">
        <ele>574.4</ele>
        <time>2024-05-30T20:37:26.066Z</time>
      </trkpt>
      <trkpt lat="43.05595" lon="-0.69042">
        <ele>572.22</ele>
        <time>2024-05-30T20:37:28.514Z</time>
      </trkpt>
      <trkpt lat="43.05594" lon="-0.6904">
        <ele>570</ele>
        <time>2024-05-30T20:37:30.962Z</time>
      </trkpt>
      <trkpt lat="43.05601" lon="-0.68993">
        <ele>567.31</ele>
        <time>2024-05-30T20:37:33.417Z</time>
      </trkpt>
      <trkpt lat="43.05601" lon="-0.68957">
        <ele>564.65</ele>
        <time>2024-05-30T20:37:35.877Z</time>
      </trkpt>
      <trkpt lat="43.05597" lon="-0.68916">
        <ele>562.19</ele>
        <time>2024-05-30T20:37:38.344Z</time>
      </trkpt>
      <trkpt lat="43.05598" lon="-0.68892">
        <ele>559.72</ele>
        <time>2024-05-30T20:37:40.814Z</time>
      </trkpt>
      <trkpt lat="43.05612" lon="-0.68837">
        <ele>557.13</ele>
        <time>2024-05-30T20:37:43.293Z</time>
      </trkpt>
      <trkpt lat="43.0561" lon="-0.68816">
        <ele>554.62</ele>
        <time>2024-05-30T20:37:45.775Z</time>
      </trkpt>
      <trkpt lat="43.05596" lon="-0.68775">
        <ele>552.23</ele>
        <time>2024-05-30T20:37:48.263Z</time>
      </trkpt>
      <trkpt lat="43.05594" lon="-0.68741">
        <ele>549.63</ele>
        <time>2024-05-30T20:37:50.756Z</time>
      </trkpt>
      <trkpt lat="43.05589" lon="-0.68711">
        <ele>546.94</ele>
        <time>2024-05-30T20:37:53.254Z</time>
      </trkpt>
      <trkpt lat="43.05589" lon="-0.68678">
        <ele>544.14</ele>
        <time>2024-05-30T20:37:55.757Z</time>
      </trkpt>
      <trkpt lat="43.05583" lon="-0.68625">
        <ele>541.41</ele>
        <time>2024-05-30T20:37:58.268Z</time>
      </trkpt>
      <trkpt lat="43.05595" lon="-0.68575">
        <ele>538.5</ele>
        <time>2024-05-30T20:38:00.786Z</time>
      </trkpt>
      <trkpt lat="43.05599" lon="-0.68548">
        <ele>535.83</ele>
        <time>2024-05-30T20:38:03.308Z</time>
      </trkpt>
      <trkpt lat="43.05597" lon="-0.68494">
        <ele>533.05</ele>
        <time>2024-05-30T20:38:05.838Z</time>
      </trkpt>
      <trkpt lat="43.05591" lon="-0.68459">
        <ele>530.33</ele>
        <time>2024-05-30T20:38:08.373Z</time>
      </trkpt>
      <trkpt lat="43.0558" lon="-0.6844">
        <ele>527.65</ele>
        <time>2024-05-30T20:38:10.912Z</time>
      </trkpt>
      <trkpt lat="43.05565" lon="-0.6843">
        <ele>525.1</ele>
        <time>2024-05-30T20:38:13.454Z</time>
      </trkpt>
      <trkpt lat="43.05551" lon="-0.68428">
        <ele>522.49</ele>
        <time>2024-05-30T20:38:15.999Z</time>
      </trkpt>
      <trkpt lat="43.05497" lon="-0.68438">
        <ele>519.43</ele>
        <time>2024-05-30T20:38:18.555Z</time>
      </trkpt>
      <trkpt lat="43.05485" lon="-0.68447">
        <ele>516.59</ele>
        <time>2024-05-30T20:38:21.114Z</time>
      </trkpt>
      <trkpt lat="43.05471" lon="-0.68486">
        <ele>514.16</ele>
        <time>2024-05-30T20:38:23.679Z</time>
      </trkpt>
      <trkpt lat="43.05465" lon="-0.6849">
        <ele>511.3</ele>
        <time>2024-05-30T20:38:26.246Z</time>
      </trkpt>
      <trkpt lat="43.0544" lon="-0.68488">
        <ele>508.12</ele>
        <time>2024-05-30T20:38:28.818Z</time>
      </trkpt>
      <trkpt lat="43.05427" lon="-0.68493">
        <ele>505.12</ele>
        <time>2024-05-30T20:38:31.392Z</time>
      </trkpt>
      <trkpt lat="43.05383" lon="-0.68531">
        <ele>502.11</ele>
        <time>2024-05-30T20:38:33.977Z</time>
      </trkpt>
      <trkpt lat="43.05371" lon="-0.6853">
        <ele>498.82</ele>
        <time>2024-05-30T20:38:36.564Z</time>
      </trkpt>
      <trkpt lat="43.05342" lon="-0.68513">
        <ele>495.28</ele>
        <time>2024-05-30T20:38:39.157Z</time>
      </trkpt>
      <trkpt lat="43.05338" lon="-0.68507">
        <ele>491.97</ele>
        <time>2024-05-30T20:38:41.752Z</time>
      </trkpt>
      <trkpt lat="43.05336" lon="-0.685">
        <ele>488.56</ele>
        <time>2024-05-30T20:38:44.348Z</time>
      </trkpt>
      <trkpt lat="43.05343" lon="-0.68459">
        <ele>484.92</ele>
        <time>2024-05-30T20:38:46.950Z</time>
      </trkpt>
      <trkpt lat="43.05352" lon="-0.68432">
        <ele>481.19</ele>
        <time>2024-05-30T20:38:49.556Z</time>
      </trkpt>
      <trkpt lat="43.05392" lon="-0.68415">
        <ele>477.27</ele>
        <time>2024-05-30T20:38:52.171Z</time>
      </trkpt>
      <trkpt lat="43.05437" lon="-0.68372">
        <ele>473.41</ele>
        <time>2024-05-30T20:38:54.797Z</time>
      </trkpt>
      <trkpt lat="43.05456" lon="-0.6835">
        <ele>469.65</ele>
        <time>2024-05-30T20:38:57.428Z</time>
      </trkpt>
      <trkpt lat="43.05487" lon="-0.68271">
        <ele>465.6</ele>
        <time>2024-05-30T20:39:00.072Z</time>
      </trkpt>
      <trkpt lat="43.05488" lon="-0.68258">
        <ele>461.7</ele>
        <time>2024-05-30T20:39:02.718Z</time>
      </trkpt>
      <trkpt lat="43.05482" lon="-0.68249">
        <ele>457.67</ele>
        <time>2024-05-30T20:39:05.365Z</time>
      </trkpt>
      <trkpt lat="43.05446" lon="-0.68239">
        <ele>453.2</ele>
        <time>2024-05-30T20:39:08.020Z</time>
      </trkpt>
      <trkpt lat="43.05416" lon="-0.68233">
        <ele>449.31</ele>
        <time>2024-05-30T20:39:10.681Z</time>
      </trkpt>
      <trkpt lat="43.05413" lon="-0.68225">
        <ele>445.44</ele>
        <time>2024-05-30T20:39:13.343Z</time>
      </trkpt>
      <trkpt lat="43.05417" lon="-0.68206">
        <ele>441.47</ele>
        <time>2024-05-30T20:39:16.008Z</time>
      </trkpt>
      <trkpt lat="43.05417" lon="-0.68146">
        <ele>437.44</ele>
        <time>2024-05-30T20:39:18.682Z</time>
      </trkpt>
      <trkpt lat="43.05411" lon="-0.68094">
        <ele>433.44</ele>
        <time>2024-05-30T20:39:21.364Z</time>
      </trkpt>
      <trkpt lat="43.05386" lon="-0.6802">
        <ele>429.39</ele>
        <time>2024-05-30T20:39:24.057Z</time>
      </trkpt>
      <trkpt lat="43.05346" lon="-0.6793">
        <ele>425.42</ele>
        <time>2024-05-30T20:39:26.766Z</time>
      </trkpt>
      <trkpt lat="43.05301" lon="-0.67807">
        <ele>421.13</ele>
        <time>2024-05-30T20:39:29.495Z</time>
      </trkpt>
      <trkpt lat="43.05293" lon="-0.67798">
        <ele>417.7</ele>
        <time>2024-05-30T20:39:32.226Z</time>
      </trkpt>
      <trkpt lat="43.05278" lon="-0.67795">
        <ele>414.41</ele>
        <time>2024-05-30T20:39:34.960Z</time>
      </trkpt>
      <trkpt lat="43.05212" lon="-0.67801">
        <ele>411.04</ele>
        <time>2024-05-30T20:39:37.707Z</time>
      </trkpt>
      <trkpt lat="43.05196" lon="-0.67789">
        <ele>408.18</ele>
        <time>2024-05-30T20:39:40.458Z</time>
      </trkpt>
      <trkpt lat="43.05129" lon="-0.67718">
        <ele>405.23</ele>
        <time>2024-05-30T20:39:43.226Z</time>
      </trkpt>
      <trkpt lat="43.05125" lon="-0.677">
        <ele>402.84</ele>
        <time>2024-05-30T20:39:45.997Z</time>
      </trkpt>
      <trkpt lat="43.05125" lon="-0.67694">
        <ele>400.72</ele>
        <time>2024-05-30T20:39:48.769Z</time>
      </trkpt>
      <trkpt lat="43.05107" lon="-0.67687">
        <ele>398.87</ele>
        <time>2024-05-30T20:39:51.544Z</time>
      </trkpt>
      <trkpt lat="43.05092" lon="-0.67679">
        <ele>397.26</ele>
        <time>2024-05-30T20:39:54.323Z</time>
      </trkpt>
      <trkpt lat="43.0506" lon="-0.67653">
        <ele>395.91</ele>
        <time>2024-05-30T20:39:57.109Z</time>
      </trkpt>
      <trkpt lat="43.05049" lon="-0.67647">
        <ele>394.76</ele>
        <time>2024-05-30T20:39:59.897Z</time>
      </trkpt>
      <trkpt lat="43.05021" lon="-0.67644">
        <ele>393.91</ele>
        <time>2024-05-30T20:40:02.691Z</time>
      </trkpt>
      <trkpt lat="43.05016" lon="-0.6764">
        <ele>393.27</ele>
        <time>2024-05-30T20:40:05.486Z</time>
      </trkpt>
      <trkpt lat="43.05013" lon="-0.67618">
        <ele>392.8</ele>
        <time>2024-05-30T20:40:08.284Z</time>
      </trkpt>
      <trkpt lat="43.05005" lon="-0.67587">
        <ele>392.7</ele>
        <time>2024-05-30T20:40:11.087Z</time>
      </trkpt>
      <trkpt lat="43.05011" lon="-0.67579">
        <ele>392.76</ele>
        <time>2024-05-30T20:40:13.892Z</time>
      </trkpt>
      <trkpt lat="43.05036" lon="-0.67537">
        <ele>393.02</ele>
        <time>2024-05-30T20:40:16.705Z</time>
      </trkpt>
      <trkpt lat="43.05068" lon="-0.67512">
        <ele>393.58</ele>
        <time>2024-05-30T20:40:19.525Z</time>
      </trkpt>
      <trkpt lat="43.05077" lon="-0.67501">
        <ele>394.31</ele>
        <time>2024-05-30T20:40:22.348Z</time>
      </trkpt>
      <trkpt lat="43.05089" lon="-0.67475">
        <ele>395.27</ele>
        <time>2024-05-30T20:40:25.175Z</time>
      </trkpt>
      <trkpt lat="43.05097" lon="-0.67439">
        <ele>396.4</ele>
        <time>2024-05-30T20:40:28.008Z</time>
      </trkpt>
      <trkpt lat="43.05096" lon="-0.67384">
        <ele>397.76</ele>
        <time>2024-05-30T20:40:30.849Z</time>
      </trkpt>
      <trkpt lat="43.05089" lon="-0.67335">
        <ele>399.13</ele>
        <time>2024-05-30T20:40:33.697Z</time>
      </trkpt>
      <trkpt lat="43.05075" lon="-0.67288">
        <ele>400.71</ele>
        <time>2024-05-30T20:40:36.553Z</time>
      </trkpt>
      <trkpt lat="43.05063" lon="-0.67263">
        <ele>402.28</ele>
        <time>2024-05-30T20:40:39.413Z</time>
      </trkpt>
      <trkpt lat="43.05052" lon="-0.67243">
        <ele>403.91</ele>
        <time>2024-05-30T20:40:42.277Z</time>
      </trkpt>
      <trkpt lat="43.05001" lon="-0.67175">
        <ele>405.76</ele>
        <time>2024-05-30T20:40:45.155Z</time>
      </trkpt>
      <trkpt lat="43.04996" lon="-0.67163">
        <ele>407.53</ele>
        <time>2024-05-30T20:40:48.035Z</time>
      </trkpt>
      <trkpt lat="43.04993" lon="-0.67143">
        <ele>409.27</ele>
        <time>2024-05-30T20:40:50.918Z</time>
      </trkpt>
      <trkpt lat="43.04977" lon="-0.67123">
        <ele>411.25</ele>
        <time>2024-05-30T20:40:53.805Z</time>
      </trkpt>
      <trkpt lat="43.04975" lon="-0.67119">
        <ele>413.08</ele>
        <time>2024-05-30T20:40:56.693Z</time>
      </trkpt>
      <trkpt lat="43.04975" lon="-0.67112">
        <ele>414.93</ele>
        <time>2024-05-30T20:40:59.582Z</time>
      </trkpt>
      <trkpt lat="43.0498" lon="-0.67097">
        <ele>416.76</ele>
        <time>2024-05-30T20:41:02.473Z</time>
      </trkpt>
      <trkpt lat="43.04997" lon="-0.67076">
        <ele>418.59</ele>
        <time>2024-05-30T20:41:05.369Z</time>
      </trkpt>
      <trkpt lat="43.05001" lon="-0.67064">
        <ele>420.47</ele>
        <time>2024-05-30T20:41:08.267Z</time>
      </trkpt>
      <trkpt lat="43.05003" lon="-0.67053">
        <ele>422.32</ele>
        <time>2024-05-30T20:41:11.167Z</time>
      </trkpt>
      <trkpt lat="43.05004" lon="-0.67041">
        <ele>424.17</ele>
        <time>2024-05-30T20:41:14.068Z</time>
      </trkpt>
      <trkpt lat="43.05003" lon="-0.67034">
        <ele>425.98</ele>
        <time>2024-05-30T20:41:16.970Z</time>
      </trkpt>
      <trkpt lat="43.04999" lon="-0.67015">
        <ele>427.77</ele>
        <time>2024-05-30T20:41:19.875Z</time>
      </trkpt>
      <trkpt lat="43.04995" lon="-0.67004">
        <ele>429.56</ele>
        <time>2024-05-30T20:41:22.782Z</time>
      </trkpt>
      <trkpt lat="43.04983" lon="-0.66986">
        <ele>431.35</ele>
        <time>2024-05-30T20:41:25.693Z</time>
      </trkpt>
      <trkpt lat="43.04978" lon="-0.66969">
        <ele>433.07</ele>
        <time>2024-05-30T20:41:28.606Z</time>
      </trkpt>
      <trkpt lat="43.04976" lon="-0.66919">
        <ele>434.72</ele>
        <time>2024-05-30T20:41:31.527Z</time>
      </trkpt>
      <trkpt lat="43.04985" lon="-0.66865">
        <ele>436.48</ele>
        <time>2024-05-30T20:41:34.456Z</time>
      </trkpt>
      <trkpt lat="43.04981" lon="-0.66839">
        <ele>438.23</ele>
        <time>2024-05-30T20:41:37.389Z</time>
      </trkpt>
      <trkpt lat="43.0497" lon="-0.66812">
        <ele>439.92</ele>
        <time>2024-05-30T20:41:40.326Z</time>
      </trkpt>
      <trkpt lat="43.0496" lon="-0.66799">
        <ele>441.53</ele>
        <time>2024-05-30T20:41:43.266Z</time>
      </trkpt>
      <trkpt lat="43.04947" lon="-0.66787">
        <ele>443.15</ele>
        <time>2024-05-30T20:41:46.209Z</time>
      </trkpt>
      <trkpt lat="43.04903" lon="-0.6676">
        <ele>444.93</ele>
        <time>2024-05-30T20:41:49.162Z</time>
      </trkpt>
      <trkpt lat="43.04898" lon="-0.66751">
        <ele>446.5</ele>
        <time>2024-05-30T20:41:52.116Z</time>
      </trkpt>
      <trkpt lat="43.04875" lon="-0.66668">
        <ele>447.99</ele>
        <time>2024-05-30T20:41:55.083Z</time>
      </trkpt>
      <trkpt lat="43.04872" lon="-0.66641">
        <ele>449.53</ele>
        <time>2024-05-30T20:41:58.054Z</time>
      </trkpt>
      <trkpt lat="43.04874" lon="-0.66599">
        <ele>451.15</ele>
        <time>2024-05-30T20:42:01.032Z</time>
      </trkpt>
      <trkpt lat="43.0488" lon="-0.66559">
        <ele>452.65</ele>
        <time>2024-05-30T20:42:04.016Z</time>
      </trkpt>
      <trkpt lat="43.04883" lon="-0.66548">
        <ele>454.07</ele>
        <time>2024-05-30T20:42:07.001Z</time>
      </trkpt>
      <trkpt lat="43.0489" lon="-0.66535">
        <ele>455.43</ele>
        <time>2024-05-30T20:42:09.989Z</time>
      </trkpt>
      <trkpt lat="43.049" lon="-0.66526">
        <ele>456.74</ele>
        <time>2024-05-30T20:42:12.979Z</time>
      </trkpt>
      <trkpt lat="43.04919" lon="-0.66514">
        <ele>458.04</ele>
        <time>2024-05-30T20:42:15.973Z</time>
      </trkpt>
      <trkpt lat="43.04926" lon="-0.66504">
        <ele>459.36</ele>
        <time>2024-05-30T20:42:18.969Z</time>
      </trkpt>
      <trkpt lat="43.04938" lon="-0.6648">
        <ele>460.71</ele>
        <time>2024-05-30T20:42:21.970Z</time>
      </trkpt>
      <trkpt lat="43.04949" lon="-0.66447">
        <ele>462</ele>
        <time>2024-05-30T20:42:24.976Z</time>
      </trkpt>
      <trkpt lat="43.04957" lon="-0.66395">
        <ele>463.45</ele>
        <time>2024-05-30T20:42:27.990Z</time>
      </trkpt>
      <trkpt lat="43.0497" lon="-0.66329">
        <ele>465</ele>
        <time>2024-05-30T20:42:31.014Z</time>
      </trkpt>
      <trkpt lat="43.04983" lon="-0.66281">
        <ele>466.34</ele>
        <time>2024-05-30T20:42:34.045Z</time>
      </trkpt>
      <trkpt lat="43.04995" lon="-0.66262">
        <ele>467.6</ele>
        <time>2024-05-30T20:42:37.080Z</time>
      </trkpt>
      <trkpt lat="43.05001" lon="-0.66249">
        <ele>468.81</ele>
        <time>2024-05-30T20:42:40.117Z</time>
      </trkpt>
      <trkpt lat="43.05003" lon="-0.66235">
        <ele>469.98</ele>
        <time>2024-05-30T20:42:43.156Z</time>
      </trkpt>
      <trkpt lat="43.05002" lon="-0.66218">
        <ele>471.09</ele>
        <time>2024-05-30T20:42:46.198Z</time>
      </trkpt>
      <trkpt lat="43.04996" lon="-0.6619">
        <ele>472.26</ele>
        <time>2024-05-30T20:42:49.244Z</time>
      </trkpt>
      <trkpt lat="43.04964" lon="-0.6611">
        <ele>473.42</ele>
        <time>2024-05-30T20:42:52.303Z</time>
      </trkpt>
      <trkpt lat="43.04957" lon="-0.66085">
        <ele>474.45</ele>
        <time>2024-05-30T20:42:55.366Z</time>
      </trkpt>
      <trkpt lat="43.04953" lon="-0.66064">
        <ele>475.57</ele>
        <time>2024-05-30T20:42:58.432Z</time>
      </trkpt>
      <trkpt lat="43.04953" lon="-0.66008">
        <ele>476.91</ele>
        <time>2024-05-30T20:43:01.507Z</time>
      </trkpt>
      <trkpt lat="43.04951" lon="-0.6599">
        <ele>478</ele>
        <time>2024-05-30T20:43:04.584Z</time>
      </trkpt>
      <trkpt lat="43.04947" lon="-0.6598">
        <ele>478.94</ele>
        <time>2024-05-30T20:43:07.663Z</time>
      </trkpt>
      <trkpt lat="43.04925" lon="-0.6595">
        <ele>479.66</ele>
        <time>2024-05-30T20:43:10.748Z</time>
      </trkpt>
      <trkpt lat="43.04912" lon="-0.65928">
        <ele>480.62</ele>
        <time>2024-05-30T20:43:13.837Z</time>
      </trkpt>
      <trkpt lat="43.04903" lon="-0.65907">
        <ele>481.55</ele>
        <time>2024-05-30T20:43:16.930Z</time>
      </trkpt>
      <trkpt lat="43.049" lon="-0.65893">
        <ele>482.53</ele>
        <time>2024-05-30T20:43:20.025Z</time>
      </trkpt>
      <trkpt lat="43.04899" lon="-0.65881">
        <ele>483.46</ele>
        <time>2024-05-30T20:43:23.122Z</time>
      </trkpt>
      <trkpt lat="43.04901" lon="-0.65866">
        <ele>484.4</ele>
        <time>2024-05-30T20:43:26.221Z</time>
      </trkpt>
      <trkpt lat="43.04908" lon="-0.6584">
        <ele>485.33</ele>
        <time>2024-05-30T20:43:29.324Z</time>
      </trkpt>
      <trkpt lat="43.04909" lon="-0.65828">
        <ele>486.27</ele>
        <time>2024-05-30T20:43:32.429Z</time>
      </trkpt>
      <trkpt lat="43.04908" lon="-0.65803">
        <ele>487.25</ele>
        <time>2024-05-30T20:43:35.538Z</time>
      </trkpt>
      <trkpt lat="43.04906" lon="-0.6579">
        <ele>488.17</ele>
        <time>2024-05-30T20:43:38.649Z</time>
      </trkpt>
      <trkpt lat="43.04901" lon="-0.65779">
        <ele>489.11</ele>
        <time>2024-05-30T20:43:41.761Z</time>
      </trkpt>
      <trkpt lat="43.04895" lon="-0.65769">
        <ele>490.09</ele>
        <time>2024-05-30T20:43:44.875Z</time>
      </trkpt>
      <trkpt lat="43.04888" lon="-0.65761">
        <ele>491.1</ele>
        <time>2024-05-30T20:43:47.991Z</time>
      </trkpt>
      <trkpt lat="43.0487" lon="-0.6575">
        <ele>492.14</ele>
        <time>2024-05-30T20:43:51.111Z</time>
      </trkpt>
      <trkpt lat="43.04845" lon="-0.65749">
        <ele>493.25</ele>
        <time>2024-05-30T20:43:54.236Z</time>
      </trkpt>
      <trkpt lat="43.04833" lon="-0.65742">
        <ele>494.41</ele>
        <time>2024-05-30T20:43:57.364Z</time>
      </trkpt>
      <trkpt lat="43.04812" lon="-0.65743">
        <ele>495.57</ele>
        <time>2024-05-30T20:44:00.496Z</time>
      </trkpt>
      <trkpt lat="43.04796" lon="-0.65739">
        <ele>496.77</ele>
        <time>2024-05-30T20:44:03.631Z</time>
      </trkpt>
      <trkpt lat="43.04789" lon="-0.65734">
        <ele>498</ele>
        <time>2024-05-30T20:44:06.768Z</time>
      </trkpt>
      <trkpt lat="43.0478" lon="-0.65724">
        <ele>499.25</ele>
        <time>2024-05-30T20:44:09.907Z</time>
      </trkpt>
      <trkpt lat="43.04749" lon="-0.65668">
        <ele>500.91</ele>
        <time>2024-05-30T20:44:13.056Z</time>
      </trkpt>
      <trkpt lat="43.04746" lon="-0.65661">
        <ele>502.27</ele>
        <time>2024-05-30T20:44:16.207Z</time>
      </trkpt>
      <trkpt lat="43.04743" lon="-0.65653">
        <ele>503.64</ele>
        <time>2024-05-30T20:44:19.359Z</time>
      </trkpt>
      <trkpt lat="43.04742" lon="-0.65637">
        <ele>505.06</ele>
        <time>2024-05-30T20:44:22.513Z</time>
      </trkpt>
      <trkpt lat="43.04742" lon="-0.65622">
        <ele>506.42</ele>
        <time>2024-05-30T20:44:25.669Z</time>
      </trkpt>
      <trkpt lat="43.04745" lon="-0.65596">
        <ele>507.88</ele>
        <time>2024-05-30T20:44:28.829Z</time>
      </trkpt>
      <trkpt lat="43.04743" lon="-0.65552">
        <ele>509.4</ele>
        <time>2024-05-30T20:44:31.996Z</time>
      </trkpt>
      <trkpt lat="43.04744" lon="-0.65539">
        <ele>510.9</ele>
        <time>2024-05-30T20:44:35.165Z</time>
      </trkpt>
      <trkpt lat="43.04748" lon="-0.6551">
        <ele>512.5</ele>
        <time>2024-05-30T20:44:38.338Z</time>
      </trkpt>
      <trkpt lat="43.04748" lon="-0.65503">
        <ele>514.05</ele>
        <time>2024-05-30T20:44:41.512Z</time>
      </trkpt>
      <trkpt lat="43.04744" lon="-0.65485">
        <ele>515.65</ele>
        <time>2024-05-30T20:44:44.689Z</time>
      </trkpt>
      <trkpt lat="43.04738" lon="-0.65473">
        <ele>517.24</ele>
        <time>2024-05-30T20:44:47.868Z</time>
      </trkpt>
      <trkpt lat="43.04724" lon="-0.65453">
        <ele>518.95</ele>
        <time>2024-05-30T20:44:51.051Z</time>
      </trkpt>
      <trkpt lat="43.04703" lon="-0.65416">
        <ele>520.68</ele>
        <time>2024-05-30T20:44:54.241Z</time>
      </trkpt>
      <trkpt lat="43.04694" lon="-0.65406">
        <ele>522.42</ele>
        <time>2024-05-30T20:44:57.433Z</time>
      </trkpt>
      <trkpt lat="43.04688" lon="-0.65395">
        <ele>524.1</ele>
        <time>2024-05-30T20:45:00.627Z</time>
      </trkpt>
      <trkpt lat="43.04659" lon="-0.65281">
        <ele>526.21</ele>
        <time>2024-05-30T20:45:03.839Z</time>
      </trkpt>
      <trkpt lat="43.04657" lon="-0.65265">
        <ele>528</ele>
        <time>2024-05-30T20:45:07.053Z</time>
      </trkpt>
      <trkpt lat="43.04657" lon="-0.65208">
        <ele>529.89</ele>
        <time>2024-05-30T20:45:10.276Z</time>
      </trkpt>
      <trkpt lat="43.04654" lon="-0.65177">
        <ele>531.69</ele>
        <time>2024-05-30T20:45:13.503Z</time>
      </trkpt>
      <trkpt lat="43.04642" lon="-0.65102">
        <ele>533.78</ele>
        <time>2024-05-30T20:45:16.741Z</time>
      </trkpt>
      <trkpt lat="43.04637" lon="-0.6509">
        <ele>535.58</ele>
        <time>2024-05-30T20:45:19.981Z</time>
      </trkpt>
      <trkpt lat="43.04624" lon="-0.65068">
        <ele>537.38</ele>
        <time>2024-05-30T20:45:23.226Z</time>
      </trkpt>
      <trkpt lat="43.04607" lon="-0.65051">
        <ele>539.19</ele>
        <time>2024-05-30T20:45:26.475Z</time>
      </trkpt>
      <trkpt lat="43.04596" lon="-0.65043">
        <ele>541.06</ele>
        <time>2024-05-30T20:45:29.726Z</time>
      </trkpt>
      <trkpt lat="43.04589" lon="-0.6504">
        <ele>542.94</ele>
        <time>2024-05-30T20:45:32.979Z</time>
      </trkpt>
      <trkpt lat="43.0456" lon="-0.65036">
        <ele>544.88</ele>
        <time>2024-05-30T20:45:36.238Z</time>
      </trkpt>
      <trkpt lat="43.04549" lon="-0.65032">
        <ele>546.76</ele>
        <time>2024-05-30T20:45:39.499Z</time>
      </trkpt>
      <trkpt lat="43.0454" lon="-0.65026">
        <ele>548.67</ele>
        <time>2024-05-30T20:45:42.762Z</time>
      </trkpt>
      <trkpt lat="43.04532" lon="-0.65018">
        <ele>550.63</ele>
        <time>2024-05-30T20:45:46.027Z</time>
      </trkpt>
      <trkpt lat="43.04513" lon="-0.64983">
        <ele>552.51</ele>
        <time>2024-05-30T20:45:49.298Z</time>
      </trkpt>
      <trkpt lat="43.04492" lon="-0.64925">
        <ele>554.66</ele>
        <time>2024-05-30T20:45:52.579Z</time>
      </trkpt>
      <trkpt lat="43.04485" lon="-0.64916">
        <ele>556.61</ele>
        <time>2024-05-30T20:45:55.862Z</time>
      </trkpt>
      <trkpt lat="43.04456" lon="-0.64889">
        <ele>558.75</ele>
        <time>2024-05-30T20:45:59.152Z</time>
      </trkpt>
      <trkpt lat="43.04426" lon="-0.64857">
        <ele>560.69</ele>
        <time>2024-05-30T20:46:02.449Z</time>
      </trkpt>
      <trkpt lat="43.04388" lon="-0.64799">
        <ele>562.82</ele>
        <time>2024-05-30T20:46:05.758Z</time>
      </trkpt>
      <trkpt lat="43.04377" lon="-0.64775">
        <ele>564.66</ele>
        <time>2024-05-30T20:46:09.071Z</time>
      </trkpt>
      <trkpt lat="43.0437" lon="-0.64737">
        <ele>566.59</ele>
        <time>2024-05-30T20:46:12.390Z</time>
      </trkpt>
      <trkpt lat="43.04364" lon="-0.64726">
        <ele>568.39</ele>
        <time>2024-05-30T20:46:15.711Z</time>
      </trkpt>
      <trkpt lat="43.04346" lon="-0.64706">
        <ele>570.13</ele>
        <time>2024-05-30T20:46:19.036Z</time>
      </trkpt>
      <trkpt lat="43.04339" lon="-0.64695">
        <ele>571.89</ele>
        <time>2024-05-30T20:46:22.363Z</time>
      </trkpt>
      <trkpt lat="43.04333" lon="-0.64674">
        <ele>573.68</ele>
        <time>2024-05-30T20:46:25.694Z</time>
      </trkpt>
      <trkpt lat="43.04311" lon="-0.64637">
        <ele>575.4</ele>
        <time>2024-05-30T20:46:29.032Z</time>
      </trkpt>
      <trkpt lat="43.04305" lon="-0.64625">
        <ele>577.06</ele>
        <time>2024-05-30T20:46:32.372Z</time>
      </trkpt>
      <trkpt lat="43.04298" lon="-0.64598">
        <ele>578.73</ele>
        <time>2024-05-30T20:46:35.716Z</time>
      </trkpt>
      <trkpt lat="43.04293" lon="-0.64588">
        <ele>580.38</ele>
        <time>2024-05-30T20:46:39.062Z</time>
      </trkpt>
      <trkpt lat="43.04287" lon="-0.64578">
        <ele>582.11</ele>
        <time>2024-05-30T20:46:42.410Z</time>
      </trkpt>
      <trkpt lat="43.04274" lon="-0.64564">
        <ele>583.81</ele>
        <time>2024-05-30T20:46:45.761Z</time>
      </trkpt>
      <trkpt lat="43.04264" lon="-0.6455">
        <ele>585.5</ele>
        <time>2024-05-30T20:46:49.115Z</time>
      </trkpt>
      <trkpt lat="43.0425" lon="-0.64513">
        <ele>587.27</ele>
        <time>2024-05-30T20:46:52.475Z</time>
      </trkpt>
      <trkpt lat="43.04247" lon="-0.64492">
        <ele>588.95</ele>
        <time>2024-05-30T20:46:55.838Z</time>
      </trkpt>
      <trkpt lat="43.04247" lon="-0.64469">
        <ele>590.68</ele>
        <time>2024-05-30T20:46:59.205Z</time>
      </trkpt>
      <trkpt lat="43.04245" lon="-0.64453">
        <ele>592.44</ele>
        <time>2024-05-30T20:47:02.574Z</time>
      </trkpt>
      <trkpt lat="43.0422" lon="-0.64366">
        <ele>594.5</ele>
        <time>2024-05-30T20:47:05.957Z</time>
      </trkpt>
      <trkpt lat="43.04206" lon="-0.64327">
        <ele>596.4</ele>
        <time>2024-05-30T20:47:09.346Z</time>
      </trkpt>
      <trkpt lat="43.04206" lon="-0.64318">
        <ele>598.2</ele>
        <time>2024-05-30T20:47:12.736Z</time>
      </trkpt>
      <trkpt lat="43.04208" lon="-0.64311">
        <ele>599.97</ele>
        <time>2024-05-30T20:47:16.127Z</time>
      </trkpt>
      <trkpt lat="43.04214" lon="-0.64305">
        <ele>601.8</ele>
        <time>2024-05-30T20:47:19.520Z</time>
      </trkpt>
      <trkpt lat="43.04222" lon="-0.643">
        <ele>603.68</ele>
        <time>2024-05-30T20:47:22.915Z</time>
      </trkpt>
      <trkpt lat="43.04228" lon="-0.64299">
        <ele>605.56</ele>
        <time>2024-05-30T20:47:26.311Z</time>
      </trkpt>
      <trkpt lat="43.04235" lon="-0.64302">
        <ele>607.44</ele>
        <time>2024-05-30T20:47:29.708Z</time>
      </trkpt>
      <trkpt lat="43.04255" lon="-0.64325">
        <ele>609.37</ele>
        <time>2024-05-30T20:47:33.111Z</time>
      </trkpt>
      <trkpt lat="43.04291" lon="-0.64352">
        <ele>611.55</ele>
        <time>2024-05-30T20:47:36.522Z</time>
      </trkpt>
      <trkpt lat="43.04303" lon="-0.64368">
        <ele>613.61</ele>
        <time>2024-05-30T20:47:39.936Z</time>
      </trkpt>
      <trkpt lat="43.0431" lon="-0.64381">
        <ele>615.66</ele>
        <time>2024-05-30T20:47:43.352Z</time>
      </trkpt>
      <trkpt lat="43.04382" lon="-0.64484">
        <ele>617.97</ele>
        <time>2024-05-30T20:47:46.789Z</time>
      </trkpt>
      <trkpt lat="43.04387" lon="-0.64488">
        <ele>620.11</ele>
        <time>2024-05-30T20:47:50.228Z</time>
      </trkpt>
      <trkpt lat="43.04395" lon="-0.64486">
        <ele>622.34</ele>
        <time>2024-05-30T20:47:53.668Z</time>
      </trkpt>
      <trkpt lat="43.04399" lon="-0.64482">
        <ele>624.58</ele>
        <time>2024-05-30T20:47:57.109Z</time>
      </trkpt>
      <trkpt lat="43.044" lon="-0.64477">
        <ele>626.83</ele>
        <time>2024-05-30T20:48:00.551Z</time>
      </trkpt>
      <trkpt lat="43.04398" lon="-0.64466">
        <ele>629.15</ele>
        <time>2024-05-30T20:48:03.995Z</time>
      </trkpt>
      <trkpt lat="43.0437" lon="-0.64428">
        <ele>631.51</ele>
        <time>2024-05-30T20:48:07.446Z</time>
      </trkpt>
      <trkpt lat="43.04366" lon="-0.64391">
        <ele>634.07</ele>
        <time>2024-05-30T20:48:10.903Z</time>
      </trkpt>
      <trkpt lat="43.04349" lon="-0.64358">
        <ele>636.36</ele>
        <time>2024-05-30T20:48:14.366Z</time>
      </trkpt>
      <trkpt lat="43.04328" lon="-0.64263">
        <ele>638.99</ele>
        <time>2024-05-30T20:48:17.843Z</time>
      </trkpt>
      <trkpt lat="43.04326" lon="-0.64244">
        <ele>641.37</ele>
        <time>2024-05-30T20:48:21.323Z</time>
      </trkpt>
      <trkpt lat="43.04326" lon="-0.64183">
        <ele>643.86</ele>
        <time>2024-05-30T20:48:24.812Z</time>
      </trkpt>
      <trkpt lat="43.04332" lon="-0.6413">
        <ele>646.21</ele>
        <time>2024-05-30T20:48:28.309Z</time>
      </trkpt>
      <trkpt lat="43.04337" lon="-0.64114">
        <ele>648.5</ele>
        <time>2024-05-30T20:48:31.809Z</time>
      </trkpt>
      <trkpt lat="43.04343" lon="-0.64102">
        <ele>650.73</ele>
        <time>2024-05-30T20:48:35.311Z</time>
      </trkpt>
      <trkpt lat="43.04362" lon="-0.64078">
        <ele>653.16</ele>
        <time>2024-05-30T20:48:38.818Z</time>
      </trkpt>
      <trkpt lat="43.04372" lon="-0.64062">
        <ele>655.42</ele>
        <time>2024-05-30T20:48:42.328Z</time>
      </trkpt>
      <trkpt lat="43.04378" lon="-0.64049">
        <ele>657.55</ele>
        <time>2024-05-30T20:48:45.840Z</time>
      </trkpt>
      <trkpt lat="43.04379" lon="-0.64028">
        <ele>659.47</ele>
        <time>2024-05-30T20:48:49.355Z</time>
      </trkpt>
      <trkpt lat="43.04377" lon="-0.64014">
        <ele>661.32</ele>
        <time>2024-05-30T20:48:52.872Z</time>
      </trkpt>
      <trkpt lat="43.04374" lon="-0.64001">
        <ele>663.09</ele>
        <time>2024-05-30T20:48:56.391Z</time>
      </trkpt>
      <trkpt lat="43.04369" lon="-0.63994">
        <ele>664.78</ele>
        <time>2024-05-30T20:48:59.912Z</time>
      </trkpt>
      <trkpt lat="43.04353" lon="-0.6398">
        <ele>666.33</ele>
        <time>2024-05-30T20:49:03.437Z</time>
      </trkpt>
      <trkpt lat="43.04327" lon="-0.63933">
        <ele>668.1</ele>
        <time>2024-05-30T20:49:06.970Z</time>
      </trkpt>
      <trkpt lat="43.04321" lon="-0.63916">
        <ele>669.7</ele>
        <time>2024-05-30T20:49:10.506Z</time>
      </trkpt>
      <trkpt lat="43.04305" lon="-0.63851">
        <ele>671.34</ele>
        <time>2024-05-30T20:49:14.052Z</time>
      </trkpt>
      <trkpt lat="43.04302" lon="-0.63835">
        <ele>672.72</ele>
        <time>2024-05-30T20:49:17.601Z</time>
      </trkpt>
      <trkpt lat="43.04299" lon="-0.63795">
        <ele>674.19</ele>
        <time>2024-05-30T20:49:21.155Z</time>
      </trkpt>
      <trkpt lat="43.04297" lon="-0.63786">
        <ele>675.35</ele>
        <time>2024-05-30T20:49:24.711Z</time>
      </trkpt>
      <trkpt lat="43.04292" lon="-0.63779">
        <ele>676.36</ele>
        <time>2024-05-30T20:49:28.268Z</time>
      </trkpt>
      <trkpt lat="43.04287" lon="-0.63775">
        <ele>677.27</ele>
        <time>2024-05-30T20:49:31.826Z</time>
      </trkpt>
      <trkpt lat="43.04277" lon="-0.63768">
        <ele>678.08</ele>
        <time>2024-05-30T20:49:35.387Z</time>
      </trkpt>
      <trkpt lat="43.04257" lon="-0.63768">
        <ele>678.64</ele>
        <time>2024-05-30T20:49:38.952Z</time>
      </trkpt>
      <trkpt lat="43.04206" lon="-0.63781">
        <ele>679.12</ele>
        <time>2024-05-30T20:49:42.527Z</time>
      </trkpt>
      <trkpt lat="43.04195" lon="-0.63782">
        <ele>679.63</ele>
        <time>2024-05-30T20:49:46.104Z</time>
      </trkpt>
      <trkpt lat="43.04189" lon="-0.63781">
        <ele>680.08</ele>
        <time>2024-05-30T20:49:49.682Z</time>
      </trkpt>
      <trkpt lat="43.04177" lon="-0.6377">
        <ele>680.49</ele>
        <time>2024-05-30T20:49:53.263Z</time>
      </trkpt>
      <trkpt lat="43.04172" lon="-0.63749">
        <ele>680.89</ele>
        <time>2024-05-30T20:49:56.848Z</time>
      </trkpt>
      <trkpt lat="43.04158" lon="-0.63651">
        <ele>681.45</ele>
        <time>2024-05-30T20:50:00.447Z</time>
      </trkpt>
      <trkpt lat="43.04153" lon="-0.63629">
        <ele>681.67</ele>
        <time>2024-05-30T20:50:04.050Z</time>
      </trkpt>
      <trkpt lat="43.04144" lon="-0.63593">
        <ele>681.82</ele>
        <time>2024-05-30T20:50:07.658Z</time>
      </trkpt>
      <trkpt lat="43.04136" lon="-0.63575">
        <ele>681.83</ele>
        <time>2024-05-30T20:50:11.269Z</time>
      </trkpt>
      <trkpt lat="43.0413" lon="-0.63566">
        <ele>681.78</ele>
        <time>2024-05-30T20:50:14.882Z</time>
      </trkpt>
      <trkpt lat="43.04113" lon="-0.63548">
        <ele>681.6</ele>
        <time>2024-05-30T20:50:18.499Z</time>
      </trkpt>
      <trkpt lat="43.04103" lon="-0.63525">
        <ele>681.42</ele>
        <time>2024-05-30T20:50:22.120Z</time>
      </trkpt>
      <trkpt lat="43.04091" lon="-0.63474">
        <ele>681.07</ele>
        <time>2024-05-30T20:50:25.749Z</time>
      </trkpt>
      <trkpt lat="43.0409" lon="-0.6346">
        <ele>680.82</ele>
        <time>2024-05-30T20:50:29.380Z</time>
      </trkpt>
      <trkpt lat="43.04114" lon="-0.63289">
        <ele>680.76</ele>
        <time>2024-05-30T20:50:33.037Z</time>
      </trkpt>
      <trkpt lat="43.04118" lon="-0.63267">
        <ele>680.51</ele>
        <time>2024-05-30T20:50:36.697Z</time>
      </trkpt>
      <trkpt lat="43.04126" lon="-0.63248">
        <ele>680.28</ele>
        <time>2024-05-30T20:50:40.360Z</time>
      </trkpt>
      <trkpt lat="43.04133" lon="-0.6324">
        <ele>680.05</ele>
        <time>2024-05-30T20:50:44.025Z</time>
      </trkpt>
      <trkpt lat="43.04149" lon="-0.63229">
        <ele>679.88</ele>
        <time>2024-05-30T20:50:47.694Z</time>
      </trkpt>
      <trkpt lat="43.04154" lon="-0.63222">
        <ele>679.67</ele>
        <time>2024-05-30T20:50:51.364Z</time>
      </trkpt>
      <trkpt lat="43.04158" lon="-0.63213">
        <ele>679.51</ele>
        <time>2024-05-30T20:50:55.036Z</time>
      </trkpt>
      <trkpt lat="43.04158" lon="-0.63205">
        <ele>679.31</ele>
        <time>2024-05-30T20:50:58.709Z</time>
      </trkpt>
      <trkpt lat="43.04156" lon="-0.63187">
        <ele>679.15</ele>
        <time>2024-05-30T20:51:02.384Z</time>
      </trkpt>
      <trkpt lat="43.0413" lon="-0.63118">
        <ele>679.07</ele>
        <time>2024-05-30T20:51:06.071Z</time>
      </trkpt>
      <trkpt lat="43.041" lon="-0.63025">
        <ele>678.55</ele>
        <time>2024-05-30T20:51:09.773Z</time>
      </trkpt>
      <trkpt lat="43.041" lon="-0.63015">
        <ele>678.5</ele>
        <time>2024-05-30T20:51:13.476Z</time>
      </trkpt>
      <trkpt lat="43.04103" lon="-0.63">
        <ele>678.54</ele>
        <time>2024-05-30T20:51:17.181Z</time>
      </trkpt>
      <trkpt lat="43.04121" lon="-0.62945">
        <ele>678.86</ele>
        <time>2024-05-30T20:51:20.895Z</time>
      </trkpt>
      <trkpt lat="43.04123" lon="-0.62932">
        <ele>678.97</ele>
        <time>2024-05-30T20:51:24.611Z</time>
      </trkpt>
      <trkpt lat="43.04122" lon="-0.6292">
        <ele>679.08</ele>
        <time>2024-05-30T20:51:28.329Z</time>
      </trkpt>
      <trkpt lat="43.04115" lon="-0.62908">
        <ele>679.2</ele>
        <time>2024-05-30T20:51:32.049Z</time>
      </trkpt>
      <trkpt lat="43.04106" lon="-0.62902">
        <ele>679.32</ele>
        <time>2024-05-30T20:51:35.771Z</time>
      </trkpt>
      <trkpt lat="43.04089" lon="-0.62902">
        <ele>679.4</ele>
        <time>2024-05-30T20:51:39.497Z</time>
      </trkpt>
      <trkpt lat="43.04061" lon="-0.62912">
        <ele>679.45</ele>
        <time>2024-05-30T20:51:43.228Z</time>
      </trkpt>
      <trkpt lat="43.04052" lon="-0.62911">
        <ele>679.76</ele>
        <time>2024-05-30T20:51:46.961Z</time>
      </trkpt>
      <trkpt lat="43.04044" lon="-0.62907">
        <ele>680.18</ele>
        <time>2024-05-30T20:51:50.696Z</time>
      </trkpt>
      <trkpt lat="43.04016" lon="-0.6288">
        <ele>680.69</ele>
        <time>2024-05-30T20:51:54.438Z</time>
      </trkpt>
      <trkpt lat="43.03994" lon="-0.62855">
        <ele>681.18</ele>
        <time>2024-05-30T20:51:58.186Z</time>
      </trkpt>
      <trkpt lat="43.03988" lon="-0.62844">
        <ele>681.77</ele>
        <time>2024-05-30T20:52:01.936Z</time>
      </trkpt>
      <trkpt lat="43.03981" lon="-0.62825">
        <ele>682.34</ele>
        <time>2024-05-30T20:52:05.689Z</time>
      </trkpt>
      <trkpt lat="43.03973" lon="-0.62812">
        <ele>682.83</ele>
        <time>2024-05-30T20:52:09.444Z</time>
      </trkpt>
      <trkpt lat="43.03946" lon="-0.62784">
        <ele>683.15</ele>
        <time>2024-05-30T20:52:13.206Z</time>
      </trkpt>
      <trkpt lat="43.03913" lon="-0.62726">
        <ele>683.67</ele>
        <time>2024-05-30T20:52:16.979Z</time>
      </trkpt>
      <trkpt lat="43.03847" lon="-0.62625">
        <ele>684.17</ele>
        <time>2024-05-30T20:52:20.772Z</time>
      </trkpt>
      <trkpt lat="43.0384" lon="-0.62611">
        <ele>684.77</ele>
        <time>2024-05-30T20:52:24.567Z</time>
      </trkpt>
      <trkpt lat="43.03837" lon="-0.62601">
        <ele>685.34</ele>
        <time>2024-05-30T20:52:28.364Z</time>
      </trkpt>
      <trkpt lat="43.03836" lon="-0.62593">
        <ele>685.91</ele>
        <time>2024-05-30T20:52:32.162Z</time>
      </trkpt>
      <trkpt lat="43.03837" lon="-0.62578">
        <ele>686.45</ele>
        <time>2024-05-30T20:52:35.962Z</time>
      </trkpt>
      <trkpt lat="43.03847" lon="-0.62544">
        <ele>687.01</ele>
        <time>2024-05-30T20:52:39.767Z</time>
      </trkpt>
      <trkpt lat="43.03848" lon="-0.62529">
        <ele>687.46</ele>
        <time>2024-05-30T20:52:43.575Z</time>
      </trkpt>
      <trkpt lat="43.03846" lon="-0.62464">
        <ele>688.04</ele>
        <time>2024-05-30T20:52:47.392Z</time>
      </trkpt>
      <trkpt lat="43.03849" lon="-0.62391">
        <ele>688.55</ele>
        <time>2024-05-30T20:52:51.220Z</time>
      </trkpt>
      <trkpt lat="43.03853" lon="-0.62347">
        <ele>688.88</ele>
        <time>2024-05-30T20:52:55.054Z</time>
      </trkpt>
      <trkpt lat="43.03858" lon="-0.62304">
        <ele>688.92</ele>
        <time>2024-05-30T20:52:58.895Z</time>
      </trkpt>
      <trkpt lat="43.03863" lon="-0.62282">
        <ele>688.73</ele>
        <time>2024-05-30T20:53:02.739Z</time>
      </trkpt>
      <trkpt lat="43.03869" lon="-0.62263">
        <ele>688.39</ele>
        <time>2024-05-30T20:53:06.586Z</time>
      </trkpt>
      <trkpt lat="43.03872" lon="-0.62258">
        <ele>687.94</ele>
        <time>2024-05-30T20:53:10.434Z</time>
      </trkpt>
      <trkpt lat="43.03878" lon="-0.62246">
        <ele>687.24</ele>
        <time>2024-05-30T20:53:14.284Z</time>
      </trkpt>
      <trkpt lat="43.03888" lon="-0.62235">
        <ele>686.29</ele>
        <time>2024-05-30T20:53:18.137Z</time>
      </trkpt>
      <trkpt lat="43.03899" lon="-0.62231">
        <ele>685.24</ele>
        <time>2024-05-30T20:53:21.992Z</time>
      </trkpt>
      <trkpt lat="43.03912" lon="-0.62229">
        <ele>684.03</ele>
        <time>2024-05-30T20:53:25.850Z</time>
      </trkpt>
      <trkpt lat="43.03936" lon="-0.62219">
        <ele>682.53</ele>
        <time>2024-05-30T20:53:29.713Z</time>
      </trkpt>
      <trkpt lat="43.03957" lon="-0.62208">
        <ele>681.07</ele>
        <time>2024-05-30T20:53:33.580Z</time>
      </trkpt>
      <trkpt lat="43.0397" lon="-0.62197">
        <ele>679.33</ele>
        <time>2024-05-30T20:53:37.450Z</time>
      </trkpt>
      <trkpt lat="43.03978" lon="-0.62187">
        <ele>677.36</ele>
        <time>2024-05-30T20:53:41.323Z</time>
      </trkpt>
      <trkpt lat="43.0398" lon="-0.62174">
        <ele>675</ele>
        <time>2024-05-30T20:53:45.197Z</time>
      </trkpt>
      <trkpt lat="43.03981" lon="-0.62158">
        <ele>672.43</ele>
        <time>2024-05-30T20:53:49.074Z</time>
      </trkpt>
      <trkpt lat="43.03978" lon="-0.62142">
        <ele>669.56</ele>
        <time>2024-05-30T20:53:52.953Z</time>
      </trkpt>
      <trkpt lat="43.03914" lon="-0.61985">
        <ele>665.64</ele>
        <time>2024-05-30T20:53:56.859Z</time>
      </trkpt>
      <trkpt lat="43.03908" lon="-0.61964">
        <ele>662.43</ele>
        <time>2024-05-30T20:54:00.768Z</time>
      </trkpt>
      <trkpt lat="43.03905" lon="-0.61919">
        <ele>658.95</ele>
        <time>2024-05-30T20:54:04.684Z</time>
      </trkpt>
      <trkpt lat="43.03908" lon="-0.61869">
        <ele>655.21</ele>
        <time>2024-05-30T20:54:08.607Z</time>
      </trkpt>
      <trkpt lat="43.03913" lon="-0.61839">
        <ele>651.51</ele>
        <time>2024-05-30T20:54:12.534Z</time>
      </trkpt>
      <trkpt lat="43.03961" lon="-0.61655">
        <ele>647.24</ele>
        <time>2024-05-30T20:54:16.490Z</time>
      </trkpt>
      <trkpt lat="43.0397" lon="-0.61566">
        <ele>642.75</ele>
        <time>2024-05-30T20:54:20.459Z</time>
      </trkpt>
      <trkpt lat="43.03978" lon="-0.61552">
        <ele>638.85</ele>
        <time>2024-05-30T20:54:24.431Z</time>
      </trkpt>
      <trkpt lat="43.04014" lon="-0.61523">
        <ele>634.98</ele>
        <time>2024-05-30T20:54:28.411Z</time>
      </trkpt>
      <trkpt lat="43.04042" lon="-0.61503">
        <ele>630.78</ele>
        <time>2024-05-30T20:54:32.397Z</time>
      </trkpt>
      <trkpt lat="43.04058" lon="-0.61497">
        <ele>626.67</ele>
        <time>2024-05-30T20:54:36.387Z</time>
      </trkpt>
      <trkpt lat="43.04099" lon="-0.6149">
        <ele>622.6</ele>
        <time>2024-05-30T20:54:40.385Z</time>
      </trkpt>
      <trkpt lat="43.04122" lon="-0.61493">
        <ele>618.87</ele>
        <time>2024-05-30T20:54:44.388Z</time>
      </trkpt>
      <trkpt lat="43.04134" lon="-0.61489">
        <ele>615.1</ele>
        <time>2024-05-30T20:54:48.393Z</time>
      </trkpt>
      <trkpt lat="43.04139" lon="-0.61484">
        <ele>611.26</ele>
        <time>2024-05-30T20:54:52.399Z</time>
      </trkpt>
      <trkpt lat="43.04142" lon="-0.61478">
        <ele>607.41</ele>
        <time>2024-05-30T20:54:56.406Z</time>
      </trkpt>
      <trkpt lat="43.04142" lon="-0.61467">
        <ele>603.52</ele>
        <time>2024-05-30T20:55:00.415Z</time>
      </trkpt>
      <trkpt lat="43.04138" lon="-0.61413">
        <ele>599.32</ele>
        <time>2024-05-30T20:55:04.432Z</time>
      </trkpt>
      <trkpt lat="43.04139" lon="-0.61361">
        <ele>595.3</ele>
        <time>2024-05-30T20:55:08.457Z</time>
      </trkpt>
      <trkpt lat="43.04149" lon="-0.61297">
        <ele>591.4</ele>
        <time>2024-05-30T20:55:12.491Z</time>
      </trkpt>
      <trkpt lat="43.04151" lon="-0.61262">
        <ele>587.7</ele>
        <time>2024-05-30T20:55:16.530Z</time>
      </trkpt>
      <trkpt lat="43.04148" lon="-0.6116">
        <ele>583.61</ele>
        <time>2024-05-30T20:55:20.584Z</time>
      </trkpt>
      <trkpt lat="43.04148" lon="-0.61138">
        <ele>580.11</ele>
        <time>2024-05-30T20:55:24.642Z</time>
      </trkpt>
      <trkpt lat="43.04151" lon="-0.61125">
        <ele>576.8</ele>
        <time>2024-05-30T20:55:28.702Z</time>
      </trkpt>
      <trkpt lat="43.0417" lon="-0.61082">
        <ele>573.68</ele>
        <time>2024-05-30T20:55:32.769Z</time>
      </trkpt>
      <trkpt lat="43.04181" lon="-0.6105">
        <ele>570.53</ele>
        <time>2024-05-30T20:55:36.841Z</time>
      </trkpt>
      <trkpt lat="43.04184" lon="-0.61033">
        <ele>567.47</ele>
        <time>2024-05-30T20:55:40.916Z</time>
      </trkpt>
      <trkpt lat="43.04184" lon="-0.6102">
        <ele>564.55</ele>
        <time>2024-05-30T20:55:44.993Z</time>
      </trkpt>
      <trkpt lat="43.04179" lon="-0.60998">
        <ele>561.7</ele>
        <time>2024-05-30T20:55:49.073Z</time>
      </trkpt>
      <trkpt lat="43.04179" lon="-0.60982">
        <ele>559.02</ele>
        <time>2024-05-30T20:55:53.155Z</time>
      </trkpt>
      <trkpt lat="43.0418" lon="-0.60971">
        <ele>556.49</ele>
        <time>2024-05-30T20:55:57.239Z</time>
      </trkpt>
      <trkpt lat="43.04186" lon="-0.60957">
        <ele>554.06</ele>
        <time>2024-05-30T20:56:01.325Z</time>
      </trkpt>
      <trkpt lat="43.04214" lon="-0.60923">
        <ele>551.61</ele>
        <time>2024-05-30T20:56:05.419Z</time>
      </trkpt>
      <trkpt lat="43.04225" lon="-0.60905">
        <ele>549.39</ele>
        <time>2024-05-30T20:56:09.516Z</time>
      </trkpt>
      <trkpt lat="43.04236" lon="-0.60878">
        <ele>547.21</ele>
        <time>2024-05-30T20:56:13.618Z</time>
      </trkpt>
      <trkpt lat="43.0424" lon="-0.60855">
        <ele>545.11</ele>
        <time>2024-05-30T20:56:17.723Z</time>
      </trkpt>
      <trkpt lat="43.04241" lon="-0.60819">
        <ele>543.14</ele>
        <time>2024-05-30T20:56:21.834Z</time>
      </trkpt>
      <trkpt lat="43.0424" lon="-0.60799">
        <ele>541.2</ele>
        <time>2024-05-30T20:56:25.948Z</time>
      </trkpt>
      <trkpt lat="43.04237" lon="-0.60789">
        <ele>539.39</ele>
        <time>2024-05-30T20:56:30.063Z</time>
      </trkpt>
      <trkpt lat="43.04233" lon="-0.60782">
        <ele>537.65</ele>
        <time>2024-05-30T20:56:34.179Z</time>
      </trkpt>
      <trkpt lat="43.0423" lon="-0.60776">
        <ele>535.97</ele>
        <time>2024-05-30T20:56:38.296Z</time>
      </trkpt>
      <trkpt lat="43.04221" lon="-0.60767">
        <ele>534.33</ele>
        <time>2024-05-30T20:56:42.416Z</time>
      </trkpt>
      <trkpt lat="43.04207" lon="-0.60759">
        <ele>532.78</ele>
        <time>2024-05-30T20:56:46.539Z</time>
      </trkpt>
      <trkpt lat="43.04196" lon="-0.60758">
        <ele>531.28</ele>
        <time>2024-05-30T20:56:50.664Z</time>
      </trkpt>
      <trkpt lat="43.0412" lon="-0.60769">
        <ele>529.69</ele>
        <time>2024-05-30T20:56:54.804Z</time>
      </trkpt>
      <trkpt lat="43.04108" lon="-0.60772">
        <ele>528.23</ele>
        <time>2024-05-30T20:56:58.947Z</time>
      </trkpt>
      <trkpt lat="43.04086" lon="-0.60787">
        <ele>526.88</ele>
        <time>2024-05-30T20:57:03.095Z</time>
      </trkpt>
      <trkpt lat="43.04076" lon="-0.60788">
        <ele>525.41</ele>
        <time>2024-05-30T20:57:07.245Z</time>
      </trkpt>
      <trkpt lat="43.04058" lon="-0.60783">
        <ele>523.83</ele>
        <time>2024-05-30T20:57:11.398Z</time>
      </trkpt>
      <trkpt lat="43.04021" lon="-0.60769">
        <ele>522.02</ele>
        <time>2024-05-30T20:57:15.559Z</time>
      </trkpt>
      <trkpt lat="43.0401" lon="-0.60768">
        <ele>520.49</ele>
        <time>2024-05-30T20:57:19.722Z</time>
      </trkpt>
      <trkpt lat="43.03999" lon="-0.60771">
        <ele>519.02</ele>
        <time>2024-05-30T20:57:23.887Z</time>
      </trkpt>
      <trkpt lat="43.03987" lon="-0.60779">
        <ele>517.63</ele>
        <time>2024-05-30T20:57:28.055Z</time>
      </trkpt>
      <trkpt lat="43.03949" lon="-0.60815">
        <ele>516.16</ele>
        <time>2024-05-30T20:57:32.232Z</time>
      </trkpt>
      <trkpt lat="43.03943" lon="-0.60825">
        <ele>514.67</ele>
        <time>2024-05-30T20:57:36.411Z</time>
      </trkpt>
      <trkpt lat="43.0394" lon="-0.60839">
        <ele>513.2</ele>
        <time>2024-05-30T20:57:40.592Z</time>
      </trkpt>
      <trkpt lat="43.0394" lon="-0.60855">
        <ele>511.6</ele>
        <time>2024-05-30T20:57:44.776Z</time>
      </trkpt>
      <trkpt lat="43.03944" lon="-0.60878">
        <ele>509.94</ele>
        <time>2024-05-30T20:57:48.963Z</time>
      </trkpt>
      <trkpt lat="43.03975" lon="-0.60957">
        <ele>508.55</ele>
        <time>2024-05-30T20:57:53.163Z</time>
      </trkpt>
      <trkpt lat="43.03992" lon="-0.61025">
        <ele>506.74</ele>
        <time>2024-05-30T20:57:57.374Z</time>
      </trkpt>
      <trkpt lat="43.03992" lon="-0.61034">
        <ele>505.13</ele>
        <time>2024-05-30T20:58:01.586Z</time>
      </trkpt>
      <trkpt lat="43.0399" lon="-0.6104">
        <ele>503.49</ele>
        <time>2024-05-30T20:58:05.799Z</time>
      </trkpt>
      <trkpt lat="43.03984" lon="-0.61044">
        <ele>501.77</ele>
        <time>2024-05-30T20:58:10.013Z</time>
      </trkpt>
      <trkpt lat="43.03966" lon="-0.61042">
        <ele>499.9</ele>
        <time>2024-05-30T20:58:14.231Z</time>
      </trkpt>
      <trkpt lat="43.03957" lon="-0.61037">
        <ele>498.07</ele>
        <time>2024-05-30T20:58:18.451Z</time>
      </trkpt>
      <trkpt lat="43.03948" lon="-0.61029">
        <ele>496.3</ele>
        <time>2024-05-30T20:58:22.673Z</time>
      </trkpt>
      <trkpt lat="43.03941" lon="-0.61019">
        <ele>494.52</ele>
        <time>2024-05-30T20:58:26.897Z</time>
      </trkpt>
      <trkpt lat="43.03933" lon="-0.60998">
        <ele>492.57</ele>
        <time>2024-05-30T20:58:31.125Z</time>
      </trkpt>
      <trkpt lat="43.03924" lon="-0.60985">
        <ele>490.68</ele>
        <time>2024-05-30T20:58:35.355Z</time>
      </trkpt>
      <trkpt lat="43.03904" lon="-0.60966">
        <ele>488.61</ele>
        <time>2024-05-30T20:58:39.590Z</time>
      </trkpt>
      <trkpt lat="43.03884" lon="-0.60956">
        <ele>486.48</ele>
        <time>2024-05-30T20:58:43.829Z</time>
      </trkpt>
      <trkpt lat="43.03853" lon="-0.60948">
        <ele>484.14</ele>
        <time>2024-05-30T20:58:48.075Z</time>
      </trkpt>
      <trkpt lat="43.03846" lon="-0.60947">
        <ele>482.04</ele>
        <time>2024-05-30T20:58:52.322Z</time>
      </trkpt>
      <trkpt lat="43.0384" lon="-0.60953">
        <ele>479.93</ele>
        <time>2024-05-30T20:58:56.571Z</time>
      </trkpt>
      <trkpt lat="43.03836" lon="-0.60965">
        <ele>477.87</ele>
        <time>2024-05-30T20:59:00.822Z</time>
      </trkpt>
      <trkpt lat="43.03826" lon="-0.61043">
        <ele>475.94</ele>
        <time>2024-05-30T20:59:05.084Z</time>
      </trkpt>
      <trkpt lat="43.03822" lon="-0.61062">
        <ele>473.87</ele>
        <time>2024-05-30T20:59:09.349Z</time>
      </trkpt>
      <trkpt lat="43.03809" lon="-0.61098">
        <ele>471.64</ele>
        <time>2024-05-30T20:59:13.620Z</time>
      </trkpt>
      <trkpt lat="43.03803" lon="-0.6111">
        <ele>469.43</ele>
        <time>2024-05-30T20:59:17.893Z</time>
      </trkpt>
      <trkpt lat="43.03791" lon="-0.61121">
        <ele>467.02</ele>
        <time>2024-05-30T20:59:22.169Z</time>
      </trkpt>
      <trkpt lat="43.03783" lon="-0.61134">
        <ele>464.64</ele>
        <time>2024-05-30T20:59:26.447Z</time>
      </trkpt>
      <trkpt lat="43.03779" lon="-0.61149">
        <ele>462.37</ele>
        <time>2024-05-30T20:59:30.728Z</time>
      </trkpt>
      <trkpt lat="43.03763" lon="-0.61233">
        <ele>460.23</ele>
        <time>2024-05-30T20:59:35.022Z</time>
      </trkpt>
      <trkpt lat="43.03755" lon="-0.61259">
        <ele>457.83</ele>
        <time>2024-05-30T20:59:39.320Z</time>
      </trkpt>
      <trkpt lat="43.03743" lon="-0.61289">
        <ele>455.4</ele>
        <time>2024-05-30T20:59:43.623Z</time>
      </trkpt>
      <trkpt lat="43.03738" lon="-0.61305">
        <ele>453.12</ele>
        <time>2024-05-30T20:59:47.928Z</time>
      </trkpt>
      <trkpt lat="43.03726" lon="-0.61371">
        <ele>450.75</ele>
        <time>2024-05-30T20:59:52.243Z</time>
      </trkpt>
      <trkpt lat="43.03704" lon="-0.61457">
        <ele>448.12</ele>
        <time>2024-05-30T20:59:56.572Z</time>
      </trkpt>
      <trkpt lat="43.03685" lon="-0.61509">
        <ele>445.84</ele>
        <time>2024-05-30T21:00:00.909Z</time>
      </trkpt>
      <trkpt lat="43.0367" lon="-0.6156">
        <ele>443.87</ele>
        <time>2024-05-30T21:00:05.254Z</time>
      </trkpt>
      <trkpt lat="43.03662" lon="-0.61578">
        <ele>441.69</ele>
        <time>2024-05-30T21:00:09.602Z</time>
      </trkpt>
      <trkpt lat="43.03654" lon="-0.61591">
        <ele>439.5</ele>
        <time>2024-05-30T21:00:13.953Z</time>
      </trkpt>
      <trkpt lat="43.03645" lon="-0.616">
        <ele>437.39</ele>
        <time>2024-05-30T21:00:18.306Z</time>
      </trkpt>
      <trkpt lat="43.03639" lon="-0.61601">
        <ele>435.27</ele>
        <time>2024-05-30T21:00:22.660Z</time>
      </trkpt>
      <trkpt lat="43.03634" lon="-0.61598">
        <ele>433.2</ele>
        <time>2024-05-30T21:00:27.015Z</time>
      </trkpt>
      <trkpt lat="43.03633" lon="-0.61597">
        <ele>431.16</ele>
        <time>2024-05-30T21:00:31.371Z</time>
      </trkpt>
      <trkpt lat="43.03628" lon="-0.61576">
        <ele>429.08</ele>
        <time>2024-05-30T21:00:35.730Z</time>
      </trkpt>
      <trkpt lat="43.03628" lon="-0.61514">
        <ele>426.86</ele>
        <time>2024-05-30T21:00:40.098Z</time>
      </trkpt>
      <trkpt lat="43.03632" lon="-0.61467">
        <ele>424.62</ele>
        <time>2024-05-30T21:00:44.473Z</time>
      </trkpt>
      <trkpt lat="43.03638" lon="-0.61444">
        <ele>422.6</ele>
        <time>2024-05-30T21:00:48.851Z</time>
      </trkpt>
      <trkpt lat="43.03646" lon="-0.61425">
        <ele>420.52</ele>
        <time>2024-05-30T21:00:53.233Z</time>
      </trkpt>
      <trkpt lat="43.03656" lon="-0.61409">
        <ele>418.51</ele>
        <time>2024-05-30T21:00:57.618Z</time>
      </trkpt>
      <trkpt lat="43.0367" lon="-0.61391">
        <ele>416.68</ele>
        <time>2024-05-30T21:01:02.007Z</time>
      </trkpt>
      <trkpt lat="43.03674" lon="-0.61378">
        <ele>414.78</ele>
        <time>2024-05-30T21:01:06.398Z</time>
      </trkpt>
      <trkpt lat="43.03676" lon="-0.61361">
        <ele>412.88</ele>
        <time>2024-05-30T21:01:10.791Z</time>
      </trkpt>
      <trkpt lat="43.03676" lon="-0.61345">
        <ele>410.97</ele>
        <time>2024-05-30T21:01:15.186Z</time>
      </trkpt>
      <trkpt lat="43.03673" lon="-0.61319">
        <ele>409.05</ele>
        <time>2024-05-30T21:01:19.585Z</time>
      </trkpt>
      <trkpt lat="43.03656" lon="-0.61288">
        <ele>407.01</ele>
        <time>2024-05-30T21:01:23.990Z</time>
      </trkpt>
      <trkpt lat="43.03655" lon="-0.61277">
        <ele>405.11</ele>
        <time>2024-05-30T21:01:28.397Z</time>
      </trkpt>
      <trkpt lat="43.03656" lon="-0.61263">
        <ele>403.22</ele>
        <time>2024-05-30T21:01:32.806Z</time>
      </trkpt>
      <trkpt lat="43.03664" lon="-0.61232">
        <ele>401.31</ele>
        <time>2024-05-30T21:01:37.219Z</time>
      </trkpt>
      <trkpt lat="43.03666" lon="-0.61214">
        <ele>399.5</ele>
        <time>2024-05-30T21:01:41.635Z</time>
      </trkpt>
      <trkpt lat="43.03665" lon="-0.61154">
        <ele>397.67</ele>
        <time>2024-05-30T21:01:46.060Z</time>
      </trkpt>
      <trkpt lat="43.03662" lon="-0.61115">
        <ele>395.69</ele>
        <time>2024-05-30T21:01:50.491Z</time>
      </trkpt>
      <trkpt lat="43.03652" lon="-0.61076">
        <ele>393.92</ele>
        <time>2024-05-30T21:01:54.928Z</time>
      </trkpt>
      <trkpt lat="43.03643" lon="-0.6103">
        <ele>392.4</ele>
        <time>2024-05-30T21:01:59.372Z</time>
      </trkpt>
      <trkpt lat="43.03644" lon="-0.6099">
        <ele>390.72</ele>
        <time>2024-05-30T21:02:03.822Z</time>
      </trkpt>
      <trkpt lat="43.03655" lon="-0.60952">
        <ele>389.02</ele>
        <time>2024-05-30T21:02:08.278Z</time>
      </trkpt>
      <trkpt lat="43.03664" lon="-0.60902">
        <ele>387.62</ele>
        <time>2024-05-30T21:02:12.741Z</time>
      </trkpt>
      <trkpt lat="43.03664" lon="-0.60882">
        <ele>386.28</ele>
        <time>2024-05-30T21:02:17.207Z</time>
      </trkpt>
      <trkpt lat="43.03648" lon="-0.60728">
        <ele>384.69</ele>
        <time>2024-05-30T21:02:21.696Z</time>
      </trkpt>
      <trkpt lat="43.03644" lon="-0.60716">
        <ele>383.42</ele>
        <time>2024-05-30T21:02:26.187Z</time>
      </trkpt>
      <trkpt lat="43.03639" lon="-0.60708">
        <ele>382.25</ele>
        <time>2024-05-30T21:02:30.679Z</time>
      </trkpt>
      <trkpt lat="43.03629" lon="-0.60701">
        <ele>381.12</ele>
        <time>2024-05-30T21:02:35.174Z</time>
      </trkpt>
      <trkpt lat="43.03619" lon="-0.607">
        <ele>380.16</ele>
        <time>2024-05-30T21:02:39.671Z</time>
      </trkpt>
      <trkpt lat="43.03611" lon="-0.60702">
        <ele>379.32</ele>
        <time>2024-05-30T21:02:44.169Z</time>
      </trkpt>
      <trkpt lat="43.03591" lon="-0.60713">
        <ele>378.74</ele>
        <time>2024-05-30T21:02:48.672Z</time>
      </trkpt>
      <trkpt lat="43.03585" lon="-0.60713">
        <ele>378.06</ele>
        <time>2024-05-30T21:02:53.176Z</time>
      </trkpt>
      <trkpt lat="43.03578" lon="-0.60707">
        <ele>377.39</ele>
        <time>2024-05-30T21:02:57.681Z</time>
      </trkpt>
      <trkpt lat="43.03576" lon="-0.607">
        <ele>376.75</ele>
        <time>2024-05-30T21:03:02.188Z</time>
      </trkpt>
      <trkpt lat="43.03576" lon="-0.60691">
        <ele>376.18</ele>
        <time>2024-05-30T21:03:06.696Z</time>
      </trkpt>
      <trkpt lat="43.03578" lon="-0.60686">
        <ele>375.74</ele>
        <time>2024-05-30T21:03:11.205Z</time>
      </trkpt>
      <trkpt lat="43.03583" lon="-0.60679">
        <ele>375.34</ele>
        <time>2024-05-30T21:03:15.715Z</time>
      </trkpt>
      <trkpt lat="43.03588" lon="-0.60678">
        <ele>375.11</ele>
        <time>2024-05-30T21:03:20.226Z</time>
      </trkpt>
      <trkpt lat="43.03642" lon="-0.60678">
        <ele>375.02</ele>
        <time>2024-05-30T21:03:24.748Z</time>
      </trkpt>
      <trkpt lat="43.03649" lon="-0.60676">
        <ele>375.02</ele>
        <time>2024-05-30T21:03:29.271Z</time>
      </trkpt>
      <trkpt lat="43.03652" lon="-0.60673">
        <ele>375.1</ele>
        <time>2024-05-30T21:03:33.795Z</time>
      </trkpt>
      <trkpt lat="43.03657" lon="-0.60661">
        <ele>375.18</ele>
        <time>2024-05-30T21:03:38.321Z</time>
      </trkpt>
      <trkpt lat="43.03655" lon="-0.60637">
        <ele>375.16</ele>
        <time>2024-05-30T21:03:42.851Z</time>
      </trkpt>
      <trkpt lat="43.03592" lon="-0.6064">
        <ele>375.48</ele>
        <time>2024-05-30T21:03:47.393Z</time>
      </trkpt>
      <trkpt lat="43.03515" lon="-0.60634">
        <ele>376.03</ele>
        <time>2024-05-30T21:03:51.951Z</time>
      </trkpt>
      <trkpt lat="43.03489" lon="-0.6063">
        <ele>376.66</ele>
        <time>2024-05-30T21:03:56.514Z</time>
      </trkpt>
      <trkpt lat="43.03462" lon="-0.6062">
        <ele>377.13</ele>
        <time>2024-05-30T21:04:01.083Z</time>
      </trkpt>
      <trkpt lat="43.03434" lon="-0.60603">
        <ele>377.7</ele>
        <time>2024-05-30T21:04:05.658Z</time>
      </trkpt>
      <trkpt lat="43.03356" lon="-0.60569">
        <ele>378.49</ele>
        <time>2024-05-30T21:04:10.249Z</time>
      </trkpt>
      <trkpt lat="43.03046" lon="-0.60412">
        <ele>379.89</ele>
        <time>2024-05-30T21:04:14.906Z</time>
      </trkpt>
      <trkpt lat="43.03002" lon="-0.60395">
        <ele>380.81</ele>
        <time>2024-05-30T21:04:19.572Z</time>
      </trkpt>
      <trkpt lat="43.02835" lon="-0.60301">
        <ele>381.94</ele>
        <time>2024-05-30T21:04:24.274Z</time>
      </trkpt>
      <trkpt lat="43.02796" lon="-0.60284">
        <ele>382.8</ele>
        <time>2024-05-30T21:04:28.985Z</time>
      </trkpt>
      <trkpt lat="43.02761" lon="-0.60274">
        <ele>383.81</ele>
        <time>2024-05-30T21:04:33.703Z</time>
      </trkpt>
      <trkpt lat="43.02624" lon="-0.60255">
        <ele>384.33</ele>
        <time>2024-05-30T21:04:38.448Z</time>
      </trkpt>
      <trkpt lat="43.02583" lon="-0.60242">
        <ele>385.49</ele>
        <time>2024-05-30T21:04:43.202Z</time>
      </trkpt>
      <trkpt lat="43.02554" lon="-0.60229">
        <ele>386.15</ele>
        <time>2024-05-30T21:04:47.962Z</time>
      </trkpt>
      <trkpt lat="43.02463" lon="-0.60168">
        <ele>387.62</ele>
        <time>2024-05-30T21:04:52.742Z</time>
      </trkpt>
      <trkpt lat="43.02422" lon="-0.60142">
        <ele>388.61</ele>
        <time>2024-05-30T21:04:57.531Z</time>
      </trkpt>
      <trkpt lat="43.02402" lon="-0.60134">
        <ele>389.32</ele>
        <time>2024-05-30T21:05:02.324Z</time>
      </trkpt>
      <trkpt lat="43.02382" lon="-0.60128">
        <ele>390.18</ele>
        <time>2024-05-30T21:05:07.121Z</time>
      </trkpt>
      <trkpt lat="43.02353" lon="-0.60125">
        <ele>390.89</ele>
        <time>2024-05-30T21:05:11.924Z</time>
      </trkpt>
      <trkpt lat="43.02302" lon="-0.60127">
        <ele>391.26</ele>
        <time>2024-05-30T21:05:16.737Z</time>
      </trkpt>
      <trkpt lat="43.02269" lon="-0.60134">
        <ele>391.63</ele>
        <time>2024-05-30T21:05:21.557Z</time>
      </trkpt>
      <trkpt lat="43.02239" lon="-0.60148">
        <ele>392.14</ele>
        <time>2024-05-30T21:05:26.383Z</time>
      </trkpt>
      <trkpt lat="43.02189" lon="-0.60186">
        <ele>392.39</ele>
        <time>2024-05-30T21:05:31.221Z</time>
      </trkpt>
      <trkpt lat="43.02006" lon="-0.6026">
        <ele>392.85</ele>
        <time>2024-05-30T21:05:36.097Z</time>
      </trkpt>
      <trkpt lat="43.01982" lon="-0.60267">
        <ele>393.41</ele>
        <time>2024-05-30T21:05:40.978Z</time>
      </trkpt>
      <trkpt lat="43.0195" lon="-0.60272">
        <ele>393.97</ele>
        <time>2024-05-30T21:05:45.865Z</time>
      </trkpt>
      <trkpt lat="43.01869" lon="-0.60271">
        <ele>394.49</ele>
        <time>2024-05-30T21:05:50.769Z</time>
      </trkpt>
      <trkpt lat="43.01834" lon="-0.60276">
        <ele>394.79</ele>
        <time>2024-05-30T21:05:55.680Z</time>
      </trkpt>
      <trkpt lat="43.01797" lon="-0.60289">
        <ele>394.95</ele>
        <time>2024-05-30T21:06:00.598Z</time>
      </trkpt>
      <trkpt lat="43.01779" lon="-0.60297">
        <ele>395.15</ele>
        <time>2024-05-30T21:06:05.520Z</time>
      </trkpt>
      <trkpt lat="43.01741" lon="-0.60323">
        <ele>395.32</ele>
        <time>2024-05-30T21:06:10.451Z</time>
      </trkpt>
      <trkpt lat="43.01711" lon="-0.60352">
        <ele>395.32</ele>
        <time>2024-05-30T21:06:15.389Z</time>
      </trkpt>
      <trkpt lat="43.01697" lon="-0.60368">
        <ele>395.37</ele>
        <time>2024-05-30T21:06:20.331Z</time>
      </trkpt>
      <trkpt lat="43.01674" lon="-0.60401">
        <ele>395.45</ele>
        <time>2024-05-30T21:06:25.279Z</time>
      </trkpt>
      <trkpt lat="43.01632" lon="-0.60472">
        <ele>395.48</ele>
        <time>2024-05-30T21:06:30.241Z</time>
      </trkpt>
      <trkpt lat="43.0161" lon="-0.60504">
        <ele>395.58</ele>
        <time>2024-05-30T21:06:35.209Z</time>
      </trkpt>
      <trkpt lat="43.01599" lon="-0.60516">
        <ele>395.76</ele>
        <time>2024-05-30T21:06:40.180Z</time>
      </trkpt>
      <trkpt lat="43.01576" lon="-0.60534">
        <ele>395.92</ele>
        <time>2024-05-30T21:06:45.156Z</time>
      </trkpt>
      <trkpt lat="43.01549" lon="-0.60546">
        <ele>396.03</ele>
        <time>2024-05-30T21:06:50.138Z</time>
      </trkpt>
      <trkpt lat="43.01536" lon="-0.60549">
        <ele>396.25</ele>
        <time>2024-05-30T21:06:55.123Z</time>
      </trkpt>
      <trkpt lat="43.01507" lon="-0.60549">
        <ele>396.55</ele>
        <time>2024-05-30T21:07:00.113Z</time>
      </trkpt>
      <trkpt lat="43.01481" lon="-0.60542">
        <ele>396.96</ele>
        <time>2024-05-30T21:07:05.109Z</time>
      </trkpt>
      <trkpt lat="43.01464" lon="-0.60534">
        <ele>397.35</ele>
        <time>2024-05-30T21:07:10.108Z</time>
      </trkpt>
      <trkpt lat="43.01447" lon="-0.60522">
        <ele>397.82</ele>
        <time>2024-05-30T21:07:15.111Z</time>
      </trkpt>
      <trkpt lat="43.01203" lon="-0.60306">
        <ele>398.76</ele>
        <time>2024-05-30T21:07:20.172Z</time>
      </trkpt>
      <trkpt lat="43.0118" lon="-0.60293">
        <ele>399.1</ele>
        <time>2024-05-30T21:07:25.238Z</time>
      </trkpt>
      <trkpt lat="43.01157" lon="-0.60288">
        <ele>399.4</ele>
        <time>2024-05-30T21:07:30.309Z</time>
      </trkpt>
      <trkpt lat="43.01146" lon="-0.60287">
        <ele>399.86</ele>
        <time>2024-05-30T21:07:35.382Z</time>
      </trkpt>
      <trkpt lat="43.01123" lon="-0.60292">
        <ele>400.35</ele>
        <time>2024-05-30T21:07:40.460Z</time>
      </trkpt>
      <trkpt lat="43.01097" lon="-0.60292">
        <ele>400.94</ele>
        <time>2024-05-30T21:07:45.543Z</time>
      </trkpt>
      <trkpt lat="43.01088" lon="-0.60284">
        <ele>401.54</ele>
        <time>2024-05-30T21:07:50.628Z</time>
      </trkpt>
      <trkpt lat="43.01078" lon="-0.60283">
        <ele>402.12</ele>
        <time>2024-05-30T21:07:55.715Z</time>
      </trkpt>
      <trkpt lat="43.01059" lon="-0.60265">
        <ele>402.75</ele>
        <time>2024-05-30T21:08:00.807Z</time>
      </trkpt>
      <trkpt lat="43.01049" lon="-0.6026">
        <ele>403.38</ele>
        <time>2024-05-30T21:08:05.901Z</time>
      </trkpt>
      <trkpt lat="43.01039" lon="-0.60253">
        <ele>404.01</ele>
        <time>2024-05-30T21:08:10.997Z</time>
      </trkpt>
      <trkpt lat="43.01031" lon="-0.60251">
        <ele>404.66</ele>
        <time>2024-05-30T21:08:16.095Z</time>
      </trkpt>
      <trkpt lat="43.00989" lon="-0.60231">
        <ele>405.46</ele>
        <time>2024-05-30T21:08:21.202Z</time>
      </trkpt>
      <trkpt lat="43.00982" lon="-0.6023">
        <ele>406.1</ele>
        <time>2024-05-30T21:08:26.310Z</time>
      </trkpt>
      <trkpt lat="43.00978" lon="-0.60229">
        <ele>406.73</ele>
        <time>2024-05-30T21:08:31.419Z</time>
      </trkpt>
      <trkpt lat="43.00953" lon="-0.60235">
        <ele>407.37</ele>
        <time>2024-05-30T21:08:36.533Z</time>
      </trkpt>
      <trkpt lat="43.00945" lon="-0.60235">
        <ele>407.95</ele>
        <time>2024-05-30T21:08:41.649Z</time>
      </trkpt>
      <trkpt lat="43.00841" lon="-0.60197">
        <ele>409.12</ele>
        <time>2024-05-30T21:08:46.786Z</time>
      </trkpt>
      <trkpt lat="43.00752" lon="-0.6017">
        <ele>410.02</ele>
        <time>2024-05-30T21:08:51.941Z</time>
      </trkpt>
      <trkpt lat="43.00528" lon="-0.60113">
        <ele>410.75</ele>
        <time>2024-05-30T21:08:57.142Z</time>
      </trkpt>
      <trkpt lat="43.00494" lon="-0.6011">
        <ele>411.05</ele>
        <time>2024-05-30T21:09:02.350Z</time>
      </trkpt>
      <trkpt lat="43.00056" lon="-0.60111">
        <ele>410.73</ele>
        <time>2024-05-30T21:09:07.645Z</time>
      </trkpt>
      <trkpt lat="43.00048" lon="-0.60107">
        <ele>411.09</ele>
        <time>2024-05-30T21:09:12.942Z</time>
      </trkpt>
      <trkpt lat="43.00032" lon="-0.60107">
        <ele>411.4</ele>
        <time>2024-05-30T21:09:18.242Z</time>
      </trkpt>
      <trkpt lat="43.00022" lon="-0.6011">
        <ele>411.67</ele>
        <time>2024-05-30T21:09:23.544Z</time>
      </trkpt>
      <trkpt lat="42.99908" lon="-0.60111">
        <ele>411.82</ele>
        <time>2024-05-30T21:09:28.869Z</time>
      </trkpt>
      <trkpt lat="42.99833" lon="-0.60106">
        <ele>412.14</ele>
        <time>2024-05-30T21:09:34.209Z</time>
      </trkpt>
      <trkpt lat="42.99831" lon="-0.60114">
        <ele>412.36</ele>
        <time>2024-05-30T21:09:39.550Z</time>
      </trkpt>
      <trkpt lat="42.9982" lon="-0.60172">
        <ele>412.56</ele>
        <time>2024-05-30T21:09:44.900Z</time>
      </trkpt>
      <trkpt lat="42.99822" lon="-0.6019">
        <ele>412.77</ele>
        <time>2024-05-30T21:09:50.253Z</time>
      </trkpt>
      <trkpt lat="42.99825" lon="-0.60196">
        <ele>413</ele>
        <time>2024-05-30T21:09:55.607Z</time>
      </trkpt>
      <trkpt lat="42.99854" lon="-0.60255">
        <ele>413.14</ele>
        <time>2024-05-30T21:10:00.971Z</time>
      </trkpt>
      <trkpt lat="42.99909" lon="-0.60336">
        <ele>413.17</ele>
        <time>2024-05-30T21:10:06.351Z</time>
      </trkpt>
      <trkpt lat="42.99926" lon="-0.60369">
        <ele>413.44</ele>
        <time>2024-05-30T21:10:11.737Z</time>
      </trkpt>
      <trkpt lat="42.99941" lon="-0.60418">
        <ele>413.82</ele>
        <time>2024-05-30T21:10:17.131Z</time>
      </trkpt>
      <trkpt lat="42.99958" lon="-0.60497">
        <ele>414.32</ele>
        <time>2024-05-30T21:10:22.537Z</time>
      </trkpt>
      <trkpt lat="42.99962" lon="-0.60506">
        <ele>414.8</ele>
        <time>2024-05-30T21:10:27.945Z</time>
      </trkpt>
      <trkpt lat="42.99943" lon="-0.60532">
        <ele>415.31</ele>
        <time>2024-05-30T21:10:33.358Z</time>
      </trkpt>
      <trkpt lat="42.99919" lon="-0.60576">
        <ele>415.88</ele>
        <time>2024-05-30T21:10:38.779Z</time>
      </trkpt>
      <trkpt lat="42.99904" lon="-0.6062">
        <ele>416.56</ele>
        <time>2024-05-30T21:10:44.207Z</time>
      </trkpt>
      <trkpt lat="42.9989" lon="-0.60676">
        <ele>417.28</ele>
        <time>2024-05-30T21:10:49.644Z</time>
      </trkpt>
      <trkpt lat="42.9988" lon="-0.60691">
        <ele>418.01</ele>
        <time>2024-05-30T21:10:55.084Z</time>
      </trkpt>
      <trkpt lat="42.9985" lon="-0.60715">
        <ele>418.71</ele>
        <time>2024-05-30T21:11:00.531Z</time>
      </trkpt>
      <trkpt lat="42.99837" lon="-0.6073">
        <ele>419.56</ele>
        <time>2024-05-30T21:11:05.981Z</time>
      </trkpt>
      <trkpt lat="42.99624" lon="-0.61165">
        <ele>421.41</ele>
        <time>2024-05-30T21:11:11.508Z</time>
      </trkpt>
      <trkpt lat="42.99593" lon="-0.61241">
        <ele>422.59</ele>
        <time>2024-05-30T21:11:17.048Z</time>
      </trkpt>
      <trkpt lat="42.99532" lon="-0.61419">
        <ele>423.66</ele>
        <time>2024-05-30T21:11:22.617Z</time>
      </trkpt>
      <trkpt lat="42.995" lon="-0.61527">
        <ele>424.8</ele>
        <time>2024-05-30T21:11:28.203Z</time>
      </trkpt>
      <trkpt lat="42.99496" lon="-0.61548">
        <ele>425.93</ele>
        <time>2024-05-30T21:11:33.792Z</time>
      </trkpt>
      <trkpt lat="42.99519" lon="-0.6161">
        <ele>427.15</ele>
        <time>2024-05-30T21:11:39.391Z</time>
      </trkpt>
      <trkpt lat="42.99524" lon="-0.6164">
        <ele>428.34</ele>
        <time>2024-05-30T21:11:44.995Z</time>
      </trkpt>
      <trkpt lat="42.99521" lon="-0.61644">
        <ele>429.55</ele>
        <time>2024-05-30T21:11:50.600Z</time>
      </trkpt>
      <trkpt lat="42.99508" lon="-0.61652">
        <ele>430.77</ele>
        <time>2024-05-30T21:11:56.207Z</time>
      </trkpt>
      <trkpt lat="42.99503" lon="-0.61666">
        <ele>432.04</ele>
        <time>2024-05-30T21:12:01.817Z</time>
      </trkpt>
      <trkpt lat="42.99507" lon="-0.61676">
        <ele>433.39</ele>
        <time>2024-05-30T21:12:07.428Z</time>
      </trkpt>
      <trkpt lat="42.99517" lon="-0.61701">
        <ele>434.81</ele>
        <time>2024-05-30T21:12:13.043Z</time>
      </trkpt>
      <trkpt lat="42.99508" lon="-0.61708">
        <ele>436.26</ele>
        <time>2024-05-30T21:12:18.661Z</time>
      </trkpt>
      <trkpt lat="42.9953" lon="-0.61773">
        <ele>437.98</ele>
        <time>2024-05-30T21:12:24.289Z</time>
      </trkpt>
      <trkpt lat="42.99543" lon="-0.61803">
        <ele>439.71</ele>
        <time>2024-05-30T21:12:29.922Z</time>
      </trkpt>
      <trkpt lat="42.99551" lon="-0.61816">
        <ele>441.43</ele>
        <time>2024-05-30T21:12:35.558Z</time>
      </trkpt>
      <trkpt lat="42.99569" lon="-0.6185">
        <ele>443.25</ele>
        <time>2024-05-30T21:12:41.200Z</time>
      </trkpt>
      <trkpt lat="42.99598" lon="-0.61883">
        <ele>445.19</ele>
        <time>2024-05-30T21:12:46.849Z</time>
      </trkpt>
      <trkpt lat="42.99599" lon="-0.61892">
        <ele>447.08</ele>
        <time>2024-05-30T21:12:52.500Z</time>
      </trkpt>
      <trkpt lat="42.996" lon="-0.61945">
        <ele>449.08</ele>
        <time>2024-05-30T21:12:58.159Z</time>
      </trkpt>
      <trkpt lat="42.99596" lon="-0.61954">
        <ele>451.11</ele>
        <time>2024-05-30T21:13:03.819Z</time>
      </trkpt>
      <trkpt lat="42.99586" lon="-0.61994">
        <ele>453.26</ele>
        <time>2024-05-30T21:13:09.485Z</time>
      </trkpt>
      <trkpt lat="42.99582" lon="-0.62019">
        <ele>455.51</ele>
        <time>2024-05-30T21:13:15.155Z</time>
      </trkpt>
      <trkpt lat="42.99587" lon="-0.62052">
        <ele>457.99</ele>
        <time>2024-05-30T21:13:20.830Z</time>
      </trkpt>
      <trkpt lat="42.99584" lon="-0.62078">
        <ele>460.52</ele>
        <time>2024-05-30T21:13:26.509Z</time>
      </trkpt>
      <trkpt lat="42.99575" lon="-0.6209">
        <ele>463.1</ele>
        <time>2024-05-30T21:13:32.190Z</time>
      </trkpt>
      <trkpt lat="42.99576" lon="-0.62104">
        <ele>465.85</ele>
        <time>2024-05-30T21:13:37.873Z</time>
      </trkpt>
      <trkpt lat="42.99584" lon="-0.62128">
        <ele>468.69</ele>
        <time>2024-05-30T21:13:43.560Z</time>
      </trkpt>
      <trkpt lat="42.99621" lon="-0.62189">
        <ele>471.63</ele>
        <time>2024-05-30T21:13:49.259Z</time>
      </trkpt>
      <trkpt lat="42.99634" lon="-0.62223">
        <ele>474.8</ele>
        <time>2024-05-30T21:13:54.964Z</time>
      </trkpt>
      <trkpt lat="42.99645" lon="-0.62243">
        <ele>478.07</ele>
        <time>2024-05-30T21:14:00.672Z</time>
      </trkpt>
      <trkpt lat="42.99658" lon="-0.6226">
        <ele>481.34</ele>
        <time>2024-05-30T21:14:06.384Z</time>
      </trkpt>
      <trkpt lat="42.9967" lon="-0.62269">
        <ele>484.69</ele>
        <time>2024-05-30T21:14:12.099Z</time>
      </trkpt>
      <trkpt lat="42.99705" lon="-0.62284">
        <ele>488.12</ele>
        <time>2024-05-30T21:14:17.821Z</time>
      </trkpt>
      <trkpt lat="42.99729" lon="-0.62297">
        <ele>491.77</ele>
        <time>2024-05-30T21:14:23.548Z</time>
      </trkpt>
      <trkpt lat="42.99823" lon="-0.62395">
        <ele>495.61</ele>
        <time>2024-05-30T21:14:29.299Z</time>
      </trkpt>
      <trkpt lat="42.99848" lon="-0.62437">
        <ele>499.34</ele>
        <time>2024-05-30T21:14:35.058Z</time>
      </trkpt>
      <trkpt lat="42.99867" lon="-0.62495">
        <ele>503.42</ele>
        <time>2024-05-30T21:14:40.826Z</time>
      </trkpt>
      <trkpt lat="42.99874" lon="-0.62526">
        <ele>507.27</ele>
        <time>2024-05-30T21:14:46.599Z</time>
      </trkpt>
      <trkpt lat="42.99899" lon="-0.62558">
        <ele>511.11</ele>
        <time>2024-05-30T21:14:52.379Z</time>
      </trkpt>
      <trkpt lat="42.99917" lon="-0.62634">
        <ele>515.48</ele>
        <time>2024-05-30T21:14:58.170Z</time>
      </trkpt>
      <trkpt lat="42.9992" lon="-0.62687">
        <ele>519.68</ele>
        <time>2024-05-30T21:15:03.969Z</time>
      </trkpt>
      <trkpt lat="42.9994" lon="-0.62721">
        <ele>523.72</ele>
        <time>2024-05-30T21:15:09.774Z</time>
      </trkpt>
      <trkpt lat="42.99967" lon="-0.62759">
        <ele>527.91</ele>
        <time>2024-05-30T21:15:15.587Z</time>
      </trkpt>
      <trkpt lat="42.99979" lon="-0.62819">
        <ele>532.18</ele>
        <time>2024-05-30T21:15:21.409Z</time>
      </trkpt>
      <trkpt lat="42.9998" lon="-0.62834">
        <ele>536.07</ele>
        <time>2024-05-30T21:15:27.234Z</time>
      </trkpt>
      <trkpt lat="42.99976" lon="-0.62845">
        <ele>540.11</ele>
        <time>2024-05-30T21:15:33.060Z</time>
      </trkpt>
      <trkpt lat="42.99962" lon="-0.62866">
        <ele>544.44</ele>
        <time>2024-05-30T21:15:38.891Z</time>
      </trkpt>
      <trkpt lat="42.9996" lon="-0.62891">
        <ele>548.47</ele>
        <time>2024-05-30T21:15:44.725Z</time>
      </trkpt>
      <trkpt lat="42.99976" lon="-0.63012">
        <ele>552.18</ele>
        <time>2024-05-30T21:15:50.577Z</time>
      </trkpt>
      <trkpt lat="42.99996" lon="-0.63064">
        <ele>555.8</ele>
        <time>2024-05-30T21:15:56.438Z</time>
      </trkpt>
      <trkpt lat="43.00002" lon="-0.63108">
        <ele>559.59</ele>
        <time>2024-05-30T21:16:02.305Z</time>
      </trkpt>
      <trkpt lat="42.99995" lon="-0.63157">
        <ele>563.45</ele>
        <time>2024-05-30T21:16:08.180Z</time>
      </trkpt>
      <trkpt lat="43" lon="-0.63234">
        <ele>567.06</ele>
        <time>2024-05-30T21:16:14.066Z</time>
      </trkpt>
      <trkpt lat="43.00028" lon="-0.63367">
        <ele>570.34</ele>
        <time>2024-05-30T21:16:19.972Z</time>
      </trkpt>
      <trkpt lat="43.00045" lon="-0.63413">
        <ele>573.73</ele>
        <time>2024-05-30T21:16:25.886Z</time>
      </trkpt>
      <trkpt lat="43.00077" lon="-0.63454">
        <ele>577.03</ele>
        <time>2024-05-30T21:16:31.809Z</time>
      </trkpt>
      <trkpt lat="43.00133" lon="-0.63508">
        <ele>580.34</ele>
        <time>2024-05-30T21:16:37.746Z</time>
      </trkpt>
      <trkpt lat="43.00146" lon="-0.63529">
        <ele>583.63</ele>
        <time>2024-05-30T21:16:43.687Z</time>
      </trkpt>
      <trkpt lat="43.00152" lon="-0.6356">
        <ele>586.97</ele>
        <time>2024-05-30T21:16:49.632Z</time>
      </trkpt>
      <trkpt lat="43.0015" lon="-0.63572">
        <ele>590.04</ele>
        <time>2024-05-30T21:16:55.579Z</time>
      </trkpt>
      <trkpt lat="43.00152" lon="-0.6358">
        <ele>592.96</ele>
        <time>2024-05-30T21:17:01.527Z</time>
      </trkpt>
      <trkpt lat="43.00158" lon="-0.63584">
        <ele>595.75</ele>
        <time>2024-05-30T21:17:07.477Z</time>
      </trkpt>
      <trkpt lat="43.00168" lon="-0.63579">
        <ele>598.37</ele>
        <time>2024-05-30T21:17:13.429Z</time>
      </trkpt>
      <trkpt lat="43.00179" lon="-0.63567">
        <ele>600.79</ele>
        <time>2024-05-30T21:17:19.384Z</time>
      </trkpt>
      <trkpt lat="43.00189" lon="-0.63565">
        <ele>603.32</ele>
        <time>2024-05-30T21:17:25.341Z</time>
      </trkpt>
      <trkpt lat="43.00235" lon="-0.63581">
        <ele>605.93</ele>
        <time>2024-05-30T21:17:31.307Z</time>
      </trkpt>
      <trkpt lat="43.00279" lon="-0.63605">
        <ele>608.63</ele>
        <time>2024-05-30T21:17:37.283Z</time>
      </trkpt>
      <trkpt lat="43.00302" lon="-0.63611">
        <ele>611.01</ele>
        <time>2024-05-30T21:17:43.263Z</time>
      </trkpt>
      <trkpt lat="43.00313" lon="-0.63619">
        <ele>613.42</ele>
        <time>2024-05-30T21:17:49.246Z</time>
      </trkpt>
      <trkpt lat="43.00321" lon="-0.63645">
        <ele>616.1</ele>
        <time>2024-05-30T21:17:55.233Z</time>
      </trkpt>
      <trkpt lat="43.00337" lon="-0.63656">
        <ele>618.44</ele>
        <time>2024-05-30T21:18:01.223Z</time>
      </trkpt>
      <trkpt lat="43.00342" lon="-0.63668">
        <ele>620.79</ele>
        <time>2024-05-30T21:18:07.216Z</time>
      </trkpt>
      <trkpt lat="43.00343" lon="-0.63687">
        <ele>623.47</ele>
        <time>2024-05-30T21:18:13.211Z</time>
      </trkpt>
      <trkpt lat="43.0033" lon="-0.63796">
        <ele>626.8</ele>
        <time>2024-05-30T21:18:19.223Z</time>
      </trkpt>
      <trkpt lat="43.0033" lon="-0.63845">
        <ele>629.45</ele>
        <time>2024-05-30T21:18:25.242Z</time>
      </trkpt>
      <trkpt lat="43.00345" lon="-0.63902">
        <ele>631.85</ele>
        <time>2024-05-30T21:18:31.270Z</time>
      </trkpt>
      <trkpt lat="43.00357" lon="-0.63937">
        <ele>634.23</ele>
        <time>2024-05-30T21:18:37.303Z</time>
      </trkpt>
      <trkpt lat="43.00378" lon="-0.64018">
        <ele>637.04</ele>
        <time>2024-05-30T21:18:43.349Z</time>
      </trkpt>
      <trkpt lat="43.00419" lon="-0.64085">
        <ele>639.98</ele>
        <time>2024-05-30T21:18:49.408Z</time>
      </trkpt>
      <trkpt lat="43.00436" lon="-0.64117">
        <ele>642.43</ele>
        <time>2024-05-30T21:18:55.472Z</time>
      </trkpt>
      <trkpt lat="43.0046" lon="-0.64188">
        <ele>644.8</ele>
        <time>2024-05-30T21:19:01.548Z</time>
      </trkpt>
      <trkpt lat="43.00462" lon="-0.64212">
        <ele>647.3</ele>
        <time>2024-05-30T21:19:07.627Z</time>
      </trkpt>
      <trkpt lat="43.00453" lon="-0.64258">
        <ele>650.12</ele>
        <time>2024-05-30T21:19:13.713Z</time>
      </trkpt>
      <trkpt lat="43.00447" lon="-0.6431">
        <ele>653.06</ele>
        <time>2024-05-30T21:19:19.807Z</time>
      </trkpt>
      <trkpt lat="43.0045" lon="-0.64323">
        <ele>655.36</ele>
        <time>2024-05-30T21:19:25.903Z</time>
      </trkpt>
      <trkpt lat="43.00461" lon="-0.64328">
        <ele>657.53</ele>
        <time>2024-05-30T21:19:32.002Z</time>
      </trkpt>
      <trkpt lat="43.00488" lon="-0.64284">
        <ele>659.35</ele>
        <time>2024-05-30T21:19:38.109Z</time>
      </trkpt>
      <trkpt lat="43.00507" lon="-0.64269">
        <ele>661.6</ele>
        <time>2024-05-30T21:19:44.220Z</time>
      </trkpt>
      <trkpt lat="43.00532" lon="-0.64243">
        <ele>663.65</ele>
        <time>2024-05-30T21:19:50.338Z</time>
      </trkpt>
      <trkpt lat="43.00536" lon="-0.6424">
        <ele>665.85</ele>
        <time>2024-05-30T21:19:56.457Z</time>
      </trkpt>
      <trkpt lat="43.00554" lon="-0.6423">
        <ele>668</ele>
        <time>2024-05-30T21:20:02.579Z</time>
      </trkpt>
      <trkpt lat="43.00571" lon="-0.6423">
        <ele>670.32</ele>
        <time>2024-05-30T21:20:08.705Z</time>
      </trkpt>
      <trkpt lat="43.00616" lon="-0.64234">
        <ele>672.56</ele>
        <time>2024-05-30T21:20:14.840Z</time>
      </trkpt>
      <trkpt lat="43.00636" lon="-0.6424">
        <ele>674.87</ele>
        <time>2024-05-30T21:20:20.979Z</time>
      </trkpt>
      <trkpt lat="43.00685" lon="-0.64283">
        <ele>677.31</ele>
        <time>2024-05-30T21:20:27.130Z</time>
      </trkpt>
      <trkpt lat="43.00698" lon="-0.64314">
        <ele>680.11</ele>
        <time>2024-05-30T21:20:33.286Z</time>
      </trkpt>
      <trkpt lat="43.00719" lon="-0.64348">
        <ele>682.93</ele>
        <time>2024-05-30T21:20:39.448Z</time>
      </trkpt>
      <trkpt lat="43.00741" lon="-0.6438">
        <ele>685.72</ele>
        <time>2024-05-30T21:20:45.617Z</time>
      </trkpt>
      <trkpt lat="43.00748" lon="-0.64403">
        <ele>688.66</ele>
        <time>2024-05-30T21:20:51.789Z</time>
      </trkpt>
      <trkpt lat="43.0076" lon="-0.64484">
        <ele>691.72</ele>
        <time>2024-05-30T21:20:57.974Z</time>
      </trkpt>
      <trkpt lat="43.00762" lon="-0.64506">
        <ele>694.57</ele>
        <time>2024-05-30T21:21:04.162Z</time>
      </trkpt>
      <trkpt lat="43.00758" lon="-0.64521">
        <ele>697.55</ele>
        <time>2024-05-30T21:21:10.352Z</time>
      </trkpt>
      <trkpt lat="43.00737" lon="-0.64546">
        <ele>700.67</ele>
        <time>2024-05-30T21:21:16.548Z</time>
      </trkpt>
      <trkpt lat="43.00722" lon="-0.64563">
        <ele>703.8</ele>
        <time>2024-05-30T21:21:22.748Z</time>
      </trkpt>
      <trkpt lat="43.00692" lon="-0.64572">
        <ele>707.06</ele>
        <time>2024-05-30T21:21:28.954Z</time>
      </trkpt>
      <trkpt lat="43.00675" lon="-0.64584">
        <ele>710.23</ele>
        <time>2024-05-30T21:21:35.164Z</time>
      </trkpt>
      <trkpt lat="43.00658" lon="-0.64609">
        <ele>713.39</ele>
        <time>2024-05-30T21:21:41.379Z</time>
      </trkpt>
      <trkpt lat="43.00639" lon="-0.64649">
        <ele>716.81</ele>
        <time>2024-05-30T21:21:47.601Z</time>
      </trkpt>
      <trkpt lat="43.00632" lon="-0.64685">
        <ele>720.12</ele>
        <time>2024-05-30T21:21:53.828Z</time>
      </trkpt>
      <trkpt lat="43.00629" lon="-0.64753">
        <ele>723.42</ele>
        <time>2024-05-30T21:22:00.065Z</time>
      </trkpt>
      <trkpt lat="43.00635" lon="-0.64794">
        <ele>726.79</ele>
        <time>2024-05-30T21:22:06.308Z</time>
      </trkpt>
      <trkpt lat="43.00684" lon="-0.64884">
        <ele>730</ele>
        <time>2024-05-30T21:22:12.568Z</time>
      </trkpt>
      <trkpt lat="43.00707" lon="-0.64942">
        <ele>733.52</ele>
        <time>2024-05-30T21:22:18.837Z</time>
      </trkpt>
      <trkpt lat="43.00721" lon="-0.64957">
        <ele>736.74</ele>
        <time>2024-05-30T21:22:25.110Z</time>
      </trkpt>
      <trkpt lat="43.00735" lon="-0.64966">
        <ele>739.85</ele>
        <time>2024-05-30T21:22:31.386Z</time>
      </trkpt>
      <trkpt lat="43.0075" lon="-0.64967">
        <ele>742.89</ele>
        <time>2024-05-30T21:22:37.665Z</time>
      </trkpt>
      <trkpt lat="43.0077" lon="-0.64965">
        <ele>745.86</ele>
        <time>2024-05-30T21:22:43.948Z</time>
      </trkpt>
      <trkpt lat="43.00773" lon="-0.64967">
        <ele>748.66</ele>
        <time>2024-05-30T21:22:50.232Z</time>
      </trkpt>
      <trkpt lat="43.00773" lon="-0.64972">
        <ele>751.37</ele>
        <time>2024-05-30T21:22:56.516Z</time>
      </trkpt>
      <trkpt lat="43.00763" lon="-0.64977">
        <ele>753.97</ele>
        <time>2024-05-30T21:23:02.803Z</time>
      </trkpt>
      <trkpt lat="43.00734" lon="-0.64978">
        <ele>756.3</ele>
        <time>2024-05-30T21:23:09.095Z</time>
      </trkpt>
      <trkpt lat="43.00712" lon="-0.64974">
        <ele>758.62</ele>
        <time>2024-05-30T21:23:15.392Z</time>
      </trkpt>
      <trkpt lat="43.00709" lon="-0.6498">
        <ele>761.08</ele>
        <time>2024-05-30T21:23:21.690Z</time>
      </trkpt>
      <trkpt lat="43.00713" lon="-0.64986">
        <ele>763.51</ele>
        <time>2024-05-30T21:23:27.989Z</time>
      </trkpt>
      <trkpt lat="43.00725" lon="-0.6499">
        <ele>765.89</ele>
        <time>2024-05-30T21:23:34.290Z</time>
      </trkpt>
      <trkpt lat="43.00801" lon="-0.64991">
        <ele>768.51</ele>
        <time>2024-05-30T21:23:40.607Z</time>
      </trkpt>
      <trkpt lat="43.00836" lon="-0.65003">
        <ele>770.87</ele>
        <time>2024-05-30T21:23:46.931Z</time>
      </trkpt>
      <trkpt lat="43.00848" lon="-0.65014">
        <ele>773.04</ele>
        <time>2024-05-30T21:23:53.258Z</time>
      </trkpt>
      <trkpt lat="43.00859" lon="-0.65034">
        <ele>775.14</ele>
        <time>2024-05-30T21:23:59.588Z</time>
      </trkpt>
      <trkpt lat="43.00871" lon="-0.65043">
        <ele>777.15</ele>
        <time>2024-05-30T21:24:05.921Z</time>
      </trkpt>
      <trkpt lat="43.00879" lon="-0.65044">
        <ele>779.01</ele>
        <time>2024-05-30T21:24:12.256Z</time>
      </trkpt>
      <trkpt lat="43.00884" lon="-0.65033">
        <ele>780.74</ele>
        <time>2024-05-30T21:24:18.593Z</time>
      </trkpt>
      <trkpt lat="43.00883" lon="-0.65018">
        <ele>782.36</ele>
        <time>2024-05-30T21:24:24.932Z</time>
      </trkpt>
      <trkpt lat="43.00871" lon="-0.64985">
        <ele>783.85</ele>
        <time>2024-05-30T21:24:31.276Z</time>
      </trkpt>
      <trkpt lat="43.00843" lon="-0.64892">
        <ele>785.41</ele>
        <time>2024-05-30T21:24:37.635Z</time>
      </trkpt>
      <trkpt lat="43.00842" lon="-0.6488">
        <ele>786.9</ele>
        <time>2024-05-30T21:24:43.996Z</time>
      </trkpt>
      <trkpt lat="43.00848" lon="-0.64877">
        <ele>788.37</ele>
        <time>2024-05-30T21:24:50.358Z</time>
      </trkpt>
      <trkpt lat="43.00854" lon="-0.64883">
        <ele>789.74</ele>
        <time>2024-05-30T21:24:56.722Z</time>
      </trkpt>
      <trkpt lat="43.00856" lon="-0.64899">
        <ele>790.91</ele>
        <time>2024-05-30T21:25:03.088Z</time>
      </trkpt>
      <trkpt lat="43.00872" lon="-0.64933">
        <ele>792.2</ele>
        <time>2024-05-30T21:25:09.460Z</time>
      </trkpt>
      <trkpt lat="43.00909" lon="-0.64997">
        <ele>793.56</ele>
        <time>2024-05-30T21:25:15.844Z</time>
      </trkpt>
      <trkpt lat="43.00925" lon="-0.65087">
        <ele>795.05</ele>
        <time>2024-05-30T21:25:22.241Z</time>
      </trkpt>
      <trkpt lat="43.00933" lon="-0.65111">
        <ele>796.19</ele>
        <time>2024-05-30T21:25:28.642Z</time>
      </trkpt>
      <trkpt lat="43.00941" lon="-0.65143">
        <ele>797.27</ele>
        <time>2024-05-30T21:25:35.048Z</time>
      </trkpt>
      <trkpt lat="43.00944" lon="-0.65171">
        <ele>798.24</ele>
        <time>2024-05-30T21:25:41.458Z</time>
      </trkpt>
      <trkpt lat="43.0094" lon="-0.6521">
        <ele>799.06</ele>
        <time>2024-05-30T21:25:47.874Z</time>
      </trkpt>
      <trkpt lat="43.00938" lon="-0.6522">
        <ele>799.87</ele>
        <time>2024-05-30T21:25:54.292Z</time>
      </trkpt>
      <trkpt lat="43.00932" lon="-0.65226">
        <ele>800.6</ele>
        <time>2024-05-30T21:26:00.711Z</time>
      </trkpt>
      <trkpt lat="43.00926" lon="-0.65227">
        <ele>801.36</ele>
        <time>2024-05-30T21:26:07.131Z</time>
      </trkpt>
      <trkpt lat="43.00921" lon="-0.65223">
        <ele>802.12</ele>
        <time>2024-05-30T21:26:13.553Z</time>
      </trkpt>
      <trkpt lat="43.00906" lon="-0.6518">
        <ele>802.76</ele>
        <time>2024-05-30T21:26:19.982Z</time>
      </trkpt>
      <trkpt lat="43.00896" lon="-0.65168">
        <ele>803.48</ele>
        <time>2024-05-30T21:26:26.413Z</time>
      </trkpt>
      <trkpt lat="43.00879" lon="-0.65157">
        <ele>804.21</ele>
        <time>2024-05-30T21:26:32.848Z</time>
      </trkpt>
      <trkpt lat="43.00837" lon="-0.65118">
        <ele>804.99</ele>
        <time>2024-05-30T21:26:39.293Z</time>
      </trkpt>
      <trkpt lat="43.00825" lon="-0.65111">
        <ele>805.91</ele>
        <time>2024-05-30T21:26:45.741Z</time>
      </trkpt>
      <trkpt lat="43.00811" lon="-0.65112">
        <ele>806.94</ele>
        <time>2024-05-30T21:26:52.192Z</time>
      </trkpt>
      <trkpt lat="43.00788" lon="-0.65121">
        <ele>808.28</ele>
        <time>2024-05-30T21:26:58.647Z</time>
      </trkpt>
      <trkpt lat="43.0076" lon="-0.65114">
        <ele>809.28</ele>
        <time>2024-05-30T21:27:05.108Z</time>
      </trkpt>
      <trkpt lat="43.00704" lon="-0.65124">
        <ele>810.28</ele>
        <time>2024-05-30T21:27:11.580Z</time>
      </trkpt>
      <trkpt lat="43.00691" lon="-0.6513">
        <ele>811.4</ele>
        <time>2024-05-30T21:27:18.055Z</time>
      </trkpt>
      <trkpt lat="43.00669" lon="-0.65152">
        <ele>812.84</ele>
        <time>2024-05-30T21:27:24.536Z</time>
      </trkpt>
      <trkpt lat="43.00641" lon="-0.65168">
        <ele>813.97</ele>
        <time>2024-05-30T21:27:31.023Z</time>
      </trkpt>
      <trkpt lat="43.00628" lon="-0.65172">
        <ele>815.1</ele>
        <time>2024-05-30T21:27:37.512Z</time>
      </trkpt>
      <trkpt lat="43.00593" lon="-0.65173">
        <ele>816.26</ele>
        <time>2024-05-30T21:27:44.008Z</time>
      </trkpt>
      <trkpt lat="43.00572" lon="-0.65163">
        <ele>817.59</ele>
        <time>2024-05-30T21:27:50.509Z</time>
      </trkpt>
      <trkpt lat="43.0055" lon="-0.65146">
        <ele>818.98</ele>
        <time>2024-05-30T21:27:57.015Z</time>
      </trkpt>
      <trkpt lat="43.0053" lon="-0.65138">
        <ele>820.58</ele>
        <time>2024-05-30T21:28:03.525Z</time>
      </trkpt>
      <trkpt lat="43.00512" lon="-0.65136">
        <ele>822.38</ele>
        <time>2024-05-30T21:28:10.039Z</time>
      </trkpt>
      <trkpt lat="43.00474" lon="-0.65152">
        <ele>824.48</ele>
        <time>2024-05-30T21:28:16.561Z</time>
      </trkpt>
      <trkpt lat="43.00459" lon="-0.6515">
        <ele>826.29</ele>
        <time>2024-05-30T21:28:23.086Z</time>
      </trkpt>
      <trkpt lat="43.00438" lon="-0.65142">
        <ele>828.4</ele>
        <time>2024-05-30T21:28:29.615Z</time>
      </trkpt>
      <trkpt lat="43.00434" lon="-0.65137">
        <ele>830.37</ele>
        <time>2024-05-30T21:28:36.145Z</time>
      </trkpt>
      <trkpt lat="43.00432" lon="-0.65133">
        <ele>832.41</ele>
        <time>2024-05-30T21:28:42.676Z</time>
      </trkpt>
      <trkpt lat="43.00437" lon="-0.6512">
        <ele>834.38</ele>
        <time>2024-05-30T21:28:49.209Z</time>
      </trkpt>
      <trkpt lat="43.00443" lon="-0.65093">
        <ele>836.59</ele>
        <time>2024-05-30T21:28:55.746Z</time>
      </trkpt>
      <trkpt lat="43.00496" lon="-0.64967">
        <ele>838.62</ele>
        <time>2024-05-30T21:29:02.304Z</time>
      </trkpt>
      <trkpt lat="43.00495" lon="-0.64953">
        <ele>840.97</ele>
        <time>2024-05-30T21:29:08.864Z</time>
      </trkpt>
      <trkpt lat="43.0048" lon="-0.64928">
        <ele>843.7</ele>
        <time>2024-05-30T21:29:15.429Z</time>
      </trkpt>
      <trkpt lat="43.00448" lon="-0.64856">
        <ele>846.66</ele>
        <time>2024-05-30T21:29:22.006Z</time>
      </trkpt>
      <trkpt lat="43.00437" lon="-0.64854">
        <ele>849.4</ele>
        <time>2024-05-30T21:29:28.586Z</time>
      </trkpt>
      <trkpt lat="43.00429" lon="-0.64858">
        <ele>852.22</ele>
        <time>2024-05-30T21:29:35.167Z</time>
      </trkpt>
      <trkpt lat="43.00417" lon="-0.64871">
        <ele>855.11</ele>
        <time>2024-05-30T21:29:41.751Z</time>
      </trkpt>
      <trkpt lat="43.0038" lon="-0.64944">
        <ele>858.64</ele>
        <time>2024-05-30T21:29:48.348Z</time>
      </trkpt>
      <trkpt lat="43.00361" lon="-0.64973">
        <ele>861.64</ele>
        <time>2024-05-30T21:29:54.951Z</time>
      </trkpt>
      <trkpt lat="43.00324" lon="-0.65011">
        <ele>864.75</ele>
        <time>2024-05-30T21:30:01.563Z</time>
      </trkpt>
      <trkpt lat="43.00275" lon="-0.65042">
        <ele>867.81</ele>
        <time>2024-05-30T21:30:08.186Z</time>
      </trkpt>
      <trkpt lat="43.00254" lon="-0.65045">
        <ele>870.74</ele>
        <time>2024-05-30T21:30:14.813Z</time>
      </trkpt>
      <trkpt lat="43.00255" lon="-0.65052">
        <ele>873.8</ele>
        <time>2024-05-30T21:30:21.442Z</time>
      </trkpt>
      <trkpt lat="43.00262" lon="-0.65056">
        <ele>876.81</ele>
        <time>2024-05-30T21:30:28.072Z</time>
      </trkpt>
      <trkpt lat="43.00291" lon="-0.6505">
        <ele>879.69</ele>
        <time>2024-05-30T21:30:34.708Z</time>
      </trkpt>
      <trkpt lat="43.00333" lon="-0.65044">
        <ele>882.8</ele>
        <time>2024-05-30T21:30:41.352Z</time>
      </trkpt>
      <trkpt lat="43.00364" lon="-0.6503">
        <ele>885.59</ele>
        <time>2024-05-30T21:30:48.003Z</time>
      </trkpt>
      <trkpt lat="43.00372" lon="-0.6503">
        <ele>888.5</ele>
        <time>2024-05-30T21:30:54.655Z</time>
      </trkpt>
      <trkpt lat="43.00376" lon="-0.65034">
        <ele>891.42</ele>
        <time>2024-05-30T21:31:01.308Z</time>
      </trkpt>
      <trkpt lat="43.00376" lon="-0.65039">
        <ele>894.35</ele>
        <time>2024-05-30T21:31:07.962Z</time>
      </trkpt>
      <trkpt lat="43.00373" lon="-0.65047">
        <ele>897.31</ele>
        <time>2024-05-30T21:31:14.618Z</time>
      </trkpt>
      <trkpt lat="43.00354" lon="-0.65059">
        <ele>900.43</ele>
        <time>2024-05-30T21:31:21.278Z</time>
      </trkpt>
      <trkpt lat="43.00322" lon="-0.65085">
        <ele>903.68</ele>
        <time>2024-05-30T21:31:27.945Z</time>
      </trkpt>
      <trkpt lat="43.00299" lon="-0.65097">
        <ele>906.82</ele>
        <time>2024-05-30T21:31:34.617Z</time>
      </trkpt>
      <trkpt lat="43.00292" lon="-0.65104">
        <ele>909.83</ele>
        <time>2024-05-30T21:31:41.291Z</time>
      </trkpt>
      <trkpt lat="43.00286" lon="-0.65129">
        <ele>912.96</ele>
        <time>2024-05-30T21:31:47.969Z</time>
      </trkpt>
      <trkpt lat="43.00279" lon="-0.65142">
        <ele>915.98</ele>
        <time>2024-05-30T21:31:54.649Z</time>
      </trkpt>
      <trkpt lat="43.00261" lon="-0.65163">
        <ele>919.11</ele>
        <time>2024-05-30T21:32:01.334Z</time>
      </trkpt>
      <trkpt lat="43.00245" lon="-0.65243">
        <ele>922.37</ele>
        <time>2024-05-30T21:32:08.031Z</time>
      </trkpt>
      <trkpt lat="43.00235" lon="-0.65285">
        <ele>925.38</ele>
        <time>2024-05-30T21:32:14.734Z</time>
      </trkpt>
      <trkpt lat="43.00239" lon="-0.65303">
        <ele>927.96</ele>
        <time>2024-05-30T21:32:21.440Z</time>
      </trkpt>
      <trkpt lat="43.00243" lon="-0.65313">
        <ele>930.53</ele>
        <time>2024-05-30T21:32:28.148Z</time>
      </trkpt>
      <trkpt lat="43.00252" lon="-0.6532">
        <ele>932.99</ele>
        <time>2024-05-30T21:32:34.858Z</time>
      </trkpt>
      <trkpt lat="43.00271" lon="-0.65323">
        <ele>935.21</ele>
        <time>2024-05-30T21:32:41.572Z</time>
      </trkpt>
      <trkpt lat="43.00282" lon="-0.65333">
        <ele>937.59</ele>
        <time>2024-05-30T21:32:48.288Z</time>
      </trkpt>
      <trkpt lat="43.00289" lon="-0.65383">
        <ele>940.46</ele>
        <time>2024-05-30T21:32:55.012Z</time>
      </trkpt>
      <trkpt lat="43.00295" lon="-0.65405">
        <ele>943.01</ele>
        <time>2024-05-30T21:33:01.739Z</time>
      </trkpt>
      <trkpt lat="43.00308" lon="-0.65425">
        <ele>945.36</ele>
        <time>2024-05-30T21:33:08.470Z</time>
      </trkpt>
      <trkpt lat="43.00321" lon="-0.65433">
        <ele>947.41</ele>
        <time>2024-05-30T21:33:15.204Z</time>
      </trkpt>
      <trkpt lat="43.0033" lon="-0.65442">
        <ele>949.52</ele>
        <time>2024-05-30T21:33:21.940Z</time>
      </trkpt>
      <trkpt lat="43.00375" lon="-0.65506">
        <ele>951.78</ele>
        <time>2024-05-30T21:33:28.689Z</time>
      </trkpt>
      <trkpt lat="43.00399" lon="-0.65532">
        <ele>953.93</ele>
        <time>2024-05-30T21:33:35.444Z</time>
      </trkpt>
      <trkpt lat="43.00428" lon="-0.65569">
        <ele>956.29</ele>
        <time>2024-05-30T21:33:42.207Z</time>
      </trkpt>
      <trkpt lat="43.00432" lon="-0.65572">
        <ele>958.2</ele>
        <time>2024-05-30T21:33:48.971Z</time>
      </trkpt>
      <trkpt lat="43.00454" lon="-0.65587">
        <ele>960.14</ele>
        <time>2024-05-30T21:33:55.740Z</time>
      </trkpt>
      <trkpt lat="43.00481" lon="-0.65601">
        <ele>962</ele>
        <time>2024-05-30T21:34:02.515Z</time>
      </trkpt>
      <trkpt lat="43.00495" lon="-0.65602">
        <ele>963.73</ele>
        <time>2024-05-30T21:34:09.293Z</time>
      </trkpt>
      <trkpt lat="43.00528" lon="-0.65596">
        <ele>965.28</ele>
        <time>2024-05-30T21:34:16.077Z</time>
      </trkpt>
      <trkpt lat="43.00546" lon="-0.65591">
        <ele>966.81</ele>
        <time>2024-05-30T21:34:22.865Z</time>
      </trkpt>
      <trkpt lat="43.00555" lon="-0.65591">
        <ele>968.32</ele>
        <time>2024-05-30T21:34:29.655Z</time>
      </trkpt>
      <trkpt lat="43.00564" lon="-0.65596">
        <ele>969.85</ele>
        <time>2024-05-30T21:34:36.447Z</time>
      </trkpt>
      <trkpt lat="43.00569" lon="-0.6561">
        <ele>971.46</ele>
        <time>2024-05-30T21:34:43.241Z</time>
      </trkpt>
      <trkpt lat="43.00571" lon="-0.65632">
        <ele>973.09</ele>
        <time>2024-05-30T21:34:50.038Z</time>
      </trkpt>
      <trkpt lat="43.00561" lon="-0.65668">
        <ele>974.9</ele>
        <time>2024-05-30T21:34:56.841Z</time>
      </trkpt>
      <trkpt lat="43.00558" lon="-0.65689">
        <ele>976.61</ele>
        <time>2024-05-30T21:35:03.647Z</time>
      </trkpt>
      <trkpt lat="43.00562" lon="-0.65701">
        <ele>978.11</ele>
        <time>2024-05-30T21:35:10.455Z</time>
      </trkpt>
      <trkpt lat="43.00581" lon="-0.65721">
        <ele>979.51</ele>
        <time>2024-05-30T21:35:17.268Z</time>
      </trkpt>
      <trkpt lat="43.00596" lon="-0.65743">
        <ele>980.94</ele>
        <time>2024-05-30T21:35:24.085Z</time>
      </trkpt>
      <trkpt lat="43.00605" lon="-0.65767">
        <ele>982.49</ele>
        <time>2024-05-30T21:35:30.906Z</time>
      </trkpt>
      <trkpt lat="43.00615" lon="-0.658">
        <ele>984.22</ele>
        <time>2024-05-30T21:35:37.733Z</time>
      </trkpt>
      <trkpt lat="43.00624" lon="-0.65807">
        <ele>985.59</ele>
        <time>2024-05-30T21:35:44.562Z</time>
      </trkpt>
      <trkpt lat="43.00651" lon="-0.6581">
        <ele>986.83</ele>
        <time>2024-05-30T21:35:51.396Z</time>
      </trkpt>
      <trkpt lat="43.0067" lon="-0.65816">
        <ele>988.15</ele>
        <time>2024-05-30T21:35:58.234Z</time>
      </trkpt>
      <trkpt lat="43.00687" lon="-0.65837">
        <ele>989.71</ele>
        <time>2024-05-30T21:36:05.077Z</time>
      </trkpt>
      <trkpt lat="43.00706" lon="-0.65866">
        <ele>991.39</ele>
        <time>2024-05-30T21:36:11.925Z</time>
      </trkpt>
      <trkpt lat="43.00735" lon="-0.6589">
        <ele>992.71</ele>
        <time>2024-05-30T21:36:18.780Z</time>
      </trkpt>
      <trkpt lat="43.00737" lon="-0.65896">
        <ele>994.07</ele>
        <time>2024-05-30T21:36:25.636Z</time>
      </trkpt>
      <trkpt lat="43.00737" lon="-0.65902">
        <ele>995.43</ele>
        <time>2024-05-30T21:36:32.493Z</time>
      </trkpt>
      <trkpt lat="43.00735" lon="-0.65902">
        <ele>996.75</ele>
        <time>2024-05-30T21:36:39.350Z</time>
      </trkpt>
      <trkpt lat="43.00733" lon="-0.65903">
        <ele>998.05</ele>
        <time>2024-05-30T21:36:46.208Z</time>
      </trkpt>
      <trkpt lat="43.00694" lon="-0.65884">
        <ele>999.57</ele>
        <time>2024-05-30T21:36:53.074Z</time>
      </trkpt>
      <trkpt lat="43.00646" lon="-0.65858">
        <ele>1000.71</ele>
        <time>2024-05-30T21:36:59.950Z</time>
      </trkpt>
      <trkpt lat="43.00626" lon="-0.65859">
        <ele>1002.01</ele>
        <time>2024-05-30T21:37:06.830Z</time>
      </trkpt>
      <trkpt lat="43.006" lon="-0.65866">
        <ele>1003.45</ele>
        <time>2024-05-30T21:37:13.716Z</time>
      </trkpt>
      <trkpt lat="43.0059" lon="-0.6586">
        <ele>1004.61</ele>
        <time>2024-05-30T21:37:20.604Z</time>
      </trkpt>
      <trkpt lat="43.00571" lon="-0.65835">
        <ele>1005.71</ele>
        <time>2024-05-30T21:37:27.497Z</time>
      </trkpt>
      <trkpt lat="43.00559" lon="-0.65816">
        <ele>1006.74</ele>
        <time>2024-05-30T21:37:34.394Z</time>
      </trkpt>
      <trkpt lat="43.00547" lon="-0.65804">
        <ele>1007.84</ele>
        <time>2024-05-30T21:37:41.294Z</time>
      </trkpt>
      <trkpt lat="43.00531" lon="-0.65798">
        <ele>1008.89</ele>
        <time>2024-05-30T21:37:48.197Z</time>
      </trkpt>
      <trkpt lat="43.00518" lon="-0.65802">
        <ele>1010.01</ele>
        <time>2024-05-30T21:37:55.103Z</time>
      </trkpt>
      <trkpt lat="43.00499" lon="-0.6582">
        <ele>1011.13</ele>
        <time>2024-05-30T21:38:02.013Z</time>
      </trkpt>
      <trkpt lat="43.0049" lon="-0.65844">
        <ele>1012.11</ele>
        <time>2024-05-30T21:38:08.927Z</time>
      </trkpt>
      <trkpt lat="43.0049" lon="-0.6586">
        <ele>1012.97</ele>
        <time>2024-05-30T21:38:15.844Z</time>
      </trkpt>
      <trkpt lat="43.00509" lon="-0.65918">
        <ele>1013.91</ele>
        <time>2024-05-30T21:38:22.770Z</time>
      </trkpt>
      <trkpt lat="43.00513" lon="-0.65948">
        <ele>1014.8</ele>
        <time>2024-05-30T21:38:29.700Z</time>
      </trkpt>
      <trkpt lat="43.00513" lon="-0.66015">
        <ele>1015.69</ele>
        <time>2024-05-30T21:38:36.640Z</time>
      </trkpt>
      <trkpt lat="43.00501" lon="-0.66057">
        <ele>1016.3</ele>
        <time>2024-05-30T21:38:43.587Z</time>
      </trkpt>
      <trkpt lat="43.00498" lon="-0.66075">
        <ele>1017.01</ele>
        <time>2024-05-30T21:38:50.537Z</time>
      </trkpt>
      <trkpt lat="43.00498" lon="-0.66092">
        <ele>1017.77</ele>
        <time>2024-05-30T21:38:57.489Z</time>
      </trkpt>
      <trkpt lat="43.00502" lon="-0.6612">
        <ele>1018.56</ele>
        <time>2024-05-30T21:39:04.445Z</time>
      </trkpt>
      <trkpt lat="43.00519" lon="-0.66175">
        <ele>1019.47</ele>
        <time>2024-05-30T21:39:11.410Z</time>
      </trkpt>
      <trkpt lat="43.00522" lon="-0.66194">
        <ele>1020.25</ele>
        <time>2024-05-30T21:39:18.378Z</time>
      </trkpt>
      <trkpt lat="43.00523" lon="-0.6624">
        <ele>1021.17</ele>
        <time>2024-05-30T21:39:25.353Z</time>
      </trkpt>
      <trkpt lat="43.00519" lon="-0.66265">
        <ele>1021.96</ele>
        <time>2024-05-30T21:39:32.331Z</time>
      </trkpt>
      <trkpt lat="43.00512" lon="-0.66285">
        <ele>1022.65</ele>
        <time>2024-05-30T21:39:39.313Z</time>
      </trkpt>
      <trkpt lat="43.005" lon="-0.66306">
        <ele>1023.3</ele>
        <time>2024-05-30T21:39:46.299Z</time>
      </trkpt>
      <trkpt lat="43.00472" lon="-0.66386">
        <ele>1024.29</ele>
        <time>2024-05-30T21:39:53.298Z</time>
      </trkpt>
      <trkpt lat="43.00467" lon="-0.66393">
        <ele>1024.93</ele>
        <time>2024-05-30T21:40:00.298Z</time>
      </trkpt>
      <trkpt lat="43.00449" lon="-0.66406">
        <ele>1025.4</ele>
        <time>2024-05-30T21:40:07.302Z</time>
      </trkpt>
      <trkpt lat="43.00442" lon="-0.66416">
        <ele>1026.01</ele>
        <time>2024-05-30T21:40:14.308Z</time>
      </trkpt>
      <trkpt lat="43.00413" lon="-0.66472">
        <ele>1026.66</ele>
        <time>2024-05-30T21:40:21.324Z</time>
      </trkpt>
      <trkpt lat="43.00406" lon="-0.66489">
        <ele>1027.21</ele>
        <time>2024-05-30T21:40:28.343Z</time>
      </trkpt>
      <trkpt lat="43.00398" lon="-0.66519">
        <ele>1027.76</ele>
        <time>2024-05-30T21:40:35.367Z</time>
      </trkpt>
      <trkpt lat="43.00393" lon="-0.6653">
        <ele>1028.2</ele>
        <time>2024-05-30T21:40:42.393Z</time>
      </trkpt>
      <trkpt lat="43.00376" lon="-0.66551">
        <ele>1028.46</ele>
        <time>2024-05-30T21:40:49.423Z</time>
      </trkpt>
      <trkpt lat="43.00364" lon="-0.66575">
        <ele>1028.81</ele>
        <time>2024-05-30T21:40:56.457Z</time>
      </trkpt>
      <trkpt lat="43.00362" lon="-0.66594">
        <ele>1029.17</ele>
        <time>2024-05-30T21:41:03.494Z</time>
      </trkpt>
      <trkpt lat="43.00364" lon="-0.66607">
        <ele>1029.52</ele>
        <time>2024-05-30T21:41:10.533Z</time>
      </trkpt>
      <trkpt lat="43.0037" lon="-0.66622">
        <ele>1029.83</ele>
        <time>2024-05-30T21:41:17.575Z</time>
      </trkpt>
      <trkpt lat="43.00379" lon="-0.66636">
        <ele>1030.12</ele>
        <time>2024-05-30T21:41:24.619Z</time>
      </trkpt>
      <trkpt lat="43.00504" lon="-0.66778">
        <ele>1030.47</ele>
        <time>2024-05-30T21:41:31.696Z</time>
      </trkpt>
      <trkpt lat="43.00551" lon="-0.66808">
        <ele>1031.1</ele>
        <time>2024-05-30T21:41:38.783Z</time>
      </trkpt>
      <trkpt lat="43.00554" lon="-0.66812">
        <ele>1031.28</ele>
        <time>2024-05-30T21:41:45.871Z</time>
      </trkpt>
      <trkpt lat="43.00554" lon="-0.66819">
        <ele>1031.33</ele>
        <time>2024-05-30T21:41:52.960Z</time>
      </trkpt>
      <trkpt lat="43.00538" lon="-0.66839">
        <ele>1030.96</ele>
        <time>2024-05-30T21:42:00.054Z</time>
      </trkpt>
      <trkpt lat="43.00535" lon="-0.66851">
        <ele>1030.86</ele>
        <time>2024-05-30T21:42:07.149Z</time>
      </trkpt>
      <trkpt lat="43.00534" lon="-0.66873">
        <ele>1030.79</ele>
        <time>2024-05-30T21:42:14.248Z</time>
      </trkpt>
      <trkpt lat="43.0053" lon="-0.66887">
        <ele>1030.6</ele>
        <time>2024-05-30T21:42:21.349Z</time>
      </trkpt>
      <trkpt lat="43.00503" lon="-0.66907">
        <ele>1030.03</ele>
        <time>2024-05-30T21:42:28.456Z</time>
      </trkpt>
      <trkpt lat="43.00487" lon="-0.6693">
        <ele>1029.59</ele>
        <time>2024-05-30T21:42:35.568Z</time>
      </trkpt>
      <trkpt lat="43.00483" lon="-0.6695">
        <ele>1029.21</ele>
        <time>2024-05-30T21:42:42.683Z</time>
      </trkpt>
      <trkpt lat="43.00482" lon="-0.66978">
        <ele>1028.75</ele>
        <time>2024-05-30T21:42:49.802Z</time>
      </trkpt>
      <trkpt lat="43.00486" lon="-0.67016">
        <ele>1028.53</ele>
        <time>2024-05-30T21:42:56.926Z</time>
      </trkpt>
      <trkpt lat="43.00481" lon="-0.6703">
        <ele>1027.82</ele>
        <time>2024-05-30T21:43:04.053Z</time>
      </trkpt>
      <trkpt lat="43.0047" lon="-0.67045">
        <ele>1026.94</ele>
        <time>2024-05-30T21:43:11.183Z</time>
      </trkpt>
      <trkpt lat="43.00446" lon="-0.67063">
        <ele>1025.86</ele>
        <time>2024-05-30T21:43:18.318Z</time>
      </trkpt>
      <trkpt lat="43.00433" lon="-0.67087">
        <ele>1024.8</ele>
        <time>2024-05-30T21:43:25.458Z</time>
      </trkpt>
      <trkpt lat="43.00427" lon="-0.67094">
        <ele>1023.58</ele>
        <time>2024-05-30T21:43:32.599Z</time>
      </trkpt>
      <trkpt lat="43.00419" lon="-0.67145">
        <ele>1022.28</ele>
        <time>2024-05-30T21:43:39.748Z</time>
      </trkpt>
      <trkpt lat="43.00414" lon="-0.67207">
        <ele>1020.76</ele>
        <time>2024-05-30T21:43:46.906Z</time>
      </trkpt>
      <trkpt lat="43.00407" lon="-0.67263">
        <ele>1019.3</ele>
        <time>2024-05-30T21:43:54.072Z</time>
      </trkpt>
      <trkpt lat="43.00371" lon="-0.67323">
        <ele>1017.63</ele>
        <time>2024-05-30T21:44:01.250Z</time>
      </trkpt>
      <trkpt lat="43.00347" lon="-0.67378">
        <ele>1016.05</ele>
        <time>2024-05-30T21:44:08.437Z</time>
      </trkpt>
      <trkpt lat="43.00329" lon="-0.6746">
        <ele>1014.1</ele>
        <time>2024-05-30T21:44:15.637Z</time>
      </trkpt>
      <trkpt lat="43.00326" lon="-0.67482">
        <ele>1012.14</ele>
        <time>2024-05-30T21:44:22.840Z</time>
      </trkpt>
      <trkpt lat="43.00296" lon="-0.67634">
        <ele>1010.1</ele>
        <time>2024-05-30T21:44:30.066Z</time>
      </trkpt>
      <trkpt lat="43.00272" lon="-0.67794">
        <ele>1007.3</ele>
        <time>2024-05-30T21:44:37.316Z</time>
      </trkpt>
      <trkpt lat="43.00268" lon="-0.678">
        <ele>1005.26</ele>
        <time>2024-05-30T21:44:44.567Z</time>
      </trkpt>
      <trkpt lat="43.00257" lon="-0.67817">
        <ele>1003.18</ele>
        <time>2024-05-30T21:44:51.822Z</time>
      </trkpt>
      <trkpt lat="43.00227" lon="-0.67843">
        <ele>1001.43</ele>
        <time>2024-05-30T21:44:59.084Z</time>
      </trkpt>
      <trkpt lat="43.00199" lon="-0.67871">
        <ele>999.55</ele>
        <time>2024-05-30T21:45:06.353Z</time>
      </trkpt>
      <trkpt lat="43.00189" lon="-0.67898">
        <ele>997.29</ele>
        <time>2024-05-30T21:45:13.626Z</time>
      </trkpt>
      <trkpt lat="43.00184" lon="-0.67925">
        <ele>994.98</ele>
        <time>2024-05-30T21:45:20.903Z</time>
      </trkpt>
      <trkpt lat="43.00183" lon="-0.67951">
        <ele>992.64</ele>
        <time>2024-05-30T21:45:28.184Z</time>
      </trkpt>
      <trkpt lat="43.00193" lon="-0.68042">
        <ele>990.1</ele>
        <time>2024-05-30T21:45:35.479Z</time>
      </trkpt>
      <trkpt lat="43.00185" lon="-0.68125">
        <ele>987.93</ele>
        <time>2024-05-30T21:45:42.786Z</time>
      </trkpt>
      <trkpt lat="43.00193" lon="-0.68184">
        <ele>985.35</ele>
        <time>2024-05-30T21:45:50.102Z</time>
      </trkpt>
      <trkpt lat="43.00214" lon="-0.68284">
        <ele>982.7</ele>
        <time>2024-05-30T21:45:57.433Z</time>
      </trkpt>
      <trkpt lat="43.00215" lon="-0.68337">
        <ele>980.18</ele>
        <time>2024-05-30T21:46:04.772Z</time>
      </trkpt>
      <trkpt lat="43.00208" lon="-0.68365">
        <ele>978.01</ele>
        <time>2024-05-30T21:46:12.115Z</time>
      </trkpt>
      <trkpt lat="43.00195" lon="-0.68388">
        <ele>976</ele>
        <time>2024-05-30T21:46:19.462Z</time>
      </trkpt>
      <trkpt lat="43.00134" lon="-0.68444">
        <ele>974.54</ele>
        <time>2024-05-30T21:46:26.824Z</time>
      </trkpt>
      <trkpt lat="43.00109" lon="-0.68487">
        <ele>972.28</ele>
        <time>2024-05-30T21:46:34.194Z</time>
      </trkpt>
      <trkpt lat="43.00046" lon="-0.68534">
        <ele>969.85</ele>
        <time>2024-05-30T21:46:41.578Z</time>
      </trkpt>
      <trkpt lat="42.99977" lon="-0.68552">
        <ele>969.91</ele>
        <time>2024-05-30T21:46:48.976Z</time>
      </trkpt>
      <trkpt lat="42.99965" lon="-0.68563">
        <ele>968.56</ele>
        <time>2024-05-30T21:46:56.377Z</time>
      </trkpt>
      <trkpt lat="42.99962" lon="-0.68571">
        <ele>966.84</ele>
        <time>2024-05-30T21:47:03.780Z</time>
      </trkpt>
      <trkpt lat="42.99972" lon="-0.68676">
        <ele>964.48</ele>
        <time>2024-05-30T21:47:11.198Z</time>
      </trkpt>
      <trkpt lat="42.99982" lon="-0.68701">
        <ele>962.92</ele>
        <time>2024-05-30T21:47:18.620Z</time>
      </trkpt>
      <trkpt lat="43.00009" lon="-0.68734">
        <ele>960.89</ele>
        <time>2024-05-30T21:47:26.050Z</time>
      </trkpt>
      <trkpt lat="43.00023" lon="-0.68762">
        <ele>958.2</ele>
        <time>2024-05-30T21:47:33.485Z</time>
      </trkpt>
      <trkpt lat="43.00032" lon="-0.68793">
        <ele>956.59</ele>
        <time>2024-05-30T21:47:40.925Z</time>
      </trkpt>
      <trkpt lat="43.00035" lon="-0.68836">
        <ele>955.18</ele>
        <time>2024-05-30T21:47:48.371Z</time>
      </trkpt>
      <trkpt lat="43.00054" lon="-0.68941">
        <ele>953.38</ele>
        <time>2024-05-30T21:47:55.833Z</time>
      </trkpt>
      <trkpt lat="43.00084" lon="-0.69012">
        <ele>951.31</ele>
        <time>2024-05-30T21:48:03.307Z</time>
      </trkpt>
      <trkpt lat="43.00085" lon="-0.69037">
        <ele>949.73</ele>
        <time>2024-05-30T21:48:10.784Z</time>
      </trkpt>
      <trkpt lat="43.00082" lon="-0.69055">
        <ele>948.25</ele>
        <time>2024-05-30T21:48:18.264Z</time>
      </trkpt>
      <trkpt lat="43.00073" lon="-0.69079">
        <ele>946.85</ele>
        <time>2024-05-30T21:48:25.748Z</time>
      </trkpt>
      <trkpt lat="43.00045" lon="-0.69134">
        <ele>945.65</ele>
        <time>2024-05-30T21:48:33.242Z</time>
      </trkpt>
      <trkpt lat="43" lon="-0.69204">
        <ele>944.87</ele>
        <time>2024-05-30T21:48:40.750Z</time>
      </trkpt>
      <trkpt lat="42.99994" lon="-0.6923">
        <ele>943.45</ele>
        <time>2024-05-30T21:48:48.262Z</time>
      </trkpt>
      <trkpt lat="42.99988" lon="-0.69302">
        <ele>941.58</ele>
        <time>2024-05-30T21:48:55.784Z</time>
      </trkpt>
      <trkpt lat="42.99983" lon="-0.69322">
        <ele>940.14</ele>
        <time>2024-05-30T21:49:03.309Z</time>
      </trkpt>
      <trkpt lat="42.99974" lon="-0.69342">
        <ele>938.74</ele>
        <time>2024-05-30T21:49:10.838Z</time>
      </trkpt>
      <trkpt lat="42.99954" lon="-0.69367">
        <ele>937.25</ele>
        <time>2024-05-30T21:49:18.372Z</time>
      </trkpt>
      <trkpt lat="42.99843" lon="-0.6945">
        <ele>935.6</ele>
        <time>2024-05-30T21:49:25.932Z</time>
      </trkpt>
      <trkpt lat="42.998" lon="-0.69459">
        <ele>934.41</ele>
        <time>2024-05-30T21:49:33.500Z</time>
      </trkpt>
      <trkpt lat="42.99784" lon="-0.69459">
        <ele>933.4</ele>
        <time>2024-05-30T21:49:41.071Z</time>
      </trkpt>
      <trkpt lat="42.99765" lon="-0.69452">
        <ele>932.23</ele>
        <time>2024-05-30T21:49:48.646Z</time>
      </trkpt>
      <trkpt lat="42.99744" lon="-0.69449">
        <ele>931.23</ele>
        <time>2024-05-30T21:49:56.226Z</time>
      </trkpt>
      <trkpt lat="42.99729" lon="-0.69437">
        <ele>930.5</ele>
        <time>2024-05-30T21:50:03.809Z</time>
      </trkpt>
      <trkpt lat="42.99654" lon="-0.69419">
        <ele>930.89</ele>
        <time>2024-05-30T21:50:11.407Z</time>
      </trkpt>
      <trkpt lat="42.99647" lon="-0.69427">
        <ele>930.09</ele>
        <time>2024-05-30T21:50:19.007Z</time>
      </trkpt>
      <trkpt lat="42.99648" lon="-0.69436">
        <ele>929.18</ele>
        <time>2024-05-30T21:50:26.608Z</time>
      </trkpt>
      <trkpt lat="42.99654" lon="-0.6945">
        <ele>928.15</ele>
        <time>2024-05-30T21:50:34.212Z</time>
      </trkpt>
      <trkpt lat="42.99669" lon="-0.69464">
        <ele>926.65</ele>
        <time>2024-05-30T21:50:41.819Z</time>
      </trkpt>
      <trkpt lat="42.99676" lon="-0.69476">
        <ele>925.5</ele>
        <time>2024-05-30T21:50:49.429Z</time>
      </trkpt>
      <trkpt lat="42.99681" lon="-0.69494">
        <ele>924.42</ele>
        <time>2024-05-30T21:50:57.042Z</time>
      </trkpt>
      <trkpt lat="42.99693" lon="-0.69576">
        <ele>923.64</ele>
        <time>2024-05-30T21:51:04.667Z</time>
      </trkpt>
      <trkpt lat="42.99704" lon="-0.69627">
        <ele>922.45</ele>
        <time>2024-05-30T21:51:12.300Z</time>
      </trkpt>
      <trkpt lat="42.99722" lon="-0.69704">
        <ele>921.03</ele>
        <time>2024-05-30T21:51:19.944Z</time>
      </trkpt>
      <trkpt lat="42.99731" lon="-0.69727">
        <ele>919.65</ele>
        <time>2024-05-30T21:51:27.592Z</time>
      </trkpt>
      <trkpt lat="42.99738" lon="-0.69738">
        <ele>918.47</ele>
        <time>2024-05-30T21:51:35.242Z</time>
      </trkpt>
      <trkpt lat="42.99765" lon="-0.69771">
        <ele>917.09</ele>
        <time>2024-05-30T21:51:42.900Z</time>
      </trkpt>
      <trkpt lat="42.99772" lon="-0.69782">
        <ele>916</ele>
        <time>2024-05-30T21:51:50.560Z</time>
      </trkpt>
      <trkpt lat="42.99777" lon="-0.69792">
        <ele>914.91</ele>
        <time>2024-05-30T21:51:58.222Z</time>
      </trkpt>
      <trkpt lat="42.99791" lon="-0.69835">
        <ele>913.8</ele>
        <time>2024-05-30T21:52:05.891Z</time>
      </trkpt>
      <trkpt lat="42.99798" lon="-0.69849">
        <ele>912.68</ele>
        <time>2024-05-30T21:52:13.562Z</time>
      </trkpt>
      <trkpt lat="42.99805" lon="-0.69858">
        <ele>911.54</ele>
        <time>2024-05-30T21:52:21.235Z</time>
      </trkpt>
      <trkpt lat="42.99916" lon="-0.69941">
        <ele>910.35</ele>
        <time>2024-05-30T21:52:28.933Z</time>
      </trkpt>
      <trkpt lat="42.99922" lon="-0.69949">
        <ele>909.13</ele>
        <time>2024-05-30T21:52:36.633Z</time>
      </trkpt>
      <trkpt lat="42.99923" lon="-0.69962">
        <ele>907.97</ele>
        <time>2024-05-30T21:52:44.335Z</time>
      </trkpt>
      <trkpt lat="42.99906" lon="-0.70023">
        <ele>907.23</ele>
        <time>2024-05-30T21:52:52.046Z</time>
      </trkpt>
      <trkpt lat="42.99906" lon="-0.70039">
        <ele>905.95</ele>
        <time>2024-05-30T21:52:59.760Z</time>
      </trkpt>
      <trkpt lat="42.99919" lon="-0.70141">
        <ele>904.35</ele>
        <time>2024-05-30T21:53:07.489Z</time>
      </trkpt>
      <trkpt lat="42.99918" lon="-0.70165">
        <ele>903.06</ele>
        <time>2024-05-30T21:53:15.221Z</time>
      </trkpt>
      <trkpt lat="42.99905" lon="-0.70225">
        <ele>902.5</ele>
        <time>2024-05-30T21:53:22.963Z</time>
      </trkpt>
      <trkpt lat="42.99904" lon="-0.70242">
        <ele>901.01</ele>
        <time>2024-05-30T21:53:30.707Z</time>
      </trkpt>
      <trkpt lat="42.99909" lon="-0.70256">
        <ele>899.18</ele>
        <time>2024-05-30T21:53:38.453Z</time>
      </trkpt>
      <trkpt lat="42.9993" lon="-0.70267">
        <ele>896.75</ele>
        <time>2024-05-30T21:53:46.204Z</time>
      </trkpt>
      <trkpt lat="42.99936" lon="-0.70264">
        <ele>895.02</ele>
        <time>2024-05-30T21:53:53.956Z</time>
      </trkpt>
      <trkpt lat="42.99948" lon="-0.70248">
        <ele>893.05</ele>
        <time>2024-05-30T21:54:01.712Z</time>
      </trkpt>
      <trkpt lat="42.99972" lon="-0.70204">
        <ele>890.89</ele>
        <time>2024-05-30T21:54:09.476Z</time>
      </trkpt>
      <trkpt lat="42.99987" lon="-0.70184">
        <ele>889.15</ele>
        <time>2024-05-30T21:54:17.244Z</time>
      </trkpt>
      <trkpt lat="43.00028" lon="-0.70151">
        <ele>887.49</ele>
        <time>2024-05-30T21:54:25.021Z</time>
      </trkpt>
      <trkpt lat="43.00041" lon="-0.70148">
        <ele>885.92</ele>
        <time>2024-05-30T21:54:32.801Z</time>
      </trkpt>
      <trkpt lat="43.00057" lon="-0.7015">
        <ele>884.32</ele>
        <time>2024-05-30T21:54:40.584Z</time>
      </trkpt>
      <trkpt lat="43.00089" lon="-0.70169">
        <ele>882.73</ele>
        <time>2024-05-30T21:54:48.374Z</time>
      </trkpt>
      <trkpt lat="43.00115" lon="-0.70189">
        <ele>881.18</ele>
        <time>2024-05-30T21:54:56.170Z</time>
      </trkpt>
      <trkpt lat="43.00119" lon="-0.70195">
        <ele>879.81</ele>
        <time>2024-05-30T21:55:03.967Z</time>
      </trkpt>
      <trkpt lat="43.00124" lon="-0.70204">
        <ele>878.53</ele>
        <time>2024-05-30T21:55:11.766Z</time>
      </trkpt>
      <trkpt lat="43.00131" lon="-0.70228">
        <ele>877.3</ele>
        <time>2024-05-30T21:55:19.569Z</time>
      </trkpt>
      <trkpt lat="43.00143" lon="-0.70285">
        <ele>876.24</ele>
        <time>2024-05-30T21:55:27.380Z</time>
      </trkpt>
      <trkpt lat="43.00147" lon="-0.70324">
        <ele>875.31</ele>
        <time>2024-05-30T21:55:35.197Z</time>
      </trkpt>
      <trkpt lat="43.00161" lon="-0.70354">
        <ele>874.46</ele>
        <time>2024-05-30T21:55:43.019Z</time>
      </trkpt>
      <trkpt lat="43.00178" lon="-0.70377">
        <ele>873.88</ele>
        <time>2024-05-30T21:55:50.846Z</time>
      </trkpt>
      <trkpt lat="43.00204" lon="-0.70389">
        <ele>873.46</ele>
        <time>2024-05-30T21:55:58.679Z</time>
      </trkpt>
      <trkpt lat="43.00212" lon="-0.70389">
        <ele>873.05</ele>
        <time>2024-05-30T21:56:06.513Z</time>
      </trkpt>
      <trkpt lat="43.00221" lon="-0.70385">
        <ele>872.74</ele>
        <time>2024-05-30T21:56:14.349Z</time>
      </trkpt>
      <trkpt lat="43.00252" lon="-0.70303">
        <ele>872.18</ele>
        <time>2024-05-30T21:56:22.199Z</time>
      </trkpt>
      <trkpt lat="43.00259" lon="-0.70292">
        <ele>872.09</ele>
        <time>2024-05-30T21:56:30.051Z</time>
      </trkpt>
      <trkpt lat="43.00263" lon="-0.70289">
        <ele>872.18</ele>
        <time>2024-05-30T21:56:37.904Z</time>
      </trkpt>
      <trkpt lat="43.00272" lon="-0.70288">
        <ele>872.44</ele>
        <time>2024-05-30T21:56:45.759Z</time>
      </trkpt>
      <trkpt lat="43.0028" lon="-0.70291">
        <ele>872.87</ele>
        <time>2024-05-30T21:56:53.615Z</time>
      </trkpt>
      <trkpt lat="43.0029" lon="-0.70299">
        <ele>873.46</ele>
        <time>2024-05-30T21:57:01.474Z</time>
      </trkpt>
      <trkpt lat="43.00298" lon="-0.70309">
        <ele>874.13</ele>
        <time>2024-05-30T21:57:09.335Z</time>
      </trkpt>
      <trkpt lat="43.00306" lon="-0.70342">
        <ele>875.06</ele>
        <time>2024-05-30T21:57:17.201Z</time>
      </trkpt>
      <trkpt lat="43.00306" lon="-0.7035">
        <ele>876</ele>
        <time>2024-05-30T21:57:25.068Z</time>
      </trkpt>
      <trkpt lat="43.00304" lon="-0.70432">
        <ele>877.02</ele>
        <time>2024-05-30T21:57:32.947Z</time>
      </trkpt>
      <trkpt lat="43.00299" lon="-0.70451">
        <ele>878.23</ele>
        <time>2024-05-30T21:57:40.829Z</time>
      </trkpt>
      <trkpt lat="43.00288" lon="-0.70467">
        <ele>879.66</ele>
        <time>2024-05-30T21:57:48.714Z</time>
      </trkpt>
      <trkpt lat="43.00286" lon="-0.70482">
        <ele>881.12</ele>
        <time>2024-05-30T21:57:56.602Z</time>
      </trkpt>
      <trkpt lat="43.00287" lon="-0.70499">
        <ele>882.66</ele>
        <time>2024-05-30T21:58:04.492Z</time>
      </trkpt>
      <trkpt lat="43.003" lon="-0.70551">
        <ele>884.12</ele>
        <time>2024-05-30T21:58:12.390Z</time>
      </trkpt>
      <trkpt lat="43.00301" lon="-0.70572">
        <ele>885.83</ele>
        <time>2024-05-30T21:58:20.291Z</time>
      </trkpt>
      <trkpt lat="43.00298" lon="-0.70595">
        <ele>887.67</ele>
        <time>2024-05-30T21:58:28.196Z</time>
      </trkpt>
      <trkpt lat="43.00272" lon="-0.70647">
        <ele>890.11</ele>
        <time>2024-05-30T21:58:36.110Z</time>
      </trkpt>
      <trkpt lat="43.0027" lon="-0.70661">
        <ele>892.09</ele>
        <time>2024-05-30T21:58:44.026Z</time>
      </trkpt>
      <trkpt lat="43.00274" lon="-0.70701">
        <ele>894.17</ele>
        <time>2024-05-30T21:58:51.948Z</time>
      </trkpt>
      <trkpt lat="43.00271" lon="-0.70718">
        <ele>896.36</ele>
        <time>2024-05-30T21:58:59.872Z</time>
      </trkpt>
      <trkpt lat="43.00245" lon="-0.70764">
        <ele>898.92</ele>
        <time>2024-05-30T21:59:07.805Z</time>
      </trkpt>
      <trkpt lat="43.00242" lon="-0.70779">
        <ele>901.26</ele>
        <time>2024-05-30T21:59:15.740Z</time>
      </trkpt>
      <trkpt lat="43.00242" lon="-0.70787">
        <ele>903.62</ele>
        <time>2024-05-30T21:59:23.676Z</time>
      </trkpt>
      <trkpt lat="43.00258" lon="-0.70992">
        <ele>906.22</ele>
        <time>2024-05-30T21:59:31.643Z</time>
      </trkpt>
      <trkpt lat="43.00255" lon="-0.71033">
        <ele>908.88</ele>
        <time>2024-05-30T21:59:39.616Z</time>
      </trkpt>
      <trkpt lat="43.0025" lon="-0.71044">
        <ele>911.46</ele>
        <time>2024-05-30T21:59:47.591Z</time>
      </trkpt>
      <trkpt lat="43.00245" lon="-0.71048">
        <ele>914.05</ele>
        <time>2024-05-30T21:59:55.567Z</time>
      </trkpt>
      <trkpt lat="43.00238" lon="-0.7105">
        <ele>916.68</ele>
        <time>2024-05-30T22:00:03.544Z</time>
      </trkpt>
      <trkpt lat="43.00231" lon="-0.71047">
        <ele>919.39</ele>
        <time>2024-05-30T22:00:11.523Z</time>
      </trkpt>
      <trkpt lat="43.00217" lon="-0.70999">
        <ele>922.02</ele>
        <time>2024-05-30T22:00:19.509Z</time>
      </trkpt>
      <trkpt lat="43.0021" lon="-0.70994">
        <ele>924.82</ele>
        <time>2024-05-30T22:00:27.497Z</time>
      </trkpt>
      <trkpt lat="43.00204" lon="-0.70991">
        <ele>927.67</ele>
        <time>2024-05-30T22:00:35.486Z</time>
      </trkpt>
      <trkpt lat="43.00176" lon="-0.71004">
        <ele>930.77</ele>
        <time>2024-05-30T22:00:43.481Z</time>
      </trkpt>
      <trkpt lat="43.00151" lon="-0.71005">
        <ele>933.79</ele>
        <time>2024-05-30T22:00:51.481Z</time>
      </trkpt>
      <trkpt lat="43.00146" lon="-0.7101">
        <ele>936.75</ele>
        <time>2024-05-30T22:00:59.482Z</time>
      </trkpt>
      <trkpt lat="43.00143" lon="-0.71018">
        <ele>939.72</ele>
        <time>2024-05-30T22:01:07.485Z</time>
      </trkpt>
      <trkpt lat="43.00147" lon="-0.71083">
        <ele>942.97</ele>
        <time>2024-05-30T22:01:15.497Z</time>
      </trkpt>
      <trkpt lat="43.00143" lon="-0.71134">
        <ele>946.17</ele>
        <time>2024-05-30T22:01:23.517Z</time>
      </trkpt>
      <trkpt lat="43.00154" lon="-0.71186">
        <ele>949.07</ele>
        <time>2024-05-30T22:01:31.545Z</time>
      </trkpt>
      <trkpt lat="43.00152" lon="-0.71204">
        <ele>952.08</ele>
        <time>2024-05-30T22:01:39.575Z</time>
      </trkpt>
      <trkpt lat="43.00145" lon="-0.71217">
        <ele>955.15</ele>
        <time>2024-05-30T22:01:47.608Z</time>
      </trkpt>
      <trkpt lat="43.00139" lon="-0.71222">
        <ele>958.15</ele>
        <time>2024-05-30T22:01:55.642Z</time>
      </trkpt>
      <trkpt lat="43.00122" lon="-0.71223">
        <ele>961.2</ele>
        <time>2024-05-30T22:02:03.679Z</time>
      </trkpt>
      <trkpt lat="43.00081" lon="-0.7121">
        <ele>964.25</ele>
        <time>2024-05-30T22:02:11.725Z</time>
      </trkpt>
      <trkpt lat="43.00069" lon="-0.7121">
        <ele>967.18</ele>
        <time>2024-05-30T22:02:19.773Z</time>
      </trkpt>
      <trkpt lat="43.00062" lon="-0.71216">
        <ele>970.05</ele>
        <time>2024-05-30T22:02:27.823Z</time>
      </trkpt>
      <trkpt lat="43.00057" lon="-0.71227">
        <ele>972.86</ele>
        <time>2024-05-30T22:02:35.875Z</time>
      </trkpt>
      <trkpt lat="43.00056" lon="-0.7124">
        <ele>975.65</ele>
        <time>2024-05-30T22:02:43.929Z</time>
      </trkpt>
      <trkpt lat="43.0006" lon="-0.71257">
        <ele>978.34</ele>
        <time>2024-05-30T22:02:51.985Z</time>
      </trkpt>
      <trkpt lat="43.00084" lon="-0.71299">
        <ele>981.33</ele>
        <time>2024-05-30T22:03:00.049Z</time>
      </trkpt>
      <trkpt lat="43.00116" lon="-0.71385">
        <ele>984.03</ele>
        <time>2024-05-30T22:03:08.127Z</time>
      </trkpt>
      <trkpt lat="43.00115" lon="-0.71415">
        <ele>986.7</ele>
        <time>2024-05-30T22:03:16.210Z</time>
      </trkpt>
      <trkpt lat="43.00112" lon="-0.71432">
        <ele>989.28</ele>
        <time>2024-05-30T22:03:24.295Z</time>
      </trkpt>
      <trkpt lat="43.00102" lon="-0.71442">
        <ele>991.8</ele>
        <time>2024-05-30T22:03:32.383Z</time>
      </trkpt>
      <trkpt lat="43.00089" lon="-0.71449">
        <ele>994.36</ele>
        <time>2024-05-30T22:03:40.474Z</time>
      </trkpt>
      <trkpt lat="43.00058" lon="-0.71447">
        <ele>997.27</ele>
        <time>2024-05-30T22:03:48.571Z</time>
      </trkpt>
      <trkpt lat="43.00045" lon="-0.71453">
        <ele>999.82</ele>
        <time>2024-05-30T22:03:56.671Z</time>
      </trkpt>
      <trkpt lat="43.00038" lon="-0.71468">
        <ele>1002.09</ele>
        <time>2024-05-30T22:04:04.773Z</time>
      </trkpt>
      <trkpt lat="43.00036" lon="-0.71493">
        <ele>1004.19</ele>
        <time>2024-05-30T22:04:12.879Z</time>
      </trkpt>
      <trkpt lat="43.00061" lon="-0.71591">
        <ele>1006.08</ele>
        <time>2024-05-30T22:04:21.000Z</time>
      </trkpt>
      <trkpt lat="43.00084" lon="-0.71597">
        <ele>1007.54</ele>
        <time>2024-05-30T22:04:29.126Z</time>
      </trkpt>
      <trkpt lat="43.00098" lon="-0.7161">
        <ele>1009.13</ele>
        <time>2024-05-30T22:04:37.255Z</time>
      </trkpt>
      <trkpt lat="43.00106" lon="-0.71643">
        <ele>1011.04</ele>
        <time>2024-05-30T22:04:45.389Z</time>
      </trkpt>
      <trkpt lat="43.00105" lon="-0.71667">
        <ele>1012.67</ele>
        <time>2024-05-30T22:04:53.527Z</time>
      </trkpt>
      <trkpt lat="43.00112" lon="-0.71705">
        <ele>1014.39</ele>
        <time>2024-05-30T22:05:01.671Z</time>
      </trkpt>
      <trkpt lat="43.00118" lon="-0.71715">
        <ele>1015.94</ele>
        <time>2024-05-30T22:05:09.816Z</time>
      </trkpt>
      <trkpt lat="43.00125" lon="-0.71721">
        <ele>1017.41</ele>
        <time>2024-05-30T22:05:17.963Z</time>
      </trkpt>
      <trkpt lat="43.00131" lon="-0.71721">
        <ele>1018.85</ele>
        <time>2024-05-30T22:05:26.111Z</time>
      </trkpt>
      <trkpt lat="43.00138" lon="-0.71716">
        <ele>1020.22</ele>
        <time>2024-05-30T22:05:34.261Z</time>
      </trkpt>
      <trkpt lat="43.00149" lon="-0.71682">
        <ele>1021.39</ele>
        <time>2024-05-30T22:05:42.416Z</time>
      </trkpt>
      <trkpt lat="43.00157" lon="-0.71674">
        <ele>1022.7</ele>
        <time>2024-05-30T22:05:50.573Z</time>
      </trkpt>
      <trkpt lat="43.00167" lon="-0.71671">
        <ele>1024.04</ele>
        <time>2024-05-30T22:05:58.732Z</time>
      </trkpt>
      <trkpt lat="43.00178" lon="-0.71674">
        <ele>1025.41</ele>
        <time>2024-05-30T22:06:06.894Z</time>
      </trkpt>
      <trkpt lat="43.00191" lon="-0.71683">
        <ele>1026.96</ele>
        <time>2024-05-30T22:06:15.059Z</time>
      </trkpt>
      <trkpt lat="43.00202" lon="-0.71684">
        <ele>1028.42</ele>
        <time>2024-05-30T22:06:23.226Z</time>
      </trkpt>
      <trkpt lat="43.00228" lon="-0.71669">
        <ele>1030.03</ele>
        <time>2024-05-30T22:06:31.398Z</time>
      </trkpt>
      <trkpt lat="43.00238" lon="-0.71655">
        <ele>1031.52</ele>
        <time>2024-05-30T22:06:39.573Z</time>
      </trkpt>
      <trkpt lat="43.0024" lon="-0.71636">
        <ele>1032.99</ele>
        <time>2024-05-30T22:06:47.751Z</time>
      </trkpt>
      <trkpt lat="43.00219" lon="-0.71577">
        <ele>1034.18</ele>
        <time>2024-05-30T22:06:55.939Z</time>
      </trkpt>
      <trkpt lat="43.00217" lon="-0.71566">
        <ele>1035.61</ele>
        <time>2024-05-30T22:07:04.128Z</time>
      </trkpt>
      <trkpt lat="43.0022" lon="-0.71556">
        <ele>1037.15</ele>
        <time>2024-05-30T22:07:12.319Z</time>
      </trkpt>
      <trkpt lat="43.00225" lon="-0.71546">
        <ele>1038.74</ele>
        <time>2024-05-30T22:07:20.512Z</time>
      </trkpt>
      <trkpt lat="43.00239" lon="-0.7153">
        <ele>1040.49</ele>
        <time>2024-05-30T22:07:28.708Z</time>
      </trkpt>
      <trkpt lat="43.00261" lon="-0.71513">
        <ele>1042.38</ele>
        <time>2024-05-30T22:07:36.909Z</time>
      </trkpt>
      <trkpt lat="43.00274" lon="-0.71478">
        <ele>1044.15</ele>
        <time>2024-05-30T22:07:45.116Z</time>
      </trkpt>
      <trkpt lat="43.00281" lon="-0.71464">
        <ele>1045.98</ele>
        <time>2024-05-30T22:07:53.326Z</time>
      </trkpt>
      <trkpt lat="43.00288" lon="-0.71455">
        <ele>1047.91</ele>
        <time>2024-05-30T22:08:01.538Z</time>
      </trkpt>
      <trkpt lat="43.00316" lon="-0.7145">
        <ele>1050.25</ele>
        <time>2024-05-30T22:08:09.755Z</time>
      </trkpt>
      <trkpt lat="43.00393" lon="-0.71397">
        <ele>1053.1</ele>
        <time>2024-05-30T22:08:17.989Z</time>
      </trkpt>
      <trkpt lat="43.00402" lon="-0.71388">
        <ele>1055.3</ele>
        <time>2024-05-30T22:08:26.226Z</time>
      </trkpt>
      <trkpt lat="43.00414" lon="-0.71354">
        <ele>1057.31</ele>
        <time>2024-05-30T22:08:34.468Z</time>
      </trkpt>
      <trkpt lat="43.00431" lon="-0.71338">
        <ele>1059.69</ele>
        <time>2024-05-30T22:08:42.714Z</time>
      </trkpt>
      <trkpt lat="43.00446" lon="-0.71309">
        <ele>1061.73</ele>
        <time>2024-05-30T22:08:50.966Z</time>
      </trkpt>
      <trkpt lat="43.00472" lon="-0.71296">
        <ele>1064.35</ele>
        <time>2024-05-30T22:08:59.223Z</time>
      </trkpt>
      <trkpt lat="43.00486" lon="-0.71272">
        <ele>1066.58</ele>
        <time>2024-05-30T22:09:07.485Z</time>
      </trkpt>
      <trkpt lat="43.00496" lon="-0.71262">
        <ele>1068.91</ele>
        <time>2024-05-30T22:09:15.749Z</time>
      </trkpt>
      <trkpt lat="43.00527" lon="-0.71266">
        <ele>1071.68</ele>
        <time>2024-05-30T22:09:24.019Z</time>
      </trkpt>
      <trkpt lat="43.00551" lon="-0.71261">
        <ele>1074.25</ele>
        <time>2024-05-30T22:09:32.294Z</time>
      </trkpt>
      <trkpt lat="43.00566" lon="-0.71254">
        <ele>1076.73</ele>
        <time>2024-05-30T22:09:40.572Z</time>
      </trkpt>
      <trkpt lat="43.00595" lon="-0.71227">
        <ele>1079.25</ele>
        <time>2024-05-30T22:09:48.857Z</time>
      </trkpt>
      <trkpt lat="43.00628" lon="-0.71217">
        <ele>1082.07</ele>
        <time>2024-05-30T22:09:57.149Z</time>
      </trkpt>
      <trkpt lat="43.00638" lon="-0.71211">
        <ele>1084.62</ele>
        <time>2024-05-30T22:10:05.443Z</time>
      </trkpt>
      <trkpt lat="43.0065" lon="-0.71201">
        <ele>1087.17</ele>
        <time>2024-05-30T22:10:13.740Z</time>
      </trkpt>
      <trkpt lat="43.00675" lon="-0.71169">
        <ele>1089.83</ele>
        <time>2024-05-30T22:10:22.044Z</time>
      </trkpt>
      <trkpt lat="43.00716" lon="-0.71109">
        <ele>1092.43</ele>
        <time>2024-05-30T22:10:30.360Z</time>
      </trkpt>
      <trkpt lat="43.00742" lon="-0.71093">
        <ele>1095.14</ele>
        <time>2024-05-30T22:10:38.682Z</time>
      </trkpt>
      <trkpt lat="43.00753" lon="-0.71083">
        <ele>1097.67</ele>
        <time>2024-05-30T22:10:47.006Z</time>
      </trkpt>
      <trkpt lat="43.00763" lon="-0.71055">
        <ele>1100.01</ele>
        <time>2024-05-30T22:10:55.335Z</time>
      </trkpt>
      <trkpt lat="43.00778" lon="-0.71035">
        <ele>1102.54</ele>
        <time>2024-05-30T22:11:03.668Z</time>
      </trkpt>
      <trkpt lat="43.00783" lon="-0.71032">
        <ele>1105.06</ele>
        <time>2024-05-30T22:11:12.002Z</time>
      </trkpt>
      <trkpt lat="43.00787" lon="-0.71033">
        <ele>1107.58</ele>
        <time>2024-05-30T22:11:20.337Z</time>
      </trkpt>
      <trkpt lat="43.0079" lon="-0.71038">
        <ele>1110.12</ele>
        <time>2024-05-30T22:11:28.673Z</time>
      </trkpt>
      <trkpt lat="43.0079" lon="-0.71044">
        <ele>1112.6</ele>
        <time>2024-05-30T22:11:37.010Z</time>
      </trkpt>
      <trkpt lat="43.0077" lon="-0.71082">
        <ele>1115.04</ele>
        <time>2024-05-30T22:11:45.354Z</time>
      </trkpt>
      <trkpt lat="43.00757" lon="-0.71145">
        <ele>1118.05</ele>
        <time>2024-05-30T22:11:53.707Z</time>
      </trkpt>
      <trkpt lat="43.00745" lon="-0.71168">
        <ele>1120.55</ele>
        <time>2024-05-30T22:12:02.064Z</time>
      </trkpt>
      <trkpt lat="43.00734" lon="-0.71178">
        <ele>1122.83</ele>
        <time>2024-05-30T22:12:10.424Z</time>
      </trkpt>
      <trkpt lat="43.0072" lon="-0.71186">
        <ele>1124.98</ele>
        <time>2024-05-30T22:12:18.787Z</time>
      </trkpt>
      <trkpt lat="43.00712" lon="-0.71194">
        <ele>1127.24</ele>
        <time>2024-05-30T22:12:27.152Z</time>
      </trkpt>
      <trkpt lat="43.00702" lon="-0.71248">
        <ele>1130.07</ele>
        <time>2024-05-30T22:12:35.525Z</time>
      </trkpt>
      <trkpt lat="43.00681" lon="-0.71293">
        <ele>1132.49</ele>
        <time>2024-05-30T22:12:43.906Z</time>
      </trkpt>
      <trkpt lat="43.00675" lon="-0.71332">
        <ele>1135.07</ele>
        <time>2024-05-30T22:12:52.293Z</time>
      </trkpt>
      <trkpt lat="43.00662" lon="-0.71376">
        <ele>1137.55</ele>
        <time>2024-05-30T22:13:00.687Z</time>
      </trkpt>
      <trkpt lat="43.00652" lon="-0.71391">
        <ele>1139.81</ele>
        <time>2024-05-30T22:13:09.084Z</time>
      </trkpt>
      <trkpt lat="43.00637" lon="-0.714">
        <ele>1142.03</ele>
        <time>2024-05-30T22:13:17.484Z</time>
      </trkpt>
      <trkpt lat="43.00591" lon="-0.71415">
        <ele>1144.21</ele>
        <time>2024-05-30T22:13:25.894Z</time>
      </trkpt>
      <trkpt lat="43.00543" lon="-0.71422">
        <ele>1146.63</ele>
        <time>2024-05-30T22:13:34.313Z</time>
      </trkpt>
      <trkpt lat="43.00537" lon="-0.71432">
        <ele>1148.87</ele>
        <time>2024-05-30T22:13:42.734Z</time>
      </trkpt>
      <trkpt lat="43.00523" lon="-0.71476">
        <ele>1151.46</ele>
        <time>2024-05-30T22:13:51.162Z</time>
      </trkpt>
      <trkpt lat="43.00506" lon="-0.71524">
        <ele>1153.88</ele>
        <time>2024-05-30T22:13:59.598Z</time>
      </trkpt>
      <trkpt lat="43.00503" lon="-0.71547">
        <ele>1156.07</ele>
        <time>2024-05-30T22:14:08.037Z</time>
      </trkpt>
      <trkpt lat="43.00472" lon="-0.71654">
        <ele>1158.19</ele>
        <time>2024-05-30T22:14:16.493Z</time>
      </trkpt>
      <trkpt lat="43.00475" lon="-0.71658">
        <ele>1160.32</ele>
        <time>2024-05-30T22:14:24.950Z</time>
      </trkpt>
      <trkpt lat="43.00479" lon="-0.71659">
        <ele>1162.41</ele>
        <time>2024-05-30T22:14:33.408Z</time>
      </trkpt>
      <trkpt lat="43.00485" lon="-0.71652">
        <ele>1164.45</ele>
        <time>2024-05-30T22:14:41.868Z</time>
      </trkpt>
      <trkpt lat="43.00505" lon="-0.71595">
        <ele>1166.35</ele>
        <time>2024-05-30T22:14:50.337Z</time>
      </trkpt>
      <trkpt lat="43.00518" lon="-0.71565">
        <ele>1168.27</ele>
        <time>2024-05-30T22:14:58.811Z</time>
      </trkpt>
      <trkpt lat="43.0053" lon="-0.71546">
        <ele>1170.1</ele>
        <time>2024-05-30T22:15:07.289Z</time>
      </trkpt>
      <trkpt lat="43.00541" lon="-0.71535">
        <ele>1171.95</ele>
        <time>2024-05-30T22:15:15.769Z</time>
      </trkpt>
      <trkpt lat="43.00546" lon="-0.71533">
        <ele>1173.77</ele>
        <time>2024-05-30T22:15:24.250Z</time>
      </trkpt>
      <trkpt lat="43.0056" lon="-0.71528">
        <ele>1175.55</ele>
        <time>2024-05-30T22:15:32.734Z</time>
      </trkpt>
      <trkpt lat="43.00597" lon="-0.71535">
        <ele>1177.61</ele>
        <time>2024-05-30T22:15:41.226Z</time>
      </trkpt>
      <trkpt lat="43.00614" lon="-0.71526">
        <ele>1179.46</ele>
        <time>2024-05-30T22:15:49.721Z</time>
      </trkpt>
      <trkpt lat="43.00623" lon="-0.71526">
        <ele>1181.35</ele>
        <time>2024-05-30T22:15:58.218Z</time>
      </trkpt>
      <trkpt lat="43.00626" lon="-0.71535">
        <ele>1183.31</ele>
        <time>2024-05-30T22:16:06.717Z</time>
      </trkpt>
      <trkpt lat="43.00625" lon="-0.7154">
        <ele>1185.19</ele>
        <time>2024-05-30T22:16:15.216Z</time>
      </trkpt>
      <trkpt lat="43.00622" lon="-0.71544">
        <ele>1187.02</ele>
        <time>2024-05-30T22:16:23.716Z</time>
      </trkpt>
      <trkpt lat="43.0059" lon="-0.71563">
        <ele>1188.73</ele>
        <time>2024-05-30T22:16:32.223Z</time>
      </trkpt>
      <trkpt lat="43.00562" lon="-0.71585">
        <ele>1190.63</ele>
        <time>2024-05-30T22:16:40.737Z</time>
      </trkpt>
      <trkpt lat="43.0055" lon="-0.71604">
        <ele>1192.52</ele>
        <time>2024-05-30T22:16:49.254Z</time>
      </trkpt>
      <trkpt lat="43.00519" lon="-0.71691">
        <ele>1194.64</ele>
        <time>2024-05-30T22:16:57.786Z</time>
      </trkpt>
      <trkpt lat="43.00515" lon="-0.71717">
        <ele>1196.57</ele>
        <time>2024-05-30T22:17:06.322Z</time>
      </trkpt>
      <trkpt lat="43.0052" lon="-0.71733">
        <ele>1198.58</ele>
        <time>2024-05-30T22:17:14.860Z</time>
      </trkpt>
      <trkpt lat="43.00524" lon="-0.71734">
        <ele>1200.56</ele>
        <time>2024-05-30T22:17:23.399Z</time>
      </trkpt>
      <trkpt lat="43.00528" lon="-0.71733">
        <ele>1202.55</ele>
        <time>2024-05-30T22:17:31.939Z</time>
      </trkpt>
      <trkpt lat="43.0055" lon="-0.71693">
        <ele>1204.67</ele>
        <time>2024-05-30T22:17:40.486Z</time>
      </trkpt>
      <trkpt lat="43.00567" lon="-0.71677">
        <ele>1206.75</ele>
        <time>2024-05-30T22:17:49.037Z</time>
      </trkpt>
      <trkpt lat="43.00595" lon="-0.71669">
        <ele>1209.09</ele>
        <time>2024-05-30T22:17:57.594Z</time>
      </trkpt>
      <trkpt lat="43.00606" lon="-0.71661">
        <ele>1211.22</ele>
        <time>2024-05-30T22:18:06.153Z</time>
      </trkpt>
      <trkpt lat="43.00624" lon="-0.71638">
        <ele>1213.31</ele>
        <time>2024-05-30T22:18:14.717Z</time>
      </trkpt>
      <trkpt lat="43.00631" lon="-0.71638">
        <ele>1215.46</ele>
        <time>2024-05-30T22:18:23.283Z</time>
      </trkpt>
      <trkpt lat="43.00636" lon="-0.71643">
        <ele>1217.72</ele>
        <time>2024-05-30T22:18:31.850Z</time>
      </trkpt>
      <trkpt lat="43.00636" lon="-0.71649">
        <ele>1219.88</ele>
        <time>2024-05-30T22:18:40.418Z</time>
      </trkpt>
      <trkpt lat="43.00632" lon="-0.71668">
        <ele>1222.16</ele>
        <time>2024-05-30T22:18:48.989Z</time>
      </trkpt>
      <trkpt lat="43.00602" lon="-0.71721">
        <ele>1224.11</ele>
        <time>2024-05-30T22:18:57.570Z</time>
      </trkpt>
      <trkpt lat="43.00585" lon="-0.71774">
        <ele>1226.13</ele>
        <time>2024-05-30T22:19:06.159Z</time>
      </trkpt>
      <trkpt lat="43.00583" lon="-0.71794">
        <ele>1228.22</ele>
        <time>2024-05-30T22:19:14.751Z</time>
      </trkpt>
      <trkpt lat="43.00589" lon="-0.71814">
        <ele>1230.56</ele>
        <time>2024-05-30T22:19:23.346Z</time>
      </trkpt>
      <trkpt lat="43.00601" lon="-0.71841">
        <ele>1233.13</ele>
        <time>2024-05-30T22:19:31.946Z</time>
      </trkpt>
      <trkpt lat="43.00603" lon="-0.71852">
        <ele>1235.37</ele>
        <time>2024-05-30T22:19:40.547Z</time>
      </trkpt>
      <trkpt lat="43.00602" lon="-0.71863">
        <ele>1237.52</ele>
        <time>2024-05-30T22:19:49.150Z</time>
      </trkpt>
      <trkpt lat="43.00596" lon="-0.71872">
        <ele>1239.54</ele>
        <time>2024-05-30T22:19:57.755Z</time>
      </trkpt>
      <trkpt lat="43.00569" lon="-0.71888">
        <ele>1241.05</ele>
        <time>2024-05-30T22:20:06.366Z</time>
      </trkpt>
      <trkpt lat="43.00555" lon="-0.71906">
        <ele>1242.94</ele>
        <time>2024-05-30T22:20:14.981Z</time>
      </trkpt>
      <trkpt lat="43.00547" lon="-0.71918">
        <ele>1244.9</ele>
        <time>2024-05-30T22:20:23.598Z</time>
      </trkpt>
      <trkpt lat="43.00547" lon="-0.71927">
        <ele>1247.01</ele>
        <time>2024-05-30T22:20:32.216Z</time>
      </trkpt>
      <trkpt lat="43.00549" lon="-0.71933">
        <ele>1249.11</ele>
        <time>2024-05-30T22:20:40.835Z</time>
      </trkpt>
      <trkpt lat="43.00591" lon="-0.71992">
        <ele>1252.51</ele>
        <time>2024-05-30T22:20:49.466Z</time>
      </trkpt>
      <trkpt lat="43.00599" lon="-0.72011">
        <ele>1254.82</ele>
        <time>2024-05-30T22:20:58.101Z</time>
      </trkpt>
      <trkpt lat="43.00601" lon="-0.72024">
        <ele>1256.83</ele>
        <time>2024-05-30T22:21:06.738Z</time>
      </trkpt>
      <trkpt lat="43.00599" lon="-0.72038">
        <ele>1258.7</ele>
        <time>2024-05-30T22:21:15.377Z</time>
      </trkpt>
      <trkpt lat="43.00587" lon="-0.72068">
        <ele>1260.25</ele>
        <time>2024-05-30T22:21:24.021Z</time>
      </trkpt>
      <trkpt lat="43.00583" lon="-0.72081">
        <ele>1261.97</ele>
        <time>2024-05-30T22:21:32.667Z</time>
      </trkpt>
      <trkpt lat="43.00583" lon="-0.72096">
        <ele>1263.77</ele>
        <time>2024-05-30T22:21:41.315Z</time>
      </trkpt>
      <trkpt lat="43.00597" lon="-0.72128">
        <ele>1265.85</ele>
        <time>2024-05-30T22:21:49.968Z</time>
      </trkpt>
      <trkpt lat="43.00602" lon="-0.7215">
        <ele>1267.65</ele>
        <time>2024-05-30T22:21:58.625Z</time>
      </trkpt>
      <trkpt lat="43.00596" lon="-0.72202">
        <ele>1269.24</ele>
        <time>2024-05-30T22:22:07.289Z</time>
      </trkpt>
      <trkpt lat="43.00597" lon="-0.72242">
        <ele>1271.02</ele>
        <time>2024-05-30T22:22:15.959Z</time>
      </trkpt>
      <trkpt lat="43.00591" lon="-0.72258">
        <ele>1272.56</ele>
        <time>2024-05-30T22:22:24.632Z</time>
      </trkpt>
      <trkpt lat="43.00577" lon="-0.7227">
        <ele>1273.95</ele>
        <time>2024-05-30T22:22:33.308Z</time>
      </trkpt>
      <trkpt lat="43.00553" lon="-0.72312">
        <ele>1275.65</ele>
        <time>2024-05-30T22:22:41.992Z</time>
      </trkpt>
      <trkpt lat="43.00531" lon="-0.72343">
        <ele>1277.18</ele>
        <time>2024-05-30T22:22:50.682Z</time>
      </trkpt>
      <trkpt lat="43.00522" lon="-0.72376">
        <ele>1278.9</ele>
        <time>2024-05-30T22:22:59.378Z</time>
      </trkpt>
      <trkpt lat="43.00514" lon="-0.72391">
        <ele>1280.27</ele>
        <time>2024-05-30T22:23:08.076Z</time>
      </trkpt>
      <trkpt lat="43.00505" lon="-0.724">
        <ele>1281.52</ele>
        <time>2024-05-30T22:23:16.777Z</time>
      </trkpt>
      <trkpt lat="43.00487" lon="-0.72401">
        <ele>1282.47</ele>
        <time>2024-05-30T22:23:25.481Z</time>
      </trkpt>
      <trkpt lat="43.00466" lon="-0.72415">
        <ele>1283.56</ele>
        <time>2024-05-30T22:23:34.190Z</time>
      </trkpt>
      <trkpt lat="43.00438" lon="-0.72424">
        <ele>1284.43</ele>
        <time>2024-05-30T22:23:42.905Z</time>
      </trkpt>
      <trkpt lat="43.00429" lon="-0.72434">
        <ele>1285.54</ele>
        <time>2024-05-30T22:23:51.622Z</time>
      </trkpt>
      <trkpt lat="43.00409" lon="-0.72471">
        <ele>1287.06</ele>
        <time>2024-05-30T22:24:00.346Z</time>
      </trkpt>
      <trkpt lat="43.00405" lon="-0.72475">
        <ele>1288.12</ele>
        <time>2024-05-30T22:24:09.071Z</time>
      </trkpt>
      <trkpt lat="43.004" lon="-0.72476">
        <ele>1289.1</ele>
        <time>2024-05-30T22:24:17.797Z</time>
      </trkpt>
      <trkpt lat="43.00383" lon="-0.72472">
        <ele>1289.9</ele>
        <time>2024-05-30T22:24:26.526Z</time>
      </trkpt>
      <trkpt lat="43.00365" lon="-0.72463">
        <ele>1290.71</ele>
        <time>2024-05-30T22:24:35.259Z</time>
      </trkpt>
      <trkpt lat="43.00353" lon="-0.72454">
        <ele>1291.59</ele>
        <time>2024-05-30T22:24:43.995Z</time>
      </trkpt>
      <trkpt lat="43.00345" lon="-0.72451">
        <ele>1292.6</ele>
        <time>2024-05-30T22:24:52.732Z</time>
      </trkpt>
      <trkpt lat="43.00337" lon="-0.7245">
        <ele>1293.71</ele>
        <time>2024-05-30T22:25:01.471Z</time>
      </trkpt>
      <trkpt lat="43.00326" lon="-0.72452">
        <ele>1294.9</ele>
        <time>2024-05-30T22:25:10.212Z</time>
      </trkpt>
      <trkpt lat="43.00305" lon="-0.72463">
        <ele>1296.29</ele>
        <time>2024-05-30T22:25:18.958Z</time>
      </trkpt>
      <trkpt lat="43.00243" lon="-0.7251">
        <ele>1297.74</ele>
        <time>2024-05-30T22:25:27.718Z</time>
      </trkpt>
      <trkpt lat="43.00237" lon="-0.72522">
        <ele>1299.01</ele>
        <time>2024-05-30T22:25:36.480Z</time>
      </trkpt>
      <trkpt lat="43.00238" lon="-0.72529">
        <ele>1300.38</ele>
        <time>2024-05-30T22:25:45.243Z</time>
      </trkpt>
      <trkpt lat="43.00242" lon="-0.72534">
        <ele>1301.8</ele>
        <time>2024-05-30T22:25:54.007Z</time>
      </trkpt>
      <trkpt lat="43.00256" lon="-0.72537">
        <ele>1303.32</ele>
        <time>2024-05-30T22:26:02.774Z</time>
      </trkpt>
      <trkpt lat="43.00358" lon="-0.72521">
        <ele>1305.09</ele>
        <time>2024-05-30T22:26:11.561Z</time>
      </trkpt>
      <trkpt lat="43.00369" lon="-0.7252">
        <ele>1306.73</ele>
        <time>2024-05-30T22:26:20.351Z</time>
      </trkpt>
      <trkpt lat="43.00375" lon="-0.72522">
        <ele>1308.4</ele>
        <time>2024-05-30T22:26:29.142Z</time>
      </trkpt>
      <trkpt lat="43.00379" lon="-0.72527">
        <ele>1310.13</ele>
        <time>2024-05-30T22:26:37.934Z</time>
      </trkpt>
      <trkpt lat="43.0038" lon="-0.72534">
        <ele>1311.88</ele>
        <time>2024-05-30T22:26:46.727Z</time>
      </trkpt>
      <trkpt lat="43.00371" lon="-0.72549">
        <ele>1313.66</ele>
        <time>2024-05-30T22:26:55.523Z</time>
      </trkpt>
      <trkpt lat="43.00339" lon="-0.72631">
        <ele>1315.5</ele>
        <time>2024-05-30T22:27:04.333Z</time>
      </trkpt>
      <trkpt lat="43.00338" lon="-0.72642">
        <ele>1317.31</ele>
        <time>2024-05-30T22:27:13.144Z</time>
      </trkpt>
      <trkpt lat="43.00341" lon="-0.72652">
        <ele>1319.14</ele>
        <time>2024-05-30T22:27:21.957Z</time>
      </trkpt>
      <trkpt lat="43.00352" lon="-0.7267">
        <ele>1321.04</ele>
        <time>2024-05-30T22:27:30.773Z</time>
      </trkpt>
      <trkpt lat="43.00366" lon="-0.72682">
        <ele>1322.92</ele>
        <time>2024-05-30T22:27:39.592Z</time>
      </trkpt>
      <trkpt lat="43.00547" lon="-0.7276">
        <ele>1325.53</ele>
        <time>2024-05-30T22:27:48.449Z</time>
      </trkpt>
      <trkpt lat="43.00569" lon="-0.72762">
        <ele>1327.6</ele>
        <time>2024-05-30T22:27:57.311Z</time>
      </trkpt>
      <trkpt lat="43.00572" lon="-0.72768">
        <ele>1329.39</ele>
        <time>2024-05-30T22:28:06.174Z</time>
      </trkpt>
      <trkpt lat="43.00572" lon="-0.72776">
        <ele>1331.1</ele>
        <time>2024-05-30T22:28:15.038Z</time>
      </trkpt>
      <trkpt lat="43.00559" lon="-0.72816">
        <ele>1332.69</ele>
        <time>2024-05-30T22:28:23.908Z</time>
      </trkpt>
      <trkpt lat="43.00557" lon="-0.72837">
        <ele>1334.41</ele>
        <time>2024-05-30T22:28:32.782Z</time>
      </trkpt>
      <trkpt lat="43.00552" lon="-0.72847">
        <ele>1336.09</ele>
        <time>2024-05-30T22:28:41.657Z</time>
      </trkpt>
      <trkpt lat="43.00541" lon="-0.72856">
        <ele>1337.67</ele>
        <time>2024-05-30T22:28:50.535Z</time>
      </trkpt>
      <trkpt lat="43.00528" lon="-0.72872">
        <ele>1339.36</ele>
        <time>2024-05-30T22:28:59.416Z</time>
      </trkpt>
      <trkpt lat="43.0052" lon="-0.72879">
        <ele>1340.96</ele>
        <time>2024-05-30T22:29:08.299Z</time>
      </trkpt>
      <trkpt lat="43.00513" lon="-0.7288">
        <ele>1342.45</ele>
        <time>2024-05-30T22:29:17.184Z</time>
      </trkpt>
      <trkpt lat="43.00494" lon="-0.72877">
        <ele>1343.82</ele>
        <time>2024-05-30T22:29:26.073Z</time>
      </trkpt>
      <trkpt lat="43.00473" lon="-0.72883">
        <ele>1345.34</ele>
        <time>2024-05-30T22:29:34.966Z</time>
      </trkpt>
      <trkpt lat="43.00438" lon="-0.729">
        <ele>1346.98</ele>
        <time>2024-05-30T22:29:43.866Z</time>
      </trkpt>
      <trkpt lat="43.00428" lon="-0.72907">
        <ele>1348.48</ele>
        <time>2024-05-30T22:29:52.769Z</time>
      </trkpt>
      <trkpt lat="43.00419" lon="-0.72918">
        <ele>1349.98</ele>
        <time>2024-05-30T22:30:01.674Z</time>
      </trkpt>
      <trkpt lat="43.00412" lon="-0.72933">
        <ele>1351.52</ele>
        <time>2024-05-30T22:30:10.582Z</time>
      </trkpt>
      <trkpt lat="43.00403" lon="-0.72976">
        <ele>1353.31</ele>
        <time>2024-05-30T22:30:19.496Z</time>
      </trkpt>
      <trkpt lat="43.00401" lon="-0.73029">
        <ele>1354.92</ele>
        <time>2024-05-30T22:30:28.418Z</time>
      </trkpt>
      <trkpt lat="43.00396" lon="-0.73059">
        <ele>1356.26</ele>
        <time>2024-05-30T22:30:37.344Z</time>
      </trkpt>
      <trkpt lat="43.00391" lon="-0.73073">
        <ele>1357.57</ele>
        <time>2024-05-30T22:30:46.273Z</time>
      </trkpt>
      <trkpt lat="43.00383" lon="-0.73086">
        <ele>1358.82</ele>
        <time>2024-05-30T22:30:55.204Z</time>
      </trkpt>
      <trkpt lat="43.00366" lon="-0.73107">
        <ele>1360.07</ele>
        <time>2024-05-30T22:31:04.140Z</time>
      </trkpt>
      <trkpt lat="43.00361" lon="-0.73124">
        <ele>1361.45</ele>
        <time>2024-05-30T22:31:13.078Z</time>
      </trkpt>
      <trkpt lat="43.0036" lon="-0.73141">
        <ele>1362.81</ele>
        <time>2024-05-30T22:31:22.019Z</time>
      </trkpt>
      <trkpt lat="43.00354" lon="-0.73144">
        <ele>1364.26</ele>
        <time>2024-05-30T22:31:30.961Z</time>
      </trkpt>
      <trkpt lat="43.00324" lon="-0.7316">
        <ele>1365.85</ele>
        <time>2024-05-30T22:31:39.910Z</time>
      </trkpt>
      <trkpt lat="43.00304" lon="-0.73174">
        <ele>1367.42</ele>
        <time>2024-05-30T22:31:48.863Z</time>
      </trkpt>
      <trkpt lat="43.00286" lon="-0.73192">
        <ele>1369</ele>
        <time>2024-05-30T22:31:57.821Z</time>
      </trkpt>
      <trkpt lat="43.00228" lon="-0.73258">
        <ele>1370.86</ele>
        <time>2024-05-30T22:32:06.794Z</time>
      </trkpt>
      <trkpt lat="43.00193" lon="-0.73305">
        <ele>1372.58</ele>
        <time>2024-05-30T22:32:15.777Z</time>
      </trkpt>
      <trkpt lat="43.00176" lon="-0.73329">
        <ele>1374.35</ele>
        <time>2024-05-30T22:32:24.765Z</time>
      </trkpt>
      <trkpt lat="43.00169" lon="-0.73342">
        <ele>1376.06</ele>
        <time>2024-05-30T22:32:33.755Z</time>
      </trkpt>
      <trkpt lat="43.00152" lon="-0.73395">
        <ele>1377.75</ele>
        <time>2024-05-30T22:32:42.753Z</time>
      </trkpt>
      <trkpt lat="43.00124" lon="-0.73458">
        <ele>1379.51</ele>
        <time>2024-05-30T22:32:51.762Z</time>
      </trkpt>
      <trkpt lat="43.00116" lon="-0.73481">
        <ele>1381.2</ele>
        <time>2024-05-30T22:33:00.775Z</time>
      </trkpt>
      <trkpt lat="43.00097" lon="-0.7357">
        <ele>1383.04</ele>
        <time>2024-05-30T22:33:09.802Z</time>
      </trkpt>
      <trkpt lat="43.00091" lon="-0.73587">
        <ele>1384.65</ele>
        <time>2024-05-30T22:33:18.831Z</time>
      </trkpt>
      <trkpt lat="43.00082" lon="-0.73602">
        <ele>1386.3</ele>
        <time>2024-05-30T22:33:27.863Z</time>
      </trkpt>
      <trkpt lat="43.00033" lon="-0.73664">
        <ele>1388.16</ele>
        <time>2024-05-30T22:33:36.909Z</time>
      </trkpt>
      <trkpt lat="42.99999" lon="-0.73697">
        <ele>1390.05</ele>
        <time>2024-05-30T22:33:45.963Z</time>
      </trkpt>
      <trkpt lat="42.99916" lon="-0.73752">
        <ele>1391.67</ele>
        <time>2024-05-30T22:33:55.035Z</time>
      </trkpt>
      <trkpt lat="42.999" lon="-0.73766">
        <ele>1393.21</ele>
        <time>2024-05-30T22:34:04.111Z</time>
      </trkpt>
      <trkpt lat="42.99879" lon="-0.7379">
        <ele>1394.74</ele>
        <time>2024-05-30T22:34:13.193Z</time>
      </trkpt>
      <trkpt lat="42.99848" lon="-0.7383">
        <ele>1396.13</ele>
        <time>2024-05-30T22:34:22.283Z</time>
      </trkpt>
      <trkpt lat="42.99814" lon="-0.7388">
        <ele>1397.92</ele>
        <time>2024-05-30T22:34:31.383Z</time>
      </trkpt>
      <trkpt lat="42.9978" lon="-0.7392">
        <ele>1399.64</ele>
        <time>2024-05-30T22:34:40.492Z</time>
      </trkpt>
      <trkpt lat="42.99759" lon="-0.73965">
        <ele>1400.85</ele>
        <time>2024-05-30T22:34:49.609Z</time>
      </trkpt>
      <trkpt lat="42.99734" lon="-0.73998">
        <ele>1402.43</ele>
        <time>2024-05-30T22:34:58.733Z</time>
      </trkpt>
      <trkpt lat="42.99721" lon="-0.7401">
        <ele>1403.91</ele>
        <time>2024-05-30T22:35:07.860Z</time>
      </trkpt>
      <trkpt lat="42.99693" lon="-0.74024">
        <ele>1405.5</ele>
        <time>2024-05-30T22:35:16.993Z</time>
      </trkpt>
      <trkpt lat="42.99668" lon="-0.74028">
        <ele>1407.2</ele>
        <time>2024-05-30T22:35:26.131Z</time>
      </trkpt>
      <trkpt lat="42.99628" lon="-0.74025">
        <ele>1409.15</ele>
        <time>2024-05-30T22:35:35.277Z</time>
      </trkpt>
      <trkpt lat="42.99534" lon="-0.74023">
        <ele>1410.92</ele>
        <time>2024-05-30T22:35:44.442Z</time>
      </trkpt>
      <trkpt lat="42.99489" lon="-0.74018">
        <ele>1413.02</ele>
        <time>2024-05-30T22:35:53.616Z</time>
      </trkpt>
      <trkpt lat="42.99431" lon="-0.74005">
        <ele>1415.12</ele>
        <time>2024-05-30T22:36:02.802Z</time>
      </trkpt>
      <trkpt lat="42.99388" lon="-0.73988">
        <ele>1417.35</ele>
        <time>2024-05-30T22:36:11.997Z</time>
      </trkpt>
      <trkpt lat="42.99353" lon="-0.73978">
        <ele>1419.53</ele>
        <time>2024-05-30T22:36:21.199Z</time>
      </trkpt>
      <trkpt lat="42.99279" lon="-0.73948">
        <ele>1421.93</ele>
        <time>2024-05-30T22:36:30.416Z</time>
      </trkpt>
      <trkpt lat="42.99235" lon="-0.73935">
        <ele>1424.26</ele>
        <time>2024-05-30T22:36:39.642Z</time>
      </trkpt>
      <trkpt lat="42.99204" lon="-0.7392">
        <ele>1426.49</ele>
        <time>2024-05-30T22:36:48.875Z</time>
      </trkpt>
      <trkpt lat="42.99165" lon="-0.73905">
        <ele>1428.8</ele>
        <time>2024-05-30T22:36:58.116Z</time>
      </trkpt>
      <trkpt lat="42.99099" lon="-0.73875">
        <ele>1431.36</ele>
        <time>2024-05-30T22:37:07.371Z</time>
      </trkpt>
      <trkpt lat="42.9908" lon="-0.73862">
        <ele>1433.61</ele>
        <time>2024-05-30T22:37:16.630Z</time>
      </trkpt>
      <trkpt lat="42.99065" lon="-0.73843">
        <ele>1435.82</ele>
        <time>2024-05-30T22:37:25.893Z</time>
      </trkpt>
      <trkpt lat="42.99053" lon="-0.73836">
        <ele>1438.06</ele>
        <time>2024-05-30T22:37:35.159Z</time>
      </trkpt>
      <trkpt lat="42.99041" lon="-0.73839">
        <ele>1440.27</ele>
        <time>2024-05-30T22:37:44.427Z</time>
      </trkpt>
      <trkpt lat="42.99028" lon="-0.73853">
        <ele>1442.5</ele>
        <time>2024-05-30T22:37:53.698Z</time>
      </trkpt>
      <trkpt lat="42.99001" lon="-0.73898">
        <ele>1444.74</ele>
        <time>2024-05-30T22:38:02.978Z</time>
      </trkpt>
      <trkpt lat="42.98956" lon="-0.73984">
        <ele>1447.03</ele>
        <time>2024-05-30T22:38:12.274Z</time>
      </trkpt>
      <trkpt lat="42.9895" lon="-0.73989">
        <ele>1449.01</ele>
        <time>2024-05-30T22:38:21.571Z</time>
      </trkpt>
      <trkpt lat="42.98927" lon="-0.73993">
        <ele>1451.01</ele>
        <time>2024-05-30T22:38:30.873Z</time>
      </trkpt>
      <trkpt lat="42.9888" lon="-0.74007">
        <ele>1452.98</ele>
        <time>2024-05-30T22:38:40.184Z</time>
      </trkpt>
      <trkpt lat="42.98866" lon="-0.74015">
        <ele>1454.87</ele>
        <time>2024-05-30T22:38:49.498Z</time>
      </trkpt>
      <trkpt lat="42.9886" lon="-0.74024">
        <ele>1456.64</ele>
        <time>2024-05-30T22:38:58.814Z</time>
      </trkpt>
      <trkpt lat="42.98856" lon="-0.74036">
        <ele>1458.32</ele>
        <time>2024-05-30T22:39:08.132Z</time>
      </trkpt>
      <trkpt lat="42.98839" lon="-0.74111">
        <ele>1460</ele>
        <time>2024-05-30T22:39:17.461Z</time>
      </trkpt>
      <trkpt lat="42.98828" lon="-0.74137">
        <ele>1461.41</ele>
        <time>2024-05-30T22:39:26.795Z</time>
      </trkpt>
      <trkpt lat="42.98815" lon="-0.74156">
        <ele>1462.78</ele>
        <time>2024-05-30T22:39:36.133Z</time>
      </trkpt>
      <trkpt lat="42.98808" lon="-0.74163">
        <ele>1464.11</ele>
        <time>2024-05-30T22:39:45.472Z</time>
      </trkpt>
      <trkpt lat="42.98763" lon="-0.74187">
        <ele>1465.41</ele>
        <time>2024-05-30T22:39:54.821Z</time>
      </trkpt>
      <trkpt lat="42.98748" lon="-0.74188">
        <ele>1466.62</ele>
        <time>2024-05-30T22:40:04.173Z</time>
      </trkpt>
      <trkpt lat="42.98718" lon="-0.74175">
        <ele>1467.88</ele>
        <time>2024-05-30T22:40:13.531Z</time>
      </trkpt>
      <trkpt lat="42.98707" lon="-0.74175">
        <ele>1469.08</ele>
        <time>2024-05-30T22:40:22.892Z</time>
      </trkpt>
      <trkpt lat="42.98697" lon="-0.74181">
        <ele>1470.32</ele>
        <time>2024-05-30T22:40:32.255Z</time>
      </trkpt>
      <trkpt lat="42.9869" lon="-0.74193">
        <ele>1471.49</ele>
        <time>2024-05-30T22:40:41.620Z</time>
      </trkpt>
      <trkpt lat="42.98663" lon="-0.74273">
        <ele>1472.8</ele>
        <time>2024-05-30T22:40:50.998Z</time>
      </trkpt>
      <trkpt lat="42.98659" lon="-0.74292">
        <ele>1473.79</ele>
        <time>2024-05-30T22:41:00.379Z</time>
      </trkpt>
      <trkpt lat="42.98652" lon="-0.74309">
        <ele>1474.72</ele>
        <time>2024-05-30T22:41:09.763Z</time>
      </trkpt>
      <trkpt lat="42.98648" lon="-0.74313">
        <ele>1475.64</ele>
        <time>2024-05-30T22:41:19.148Z</time>
      </trkpt>
      <trkpt lat="42.9864" lon="-0.74317">
        <ele>1476.54</ele>
        <time>2024-05-30T22:41:28.534Z</time>
      </trkpt>
      <trkpt lat="42.98621" lon="-0.74319">
        <ele>1477.46</ele>
        <time>2024-05-30T22:41:37.924Z</time>
      </trkpt>
      <trkpt lat="42.98609" lon="-0.74327">
        <ele>1478.34</ele>
        <time>2024-05-30T22:41:47.317Z</time>
      </trkpt>
      <trkpt lat="42.98595" lon="-0.74359">
        <ele>1479.18</ele>
        <time>2024-05-30T22:41:56.715Z</time>
      </trkpt>
      <trkpt lat="42.9859" lon="-0.74366">
        <ele>1480.09</ele>
        <time>2024-05-30T22:42:06.115Z</time>
      </trkpt>
      <trkpt lat="42.98576" lon="-0.74371">
        <ele>1481.06</ele>
        <time>2024-05-30T22:42:15.518Z</time>
      </trkpt>
      <trkpt lat="42.98566" lon="-0.74368">
        <ele>1482.04</ele>
        <time>2024-05-30T22:42:24.923Z</time>
      </trkpt>
      <trkpt lat="42.98557" lon="-0.74362">
        <ele>1483.06</ele>
        <time>2024-05-30T22:42:34.330Z</time>
      </trkpt>
      <trkpt lat="42.98511" lon="-0.74321">
        <ele>1484.12</ele>
        <time>2024-05-30T22:42:43.748Z</time>
      </trkpt>
      <trkpt lat="42.98483" lon="-0.74281">
        <ele>1485.22</ele>
        <time>2024-05-30T22:42:53.174Z</time>
      </trkpt>
      <trkpt lat="42.98468" lon="-0.74267">
        <ele>1486.3</ele>
        <time>2024-05-30T22:43:02.603Z</time>
      </trkpt>
      <trkpt lat="42.98461" lon="-0.74264">
        <ele>1487.42</ele>
        <time>2024-05-30T22:43:12.034Z</time>
      </trkpt>
      <trkpt lat="42.98453" lon="-0.74264">
        <ele>1488.63</ele>
        <time>2024-05-30T22:43:21.467Z</time>
      </trkpt>
      <trkpt lat="42.98433" lon="-0.7427">
        <ele>1489.97</ele>
        <time>2024-05-30T22:43:30.904Z</time>
      </trkpt>
      <trkpt lat="42.98422" lon="-0.74277">
        <ele>1491.4</ele>
        <time>2024-05-30T22:43:40.343Z</time>
      </trkpt>
      <trkpt lat="42.9841" lon="-0.74291">
        <ele>1492.95</ele>
        <time>2024-05-30T22:43:49.785Z</time>
      </trkpt>
      <trkpt lat="42.98397" lon="-0.74317">
        <ele>1494.61</ele>
        <time>2024-05-30T22:43:59.232Z</time>
      </trkpt>
      <trkpt lat="42.98382" lon="-0.74381">
        <ele>1496.36</ele>
        <time>2024-05-30T22:44:08.689Z</time>
      </trkpt>
      <trkpt lat="42.98378" lon="-0.74406">
        <ele>1497.93</ele>
        <time>2024-05-30T22:44:18.149Z</time>
      </trkpt>
      <trkpt lat="42.9838" lon="-0.74422">
        <ele>1499.51</ele>
        <time>2024-05-30T22:44:27.612Z</time>
      </trkpt>
      <trkpt lat="42.98386" lon="-0.74432">
        <ele>1501.12</ele>
        <time>2024-05-30T22:44:37.077Z</time>
      </trkpt>
      <trkpt lat="42.98409" lon="-0.74452">
        <ele>1502.77</ele>
        <time>2024-05-30T22:44:46.547Z</time>
      </trkpt>
      <trkpt lat="42.98421" lon="-0.74471">
        <ele>1504.51</ele>
        <time>2024-05-30T22:44:56.021Z</time>
      </trkpt>
      <trkpt lat="42.9843" lon="-0.7451">
        <ele>1506.25</ele>
        <time>2024-05-30T22:45:05.501Z</time>
      </trkpt>
      <trkpt lat="42.98436" lon="-0.74558">
        <ele>1507.99</ele>
        <time>2024-05-30T22:45:14.988Z</time>
      </trkpt>
      <trkpt lat="42.98446" lon="-0.74586">
        <ele>1509.75</ele>
        <time>2024-05-30T22:45:24.480Z</time>
      </trkpt>
      <trkpt lat="42.98474" lon="-0.74627">
        <ele>1511.65</ele>
        <time>2024-05-30T22:45:33.980Z</time>
      </trkpt>
      <trkpt lat="42.98493" lon="-0.74648">
        <ele>1513.63</ele>
        <time>2024-05-30T22:45:43.485Z</time>
      </trkpt>
      <trkpt lat="42.98504" lon="-0.7467">
        <ele>1515.62</ele>
        <time>2024-05-30T22:45:52.994Z</time>
      </trkpt>
      <trkpt lat="42.98529" lon="-0.7475">
        <ele>1517.77</ele>
        <time>2024-05-30T22:46:02.515Z</time>
      </trkpt>
      <trkpt lat="42.98549" lon="-0.7479">
        <ele>1519.58</ele>
        <time>2024-05-30T22:46:12.043Z</time>
      </trkpt>
      <trkpt lat="42.9857" lon="-0.74819">
        <ele>1521.24</ele>
        <time>2024-05-30T22:46:21.577Z</time>
      </trkpt>
      <trkpt lat="42.98574" lon="-0.7483">
        <ele>1523.03</ele>
        <time>2024-05-30T22:46:31.113Z</time>
      </trkpt>
      <trkpt lat="42.98589" lon="-0.74909">
        <ele>1525.08</ele>
        <time>2024-05-30T22:46:40.661Z</time>
      </trkpt>
      <trkpt lat="42.98606" lon="-0.75046">
        <ele>1527.01</ele>
        <time>2024-05-30T22:46:50.230Z</time>
      </trkpt>
      <trkpt lat="42.98615" lon="-0.75106">
        <ele>1528.56</ele>
        <time>2024-05-30T22:46:59.808Z</time>
      </trkpt>
      <trkpt lat="42.98617" lon="-0.75124">
        <ele>1530.05</ele>
        <time>2024-05-30T22:47:09.388Z</time>
      </trkpt>
      <trkpt lat="42.98619" lon="-0.75181">
        <ele>1531.39</ele>
        <time>2024-05-30T22:47:18.977Z</time>
      </trkpt>
      <trkpt lat="42.98623" lon="-0.75214">
        <ele>1532.68</ele>
        <time>2024-05-30T22:47:28.571Z</time>
      </trkpt>
      <trkpt lat="42.9863" lon="-0.75234">
        <ele>1533.86</ele>
        <time>2024-05-30T22:47:38.168Z</time>
      </trkpt>
      <trkpt lat="42.98663" lon="-0.7529">
        <ele>1534.83</ele>
        <time>2024-05-30T22:47:47.775Z</time>
      </trkpt>
      <trkpt lat="42.98688" lon="-0.75362">
        <ele>1536.09</ele>
        <time>2024-05-30T22:47:57.394Z</time>
      </trkpt>
      <trkpt lat="42.98709" lon="-0.75429">
        <ele>1537.17</ele>
        <time>2024-05-30T22:48:07.024Z</time>
      </trkpt>
      <trkpt lat="42.98709" lon="-0.75441">
        <ele>1538.04</ele>
        <time>2024-05-30T22:48:16.656Z</time>
      </trkpt>
      <trkpt lat="42.98706" lon="-0.75452">
        <ele>1538.78</ele>
        <time>2024-05-30T22:48:26.289Z</time>
      </trkpt>
      <trkpt lat="42.98702" lon="-0.75461">
        <ele>1539.4</ele>
        <time>2024-05-30T22:48:35.924Z</time>
      </trkpt>
      <trkpt lat="42.98696" lon="-0.75468">
        <ele>1539.88</ele>
        <time>2024-05-30T22:48:45.560Z</time>
      </trkpt>
      <trkpt lat="42.98688" lon="-0.75472">
        <ele>1540.21</ele>
        <time>2024-05-30T22:48:55.198Z</time>
      </trkpt>
      <trkpt lat="42.98678" lon="-0.75473">
        <ele>1540.39</ele>
        <time>2024-05-30T22:49:04.838Z</time>
      </trkpt>
      <trkpt lat="42.9867" lon="-0.75469">
        <ele>1540.39</ele>
        <time>2024-05-30T22:49:14.480Z</time>
      </trkpt>
      <trkpt lat="42.9867" lon="-0.75474">
        <ele>1540.26</ele>
        <time>2024-05-30T22:49:24.123Z</time>
      </trkpt>
      <trkpt lat="42.98671" lon="-0.75481">
        <ele>1539.95</ele>
        <time>2024-05-30T22:49:33.767Z</time>
      </trkpt>
      <trkpt lat="42.98678" lon="-0.75496">
        <ele>1539.47</ele>
        <time>2024-05-30T22:49:43.413Z</time>
      </trkpt>
      <trkpt lat="42.98696" lon="-0.75519">
        <ele>1538.77</ele>
        <time>2024-05-30T22:49:53.064Z</time>
      </trkpt>
      <trkpt lat="42.98719" lon="-0.75558">
        <ele>1537.88</ele>
        <time>2024-05-30T22:50:02.722Z</time>
      </trkpt>
      <trkpt lat="42.9873" lon="-0.7557">
        <ele>1536.89</ele>
        <time>2024-05-30T22:50:12.383Z</time>
      </trkpt>
      <trkpt lat="42.98758" lon="-0.75586">
        <ele>1535.71</ele>
        <time>2024-05-30T22:50:22.050Z</time>
      </trkpt>
      <trkpt lat="42.98768" lon="-0.75595">
        <ele>1534.41</ele>
        <time>2024-05-30T22:50:31.720Z</time>
      </trkpt>
      <trkpt lat="42.98781" lon="-0.75612">
        <ele>1532.95</ele>
        <time>2024-05-30T22:50:41.393Z</time>
      </trkpt>
      <trkpt lat="42.98797" lon="-0.75637">
        <ele>1531.27</ele>
        <time>2024-05-30T22:50:51.071Z</time>
      </trkpt>
      <trkpt lat="42.98805" lon="-0.75645">
        <ele>1529.5</ele>
        <time>2024-05-30T22:51:00.751Z</time>
      </trkpt>
      <trkpt lat="42.98814" lon="-0.75652">
        <ele>1527.59</ele>
        <time>2024-05-30T22:51:10.433Z</time>
      </trkpt>
      <trkpt lat="42.98826" lon="-0.75656">
        <ele>1525.55</ele>
        <time>2024-05-30T22:51:20.118Z</time>
      </trkpt>
      <trkpt lat="42.98838" lon="-0.75664">
        <ele>1523.35</ele>
        <time>2024-05-30T22:51:29.805Z</time>
      </trkpt>
      <trkpt lat="42.98848" lon="-0.75673">
        <ele>1521.01</ele>
        <time>2024-05-30T22:51:39.495Z</time>
      </trkpt>
      <trkpt lat="42.98886" lon="-0.75716">
        <ele>1518.53</ele>
        <time>2024-05-30T22:51:49.195Z</time>
      </trkpt>
      <trkpt lat="42.98896" lon="-0.7573">
        <ele>1515.96</ele>
        <time>2024-05-30T22:51:58.898Z</time>
      </trkpt>
      <trkpt lat="42.98903" lon="-0.75742">
        <ele>1513.31</ele>
        <time>2024-05-30T22:52:08.603Z</time>
      </trkpt>
      <trkpt lat="42.98907" lon="-0.7576">
        <ele>1510.51</ele>
        <time>2024-05-30T22:52:18.311Z</time>
      </trkpt>
      <trkpt lat="42.98909" lon="-0.75803">
        <ele>1507.41</ele>
        <time>2024-05-30T22:52:28.025Z</time>
      </trkpt>
      <trkpt lat="42.98927" lon="-0.75882">
        <ele>1504.23</ele>
        <time>2024-05-30T22:52:37.751Z</time>
      </trkpt>
      <trkpt lat="42.98931" lon="-0.75912">
        <ele>1501.21</ele>
        <time>2024-05-30T22:52:47.482Z</time>
      </trkpt>
      <trkpt lat="42.98932" lon="-0.75967">
        <ele>1498.05</ele>
        <time>2024-05-30T22:52:57.221Z</time>
      </trkpt>
      <trkpt lat="42.98919" lon="-0.7606">
        <ele>1494.63</ele>
        <time>2024-05-30T22:53:06.973Z</time>
      </trkpt>
      <trkpt lat="42.98906" lon="-0.76146">
        <ele>1491.48</ele>
        <time>2024-05-30T22:53:16.738Z</time>
      </trkpt>
      <trkpt lat="42.98904" lon="-0.76176">
        <ele>1488.44</ele>
        <time>2024-05-30T22:53:26.508Z</time>
      </trkpt>
      <trkpt lat="42.98904" lon="-0.76206">
        <ele>1485.41</ele>
        <time>2024-05-30T22:53:36.282Z</time>
      </trkpt>
      <trkpt lat="42.98907" lon="-0.76232">
        <ele>1482.41</ele>
        <time>2024-05-30T22:53:46.060Z</time>
      </trkpt>
      <trkpt lat="42.98914" lon="-0.76266">
        <ele>1479.56</ele>
        <time>2024-05-30T22:53:55.843Z</time>
      </trkpt>
      <trkpt lat="42.98921" lon="-0.7632">
        <ele>1476.64</ele>
        <time>2024-05-30T22:54:05.634Z</time>
      </trkpt>
      <trkpt lat="42.98943" lon="-0.76445">
        <ele>1473.38</ele>
        <time>2024-05-30T22:54:15.444Z</time>
      </trkpt>
      <trkpt lat="42.98954" lon="-0.76499">
        <ele>1470.35</ele>
        <time>2024-05-30T22:54:25.262Z</time>
      </trkpt>
      <trkpt lat="42.98957" lon="-0.76508">
        <ele>1467.71</ele>
        <time>2024-05-30T22:54:35.082Z</time>
      </trkpt>
      <trkpt lat="42.98971" lon="-0.76538">
        <ele>1465.14</ele>
        <time>2024-05-30T22:54:44.907Z</time>
      </trkpt>
      <trkpt lat="42.98974" lon="-0.76551">
        <ele>1462.66</ele>
        <time>2024-05-30T22:54:54.734Z</time>
      </trkpt>
      <trkpt lat="42.98974" lon="-0.7656">
        <ele>1460.25</ele>
        <time>2024-05-30T22:55:04.562Z</time>
      </trkpt>
      <trkpt lat="42.98971" lon="-0.76566">
        <ele>1457.89</ele>
        <time>2024-05-30T22:55:14.391Z</time>
      </trkpt>
      <trkpt lat="42.98966" lon="-0.76572">
        <ele>1455.57</ele>
        <time>2024-05-30T22:55:24.222Z</time>
      </trkpt>
      <trkpt lat="42.9896" lon="-0.76573">
        <ele>1453.31</ele>
        <time>2024-05-30T22:55:34.054Z</time>
      </trkpt>
      <trkpt lat="42.98952" lon="-0.76569">
        <ele>1451.08</ele>
        <time>2024-05-30T22:55:43.888Z</time>
      </trkpt>
      <trkpt lat="42.9892" lon="-0.76523">
        <ele>1448.86</ele>
        <time>2024-05-30T22:55:53.731Z</time>
      </trkpt>
      <trkpt lat="42.9888" lon="-0.76482">
        <ele>1446.77</ele>
        <time>2024-05-30T22:56:03.584Z</time>
      </trkpt>
      <trkpt lat="42.98844" lon="-0.7645">
        <ele>1444.49</ele>
        <time>2024-05-30T22:56:13.446Z</time>
      </trkpt>
      <trkpt lat="42.9883" lon="-0.76422">
        <ele>1442.32</ele>
        <time>2024-05-30T22:56:23.313Z</time>
      </trkpt>
      <trkpt lat="42.98823" lon="-0.76403">
        <ele>1440.17</ele>
        <time>2024-05-30T22:56:33.183Z</time>
      </trkpt>
      <trkpt lat="42.98816" lon="-0.76392">
        <ele>1437.93</ele>
        <time>2024-05-30T22:56:43.055Z</time>
      </trkpt>
      <trkpt lat="42.98808" lon="-0.76386">
        <ele>1435.6</ele>
        <time>2024-05-30T22:56:52.929Z</time>
      </trkpt>
      <trkpt lat="42.98803" lon="-0.76386">
        <ele>1433.22</ele>
        <time>2024-05-30T22:57:02.804Z</time>
      </trkpt>
      <trkpt lat="42.98797" lon="-0.7639">
        <ele>1430.75</ele>
        <time>2024-05-30T22:57:12.680Z</time>
      </trkpt>
      <trkpt lat="42.98795" lon="-0.76399">
        <ele>1428.22</ele>
        <time>2024-05-30T22:57:22.557Z</time>
      </trkpt>
      <trkpt lat="42.98795" lon="-0.76409">
        <ele>1425.62</ele>
        <time>2024-05-30T22:57:32.436Z</time>
      </trkpt>
      <trkpt lat="42.98813" lon="-0.76485">
        <ele>1422.69</ele>
        <time>2024-05-30T22:57:42.327Z</time>
      </trkpt>
      <trkpt lat="42.98827" lon="-0.76519">
        <ele>1419.82</ele>
        <time>2024-05-30T22:57:52.223Z</time>
      </trkpt>
      <trkpt lat="42.98885" lon="-0.76656">
        <ele>1416.4</ele>
        <time>2024-05-30T22:58:02.143Z</time>
      </trkpt>
      <trkpt lat="42.98914" lon="-0.76738">
        <ele>1413.07</ele>
        <time>2024-05-30T22:58:12.076Z</time>
      </trkpt>
      <trkpt lat="42.98926" lon="-0.76768">
        <ele>1409.89</ele>
        <time>2024-05-30T22:58:22.014Z</time>
      </trkpt>
      <trkpt lat="42.98952" lon="-0.76822">
        <ele>1406.54</ele>
        <time>2024-05-30T22:58:31.961Z</time>
      </trkpt>
      <trkpt lat="42.99048" lon="-0.76967">
        <ele>1402.93</ele>
        <time>2024-05-30T22:58:41.937Z</time>
      </trkpt>
      <trkpt lat="42.99056" lon="-0.76971">
        <ele>1399.55</ele>
        <time>2024-05-30T22:58:51.915Z</time>
      </trkpt>
      <trkpt lat="42.99061" lon="-0.76969">
        <ele>1396.09</ele>
        <time>2024-05-30T22:59:01.894Z</time>
      </trkpt>
      <trkpt lat="42.9907" lon="-0.76959">
        <ele>1392.59</ele>
        <time>2024-05-30T22:59:11.875Z</time>
      </trkpt>
      <trkpt lat="42.99086" lon="-0.76925">
        <ele>1388.97</ele>
        <time>2024-05-30T22:59:21.862Z</time>
      </trkpt>
      <trkpt lat="42.99094" lon="-0.76911">
        <ele>1385.14</ele>
        <time>2024-05-30T22:59:31.852Z</time>
      </trkpt>
      <trkpt lat="42.99111" lon="-0.76897">
        <ele>1380.99</ele>
        <time>2024-05-30T22:59:41.846Z</time>
      </trkpt>
      <trkpt lat="42.99156" lon="-0.76865">
        <ele>1376.51</ele>
        <time>2024-05-30T22:59:51.850Z</time>
      </trkpt>
      <trkpt lat="42.99202" lon="-0.76847">
        <ele>1372.1</ele>
        <time>2024-05-30T23:00:01.863Z</time>
      </trkpt>
      <trkpt lat="42.99221" lon="-0.76833">
        <ele>1367.65</ele>
        <time>2024-05-30T23:00:11.881Z</time>
      </trkpt>
      <trkpt lat="42.99235" lon="-0.76819">
        <ele>1363.12</ele>
        <time>2024-05-30T23:00:21.902Z</time>
      </trkpt>
      <trkpt lat="42.99254" lon="-0.76789">
        <ele>1358.4</ele>
        <time>2024-05-30T23:00:31.929Z</time>
      </trkpt>
      <trkpt lat="42.99378" lon="-0.76514">
        <ele>1352.66</ele>
        <time>2024-05-30T23:00:42.003Z</time>
      </trkpt>
      <trkpt lat="42.9939" lon="-0.76463">
        <ele>1347.88</ele>
        <time>2024-05-30T23:00:52.085Z</time>
      </trkpt>
      <trkpt lat="42.99407" lon="-0.76413">
        <ele>1342.77</ele>
        <time>2024-05-30T23:01:02.175Z</time>
      </trkpt>
      <trkpt lat="42.99421" lon="-0.76356">
        <ele>1337.97</ele>
        <time>2024-05-30T23:01:12.274Z</time>
      </trkpt>
      <trkpt lat="42.99433" lon="-0.76277">
        <ele>1332.86</ele>
        <time>2024-05-30T23:01:22.385Z</time>
      </trkpt>
      <trkpt lat="42.99441" lon="-0.76242">
        <ele>1327.84</ele>
        <time>2024-05-30T23:01:32.501Z</time>
      </trkpt>
      <trkpt lat="42.99454" lon="-0.76153">
        <ele>1323.02</ele>
        <time>2024-05-30T23:01:42.631Z</time>
      </trkpt>
      <trkpt lat="42.9947" lon="-0.76089">
        <ele>1317.89</ele>
        <time>2024-05-30T23:01:52.771Z</time>
      </trkpt>
      <trkpt lat="42.9948" lon="-0.76044">
        <ele>1313.09</ele>
        <time>2024-05-30T23:02:02.917Z</time>
      </trkpt>
      <trkpt lat="42.99488" lon="-0.75977">
        <ele>1308.39</ele>
        <time>2024-05-30T23:02:13.073Z</time>
      </trkpt>
      <trkpt lat="42.99482" lon="-0.75888">
        <ele>1303.47</ele>
        <time>2024-05-30T23:02:23.243Z</time>
      </trkpt>
      <trkpt lat="42.99474" lon="-0.75862">
        <ele>1299.08</ele>
        <time>2024-05-30T23:02:33.417Z</time>
      </trkpt>
      <trkpt lat="42.99465" lon="-0.75844">
        <ele>1294.9</ele>
        <time>2024-05-30T23:02:43.594Z</time>
      </trkpt>
      <trkpt lat="42.99447" lon="-0.75818">
        <ele>1290.81</ele>
        <time>2024-05-30T23:02:53.776Z</time>
      </trkpt>
      <trkpt lat="42.99417" lon="-0.75768">
        <ele>1287.01</ele>
        <time>2024-05-30T23:03:03.968Z</time>
      </trkpt>
      <trkpt lat="42.99404" lon="-0.75743">
        <ele>1283.27</ele>
        <time>2024-05-30T23:03:14.164Z</time>
      </trkpt>
      <trkpt lat="42.99402" lon="-0.75733">
        <ele>1279.54</ele>
        <time>2024-05-30T23:03:24.362Z</time>
      </trkpt>
      <trkpt lat="42.99403" lon="-0.75726">
        <ele>1275.85</ele>
        <time>2024-05-30T23:03:34.561Z</time>
      </trkpt>
      <trkpt lat="42.99406" lon="-0.7572">
        <ele>1272.31</ele>
        <time>2024-05-30T23:03:44.761Z</time>
      </trkpt>
      <trkpt lat="42.99411" lon="-0.75718">
        <ele>1268.89</ele>
        <time>2024-05-30T23:03:54.962Z</time>
      </trkpt>
      <trkpt lat="42.99417" lon="-0.75719">
        <ele>1265.55</ele>
        <time>2024-05-30T23:04:05.164Z</time>
      </trkpt>
      <trkpt lat="42.99438" lon="-0.75735">
        <ele>1262</ele>
        <time>2024-05-30T23:04:15.371Z</time>
      </trkpt>
      <trkpt lat="42.99467" lon="-0.7575">
        <ele>1258.55</ele>
        <time>2024-05-30T23:04:25.584Z</time>
      </trkpt>
      <trkpt lat="42.9952" lon="-0.75764">
        <ele>1255.28</ele>
        <time>2024-05-30T23:04:35.808Z</time>
      </trkpt>
      <trkpt lat="42.99536" lon="-0.75771">
        <ele>1252.47</ele>
        <time>2024-05-30T23:04:46.035Z</time>
      </trkpt>
      <trkpt lat="42.99551" lon="-0.75781">
        <ele>1249.78</ele>
        <time>2024-05-30T23:04:56.265Z</time>
      </trkpt>
      <trkpt lat="42.99582" lon="-0.75809">
        <ele>1247.21</ele>
        <time>2024-05-30T23:05:06.503Z</time>
      </trkpt>
      <trkpt lat="42.99592" lon="-0.75815">
        <ele>1244.93</ele>
        <time>2024-05-30T23:05:16.743Z</time>
      </trkpt>
      <trkpt lat="42.99605" lon="-0.75814">
        <ele>1242.9</ele>
        <time>2024-05-30T23:05:26.986Z</time>
      </trkpt>
      <trkpt lat="42.99615" lon="-0.75808">
        <ele>1241.07</ele>
        <time>2024-05-30T23:05:37.231Z</time>
      </trkpt>
      <trkpt lat="42.99624" lon="-0.75797">
        <ele>1239.44</ele>
        <time>2024-05-30T23:05:47.478Z</time>
      </trkpt>
      <trkpt lat="42.99637" lon="-0.75768">
        <ele>1237.98</ele>
        <time>2024-05-30T23:05:57.730Z</time>
      </trkpt>
      <trkpt lat="42.99641" lon="-0.75752">
        <ele>1236.62</ele>
        <time>2024-05-30T23:06:07.985Z</time>
      </trkpt>
      <trkpt lat="42.9964" lon="-0.7571">
        <ele>1235.57</ele>
        <time>2024-05-30T23:06:18.246Z</time>
      </trkpt>
      <trkpt lat="42.99651" lon="-0.75628">
        <ele>1234.57</ele>
        <time>2024-05-30T23:06:28.519Z</time>
      </trkpt>
      <trkpt lat="42.99659" lon="-0.75613">
        <ele>1233.5</ele>
        <time>2024-05-30T23:06:38.795Z</time>
      </trkpt>
      <trkpt lat="42.99694" lon="-0.75565">
        <ele>1232.26</ele>
        <time>2024-05-30T23:06:49.081Z</time>
      </trkpt>
      <trkpt lat="42.99702" lon="-0.7553">
        <ele>1231.53</ele>
        <time>2024-05-30T23:06:59.372Z</time>
      </trkpt>
      <trkpt lat="42.9973" lon="-0.75507">
        <ele>1230.47</ele>
        <time>2024-05-30T23:07:09.670Z</time>
      </trkpt>
      <trkpt lat="42.99743" lon="-0.75486">
        <ele>1230.01</ele>
        <time>2024-05-30T23:07:19.972Z</time>
      </trkpt>
      <trkpt lat="42.99761" lon="-0.75468">
        <ele>1229.6</ele>
        <time>2024-05-30T23:07:30.278Z</time>
      </trkpt>
      <trkpt lat="42.99805" lon="-0.75345">
        <ele>1229.42</ele>
        <time>2024-05-30T23:07:40.604Z</time>
      </trkpt>
      <trkpt lat="42.9982" lon="-0.75289">
        <ele>1229.49</ele>
        <time>2024-05-30T23:07:50.939Z</time>
      </trkpt>
      <trkpt lat="42.99828" lon="-0.75281">
        <ele>1229.62</ele>
        <time>2024-05-30T23:08:01.276Z</time>
      </trkpt>
      <trkpt lat="42.99834" lon="-0.75279">
        <ele>1229.94</ele>
        <time>2024-05-30T23:08:11.614Z</time>
      </trkpt>
      <trkpt lat="42.99838" lon="-0.7528">
        <ele>1230.47</ele>
        <time>2024-05-30T23:08:21.953Z</time>
      </trkpt>
      <trkpt lat="42.99842" lon="-0.75287">
        <ele>1231.14</ele>
        <time>2024-05-30T23:08:32.293Z</time>
      </trkpt>
      <trkpt lat="42.99854" lon="-0.75316">
        <ele>1231.91</ele>
        <time>2024-05-30T23:08:42.638Z</time>
      </trkpt>
      <trkpt lat="42.99865" lon="-0.75337">
        <ele>1233.03</ele>
        <time>2024-05-30T23:08:52.987Z</time>
      </trkpt>
      <trkpt lat="42.99901" lon="-0.75393">
        <ele>1234.37</ele>
        <time>2024-05-30T23:09:03.347Z</time>
      </trkpt>
      <trkpt lat="42.99922" lon="-0.75417">
        <ele>1236.22</ele>
        <time>2024-05-30T23:09:13.713Z</time>
      </trkpt>
      <trkpt lat="42.9993" lon="-0.75432">
        <ele>1237.88</ele>
        <time>2024-05-30T23:09:24.081Z</time>
      </trkpt>
      <trkpt lat="42.99966" lon="-0.75508">
        <ele>1239.76</ele>
        <time>2024-05-30T23:09:34.463Z</time>
      </trkpt>
      <trkpt lat="42.99994" lon="-0.75571">
        <ele>1241.85</ele>
        <time>2024-05-30T23:09:44.855Z</time>
      </trkpt>
      <trkpt lat="42.99998" lon="-0.75578">
        <ele>1244</ele>
        <time>2024-05-30T23:09:55.249Z</time>
      </trkpt>
      <trkpt lat="43.00017" lon="-0.75599">
        <ele>1247.33</ele>
        <time>2024-05-30T23:10:05.648Z</time>
      </trkpt>
      <trkpt lat="43.00024" lon="-0.7561">
        <ele>1249.73</ele>
        <time>2024-05-30T23:10:16.049Z</time>
      </trkpt>
      <trkpt lat="43.00048" lon="-0.75664">
        <ele>1252.24</ele>
        <time>2024-05-30T23:10:26.459Z</time>
      </trkpt>
      <trkpt lat="43.00055" lon="-0.75675">
        <ele>1254.67</ele>
        <time>2024-05-30T23:10:36.871Z</time>
      </trkpt>
      <trkpt lat="43.00067" lon="-0.75689">
        <ele>1257.15</ele>
        <time>2024-05-30T23:10:47.286Z</time>
      </trkpt>
      <trkpt lat="43.0009" lon="-0.7572">
        <ele>1259.61</ele>
        <time>2024-05-30T23:10:57.708Z</time>
      </trkpt>
      <trkpt lat="43.00103" lon="-0.75734">
        <ele>1262.2</ele>
        <time>2024-05-30T23:11:08.133Z</time>
      </trkpt>
      <trkpt lat="43.00118" lon="-0.75746">
        <ele>1264.83</ele>
        <time>2024-05-30T23:11:18.561Z</time>
      </trkpt>
      <trkpt lat="43.00145" lon="-0.75808">
        <ele>1267.31</ele>
        <time>2024-05-30T23:11:29.000Z</time>
      </trkpt>
      <trkpt lat="43.00166" lon="-0.7584">
        <ele>1269.98</ele>
        <time>2024-05-30T23:11:39.445Z</time>
      </trkpt>
      <trkpt lat="43.00168" lon="-0.75847">
        <ele>1272.3</ele>
        <time>2024-05-30T23:11:49.891Z</time>
      </trkpt>
      <trkpt lat="43.00167" lon="-0.75874">
        <ele>1274.35</ele>
        <time>2024-05-30T23:12:00.341Z</time>
      </trkpt>
      <trkpt lat="43.00172" lon="-0.75915">
        <ele>1276.53</ele>
        <time>2024-05-30T23:12:10.798Z</time>
      </trkpt>
      <trkpt lat="43.0018" lon="-0.75949">
        <ele>1278.61</ele>
        <time>2024-05-30T23:12:21.260Z</time>
      </trkpt>
      <trkpt lat="43.0019" lon="-0.75967">
        <ele>1280.6</ele>
        <time>2024-05-30T23:12:31.725Z</time>
      </trkpt>
      <trkpt lat="43.00201" lon="-0.75976">
        <ele>1282.58</ele>
        <time>2024-05-30T23:12:42.193Z</time>
      </trkpt>
      <trkpt lat="43.00209" lon="-0.75979">
        <ele>1284.55</ele>
        <time>2024-05-30T23:12:52.662Z</time>
      </trkpt>
      <trkpt lat="43.0022" lon="-0.7598">
        <ele>1286.53</ele>
        <time>2024-05-30T23:13:03.134Z</time>
      </trkpt>
      <trkpt lat="43.00278" lon="-0.75979">
        <ele>1289.19</ele>
        <time>2024-05-30T23:13:13.617Z</time>
      </trkpt>
      <trkpt lat="43.00285" lon="-0.75983">
        <ele>1290.99</ele>
        <time>2024-05-30T23:13:24.102Z</time>
      </trkpt>
      <trkpt lat="43.00288" lon="-0.75988">
        <ele>1292.64</ele>
        <time>2024-05-30T23:13:34.588Z</time>
      </trkpt>
      <trkpt lat="43.0029" lon="-0.75998">
        <ele>1294.14</ele>
        <time>2024-05-30T23:13:45.075Z</time>
      </trkpt>
      <trkpt lat="43.0029" lon="-0.76036">
        <ele>1295.42</ele>
        <time>2024-05-30T23:13:55.568Z</time>
      </trkpt>
      <trkpt lat="43.00292" lon="-0.76051">
        <ele>1296.73</ele>
        <time>2024-05-30T23:14:06.063Z</time>
      </trkpt>
      <trkpt lat="43.00296" lon="-0.76068">
        <ele>1298.01</ele>
        <time>2024-05-30T23:14:16.561Z</time>
      </trkpt>
      <trkpt lat="43.00309" lon="-0.76094">
        <ele>1299.48</ele>
        <time>2024-05-30T23:14:27.063Z</time>
      </trkpt>
      <trkpt lat="43.00311" lon="-0.76101">
        <ele>1300.62</ele>
        <time>2024-05-30T23:14:37.566Z</time>
      </trkpt>
      <trkpt lat="43.00311" lon="-0.7611">
        <ele>1301.64</ele>
        <time>2024-05-30T23:14:48.071Z</time>
      </trkpt>
      <trkpt lat="43.00308" lon="-0.76121">
        <ele>1302.52</ele>
        <time>2024-05-30T23:14:58.577Z</time>
      </trkpt>
      <trkpt lat="43.00284" lon="-0.76173">
        <ele>1303.24</ele>
        <time>2024-05-30T23:15:09.092Z</time>
      </trkpt>
      <trkpt lat="43.0028" lon="-0.76185">
        <ele>1304.04</ele>
        <time>2024-05-30T23:15:19.609Z</time>
      </trkpt>
      <trkpt lat="43.00275" lon="-0.76217">
        <ele>1304.81</ele>
        <time>2024-05-30T23:15:30.131Z</time>
      </trkpt>
      <trkpt lat="43.00276" lon="-0.76246">
        <ele>1305.59</ele>
        <time>2024-05-30T23:15:40.657Z</time>
      </trkpt>
      <trkpt lat="43.00286" lon="-0.76317">
        <ele>1306.31</ele>
        <time>2024-05-30T23:15:51.194Z</time>
      </trkpt>
      <trkpt lat="43.00286" lon="-0.76337">
        <ele>1306.85</ele>
        <time>2024-05-30T23:16:01.734Z</time>
      </trkpt>
      <trkpt lat="43.00277" lon="-0.76365">
        <ele>1307.14</ele>
        <time>2024-05-30T23:16:12.278Z</time>
      </trkpt>
      <trkpt lat="43.00275" lon="-0.76375">
        <ele>1307.6</ele>
        <time>2024-05-30T23:16:22.824Z</time>
      </trkpt>
      <trkpt lat="43.00275" lon="-0.7639">
        <ele>1308.06</ele>
        <time>2024-05-30T23:16:33.372Z</time>
      </trkpt>
      <trkpt lat="43.00281" lon="-0.76409">
        <ele>1308.53</ele>
        <time>2024-05-30T23:16:43.923Z</time>
      </trkpt>
      <trkpt lat="43.00288" lon="-0.76419">
        <ele>1309.04</ele>
        <time>2024-05-30T23:16:54.476Z</time>
      </trkpt>
      <trkpt lat="43.00294" lon="-0.76422">
        <ele>1309.55</ele>
        <time>2024-05-30T23:17:05.030Z</time>
      </trkpt>
      <trkpt lat="43.003" lon="-0.76422">
        <ele>1310.04</ele>
        <time>2024-05-30T23:17:15.586Z</time>
      </trkpt>
      <trkpt lat="43.00307" lon="-0.76418">
        <ele>1310.56</ele>
        <time>2024-05-30T23:17:26.143Z</time>
      </trkpt>
      <trkpt lat="43.00332" lon="-0.76387">
        <ele>1311.27</ele>
        <time>2024-05-30T23:17:36.707Z</time>
      </trkpt>
      <trkpt lat="43.00367" lon="-0.76362">
        <ele>1311.87</ele>
        <time>2024-05-30T23:17:47.279Z</time>
      </trkpt>
      <trkpt lat="43.00399" lon="-0.76343">
        <ele>1312.43</ele>
        <time>2024-05-30T23:17:57.858Z</time>
      </trkpt>
      <trkpt lat="43.00421" lon="-0.76335">
        <ele>1312.99</ele>
        <time>2024-05-30T23:18:08.441Z</time>
      </trkpt>
      <trkpt lat="43.0043" lon="-0.76331">
        <ele>1313.52</ele>
        <time>2024-05-30T23:18:19.026Z</time>
      </trkpt>
      <trkpt lat="43.00442" lon="-0.76333">
        <ele>1313.95</ele>
        <time>2024-05-30T23:18:29.614Z</time>
      </trkpt>
      <trkpt lat="43.00466" lon="-0.76341">
        <ele>1314.36</ele>
        <time>2024-05-30T23:18:40.207Z</time>
      </trkpt>
      <trkpt lat="43.00503" lon="-0.76349">
        <ele>1314.68</ele>
        <time>2024-05-30T23:18:50.807Z</time>
      </trkpt>
      <trkpt lat="43.00512" lon="-0.76347">
        <ele>1315.19</ele>
        <time>2024-05-30T23:19:01.409Z</time>
      </trkpt>
      <trkpt lat="43.00525" lon="-0.7634">
        <ele>1315.73</ele>
        <time>2024-05-30T23:19:12.014Z</time>
      </trkpt>
      <trkpt lat="43.00532" lon="-0.76332">
        <ele>1316.31</ele>
        <time>2024-05-30T23:19:22.621Z</time>
      </trkpt>
      <trkpt lat="43.00556" lon="-0.7628">
        <ele>1317.18</ele>
        <time>2024-05-30T23:19:33.237Z</time>
      </trkpt>
      <trkpt lat="43.00587" lon="-0.76226">
        <ele>1317.98</ele>
        <time>2024-05-30T23:19:43.863Z</time>
      </trkpt>
      <trkpt lat="43.00618" lon="-0.76183">
        <ele>1318.11</ele>
        <time>2024-05-30T23:19:54.497Z</time>
      </trkpt>
      <trkpt lat="43.00619" lon="-0.76176">
        <ele>1318.75</ele>
        <time>2024-05-30T23:20:05.132Z</time>
      </trkpt>
      <trkpt lat="43.00622" lon="-0.76159">
        <ele>1319.41</ele>
        <time>2024-05-30T23:20:15.770Z</time>
      </trkpt>
      <trkpt lat="43.00622" lon="-0.76137">
        <ele>1320.22</ele>
        <time>2024-05-30T23:20:26.411Z</time>
      </trkpt>
      <trkpt lat="43.00617" lon="-0.76111">
        <ele>1321.3</ele>
        <time>2024-05-30T23:20:37.056Z</time>
      </trkpt>
      <trkpt lat="43.00617" lon="-0.761">
        <ele>1322.07</ele>
        <time>2024-05-30T23:20:47.703Z</time>
      </trkpt>
      <trkpt lat="43.00619" lon="-0.76077">
        <ele>1322.87</ele>
        <time>2024-05-30T23:20:58.353Z</time>
      </trkpt>
      <trkpt lat="43.0063" lon="-0.76041">
        <ele>1323.54</ele>
        <time>2024-05-30T23:21:09.009Z</time>
      </trkpt>
      <trkpt lat="43.00643" lon="-0.76016">
        <ele>1324.19</ele>
        <time>2024-05-30T23:21:19.669Z</time>
      </trkpt>
      <trkpt lat="43.00656" lon="-0.76005">
        <ele>1324.77</ele>
        <time>2024-05-30T23:21:30.333Z</time>
      </trkpt>
      <trkpt lat="43.00668" lon="-0.76001">
        <ele>1325.4</ele>
        <time>2024-05-30T23:21:40.999Z</time>
      </trkpt>
      <trkpt lat="43.00713" lon="-0.76">
        <ele>1326.02</ele>
        <time>2024-05-30T23:21:51.674Z</time>
      </trkpt>
      <trkpt lat="43.0076" lon="-0.76006">
        <ele>1326.6</ele>
        <time>2024-05-30T23:22:02.358Z</time>
      </trkpt>
      <trkpt lat="43.00777" lon="-0.76012">
        <ele>1327.2</ele>
        <time>2024-05-30T23:22:13.046Z</time>
      </trkpt>
      <trkpt lat="43.00789" lon="-0.76019">
        <ele>1327.84</ele>
        <time>2024-05-30T23:22:23.737Z</time>
      </trkpt>
      <trkpt lat="43.00823" lon="-0.76042">
        <ele>1328.55</ele>
        <time>2024-05-30T23:22:34.435Z</time>
      </trkpt>
      <trkpt lat="43.00841" lon="-0.76056">
        <ele>1329.23</ele>
        <time>2024-05-30T23:22:45.137Z</time>
      </trkpt>
      <trkpt lat="43.00871" lon="-0.7609">
        <ele>1329.97</ele>
        <time>2024-05-30T23:22:55.847Z</time>
      </trkpt>
      <trkpt lat="43.00905" lon="-0.76142">
        <ele>1330.84</ele>
        <time>2024-05-30T23:23:06.567Z</time>
      </trkpt>
      <trkpt lat="43.00923" lon="-0.76175">
        <ele>1331.68</ele>
        <time>2024-05-30T23:23:17.293Z</time>
      </trkpt>
      <trkpt lat="43.0093" lon="-0.76193">
        <ele>1332.55</ele>
        <time>2024-05-30T23:23:28.022Z</time>
      </trkpt>
      <trkpt lat="43.00941" lon="-0.76234">
        <ele>1333.41</ele>
        <time>2024-05-30T23:23:38.758Z</time>
      </trkpt>
      <trkpt lat="43.00956" lon="-0.7627">
        <ele>1334.07</ele>
        <time>2024-05-30T23:23:49.500Z</time>
      </trkpt>
      <trkpt lat="43.00971" lon="-0.76295">
        <ele>1334.7</ele>
        <time>2024-05-30T23:24:00.247Z</time>
      </trkpt>
      <trkpt lat="43.00978" lon="-0.763">
        <ele>1335.54</ele>
        <time>2024-05-30T23:24:10.995Z</time>
      </trkpt>
      <trkpt lat="43.00986" lon="-0.76302">
        <ele>1336.46</ele>
        <time>2024-05-30T23:24:21.745Z</time>
      </trkpt>
      <trkpt lat="43.01013" lon="-0.76302">
        <ele>1337.47</ele>
        <time>2024-05-30T23:24:32.500Z</time>
      </trkpt>
      <trkpt lat="43.01079" lon="-0.7627">
        <ele>1338.55</ele>
        <time>2024-05-30T23:24:43.269Z</time>
      </trkpt>
      <trkpt lat="43.01116" lon="-0.76237">
        <ele>1339.72</ele>
        <time>2024-05-30T23:24:54.047Z</time>
      </trkpt>
      <trkpt lat="43.01126" lon="-0.7623">
        <ele>1340.93</ele>
        <time>2024-05-30T23:25:04.827Z</time>
      </trkpt>
      <trkpt lat="43.01142" lon="-0.76227">
        <ele>1342.19</ele>
        <time>2024-05-30T23:25:15.610Z</time>
      </trkpt>
      <trkpt lat="43.01153" lon="-0.76234">
        <ele>1343.57</ele>
        <time>2024-05-30T23:25:26.396Z</time>
      </trkpt>
      <trkpt lat="43.01157" lon="-0.76242">
        <ele>1345</ele>
        <time>2024-05-30T23:25:37.183Z</time>
      </trkpt>
      <trkpt lat="43.01162" lon="-0.76273">
        <ele>1346.61</ele>
        <time>2024-05-30T23:25:47.975Z</time>
      </trkpt>
      <trkpt lat="43.01189" lon="-0.76399">
        <ele>1348.87</ele>
        <time>2024-05-30T23:25:58.786Z</time>
      </trkpt>
      <trkpt lat="43.01196" lon="-0.76461">
        <ele>1350.41</ele>
        <time>2024-05-30T23:26:09.606Z</time>
      </trkpt>
      <trkpt lat="43.01198" lon="-0.76497">
        <ele>1352.09</ele>
        <time>2024-05-30T23:26:20.432Z</time>
      </trkpt>
      <trkpt lat="43.01204" lon="-0.76522">
        <ele>1353.98</ele>
        <time>2024-05-30T23:26:31.262Z</time>
      </trkpt>
      <trkpt lat="43.01229" lon="-0.76589">
        <ele>1356.19</ele>
        <time>2024-05-30T23:26:42.103Z</time>
      </trkpt>
      <trkpt lat="43.01245" lon="-0.76624">
        <ele>1358.18</ele>
        <time>2024-05-30T23:26:52.950Z</time>
      </trkpt>
      <trkpt lat="43.01268" lon="-0.76664">
        <ele>1360.4</ele>
        <time>2024-05-30T23:27:03.804Z</time>
      </trkpt>
      <trkpt lat="43.01297" lon="-0.76724">
        <ele>1362.51</ele>
        <time>2024-05-30T23:27:14.669Z</time>
      </trkpt>
      <trkpt lat="43.01321" lon="-0.76752">
        <ele>1364.86</ele>
        <time>2024-05-30T23:27:25.540Z</time>
      </trkpt>
      <trkpt lat="43.01338" lon="-0.76777">
        <ele>1367.14</ele>
        <time>2024-05-30T23:27:36.416Z</time>
      </trkpt>
      <trkpt lat="43.01355" lon="-0.76827">
        <ele>1369.48</ele>
        <time>2024-05-30T23:27:47.300Z</time>
      </trkpt>
      <trkpt lat="43.01367" lon="-0.76848">
        <ele>1371.95</ele>
        <time>2024-05-30T23:27:58.188Z</time>
      </trkpt>
      <trkpt lat="43.01386" lon="-0.76868">
        <ele>1374.51</ele>
        <time>2024-05-30T23:28:09.081Z</time>
      </trkpt>
      <trkpt lat="43.01394" lon="-0.76887">
        <ele>1376.9</ele>
        <time>2024-05-30T23:28:19.977Z</time>
      </trkpt>
      <trkpt lat="43.01395" lon="-0.76913">
        <ele>1379.3</ele>
        <time>2024-05-30T23:28:30.877Z</time>
      </trkpt>
      <trkpt lat="43.01388" lon="-0.76964">
        <ele>1381.66</ele>
        <time>2024-05-30T23:28:41.784Z</time>
      </trkpt>
      <trkpt lat="43.01387" lon="-0.76999">
        <ele>1383.99</ele>
        <time>2024-05-30T23:28:52.697Z</time>
      </trkpt>
      <trkpt lat="43.01392" lon="-0.77024">
        <ele>1386.49</ele>
        <time>2024-05-30T23:29:03.613Z</time>
      </trkpt>
      <trkpt lat="43.01395" lon="-0.77031">
        <ele>1388.95</ele>
        <time>2024-05-30T23:29:14.531Z</time>
      </trkpt>
      <trkpt lat="43.01403" lon="-0.77045">
        <ele>1391.5</ele>
        <time>2024-05-30T23:29:25.451Z</time>
      </trkpt>
      <trkpt lat="43.01425" lon="-0.77061">
        <ele>1393.91</ele>
        <time>2024-05-30T23:29:36.376Z</time>
      </trkpt>
      <trkpt lat="43.01438" lon="-0.77076">
        <ele>1396.2</ele>
        <time>2024-05-30T23:29:47.305Z</time>
      </trkpt>
      <trkpt lat="43.01447" lon="-0.77095">
        <ele>1398.52</ele>
        <time>2024-05-30T23:29:58.237Z</time>
      </trkpt>
      <trkpt lat="43.01462" lon="-0.7715">
        <ele>1400.95</ele>
        <time>2024-05-30T23:30:09.178Z</time>
      </trkpt>
      <trkpt lat="43.01485" lon="-0.77244">
        <ele>1403.7</ele>
        <time>2024-05-30T23:30:20.133Z</time>
      </trkpt>
      <trkpt lat="43.01532" lon="-0.77403">
        <ele>1406.84</ele>
        <time>2024-05-30T23:30:31.113Z</time>
      </trkpt>
      <trkpt lat="43.01543" lon="-0.7743">
        <ele>1409.51</ele>
        <time>2024-05-30T23:30:42.098Z</time>
      </trkpt>
      <trkpt lat="43.01555" lon="-0.77453">
        <ele>1412.06</ele>
        <time>2024-05-30T23:30:53.087Z</time>
      </trkpt>
      <trkpt lat="43.01615" lon="-0.77542">
        <ele>1414.69</ele>
        <time>2024-05-30T23:31:04.094Z</time>
      </trkpt>
      <trkpt lat="43.01632" lon="-0.77575">
        <ele>1417.11</ele>
        <time>2024-05-30T23:31:15.107Z</time>
      </trkpt>
      <trkpt lat="43.01643" lon="-0.77611">
        <ele>1419.41</ele>
        <time>2024-05-30T23:31:26.125Z</time>
      </trkpt>
      <trkpt lat="43.01648" lon="-0.77641">
        <ele>1421.69</ele>
        <time>2024-05-30T23:31:37.148Z</time>
      </trkpt>
      <trkpt lat="43.01648" lon="-0.77685">
        <ele>1423.98</ele>
        <time>2024-05-30T23:31:48.177Z</time>
      </trkpt>
      <trkpt lat="43.01636" lon="-0.7776">
        <ele>1426.24</ele>
        <time>2024-05-30T23:31:59.217Z</time>
      </trkpt>
      <trkpt lat="43.01632" lon="-0.77795">
        <ele>1428.46</ele>
        <time>2024-05-30T23:32:10.263Z</time>
      </trkpt>
      <trkpt lat="43.01641" lon="-0.77941">
        <ele>1430.4</ele>
        <time>2024-05-30T23:32:21.330Z</time>
      </trkpt>
      <trkpt lat="43.0164" lon="-0.77977">
        <ele>1432.36</ele>
        <time>2024-05-30T23:32:32.402Z</time>
      </trkpt>
      <trkpt lat="43.01635" lon="-0.78005">
        <ele>1434.17</ele>
        <time>2024-05-30T23:32:43.479Z</time>
      </trkpt>
      <trkpt lat="43.0161" lon="-0.78105">
        <ele>1436.11</ele>
        <time>2024-05-30T23:32:54.571Z</time>
      </trkpt>
      <trkpt lat="43.01608" lon="-0.78124">
        <ele>1437.77</ele>
        <time>2024-05-30T23:33:05.666Z</time>
      </trkpt>
      <trkpt lat="43.01611" lon="-0.78242">
        <ele>1439.34</ele>
        <time>2024-05-30T23:33:16.778Z</time>
      </trkpt>
      <trkpt lat="43.01624" lon="-0.78347">
        <ele>1440.95</ele>
        <time>2024-05-30T23:33:27.906Z</time>
      </trkpt>
      <trkpt lat="43.01625" lon="-0.78372">
        <ele>1442.35</ele>
        <time>2024-05-30T23:33:39.038Z</time>
      </trkpt>
      <trkpt lat="43.01614" lon="-0.78429">
        <ele>1443.46</ele>
        <time>2024-05-30T23:33:50.178Z</time>
      </trkpt>
      <trkpt lat="43.0161" lon="-0.7847">
        <ele>1444.35</ele>
        <time>2024-05-30T23:34:01.324Z</time>
      </trkpt>
      <trkpt lat="43.01604" lon="-0.78518">
        <ele>1445.2</ele>
        <time>2024-05-30T23:34:12.477Z</time>
      </trkpt>
      <trkpt lat="43.01589" lon="-0.78567">
        <ele>1445.99</ele>
        <time>2024-05-30T23:34:23.638Z</time>
      </trkpt>
      <trkpt lat="43.01547" lon="-0.78669">
        <ele>1447.09</ele>
        <time>2024-05-30T23:34:34.816Z</time>
      </trkpt>
      <trkpt lat="43.01543" lon="-0.78689">
        <ele>1447.64</ele>
        <time>2024-05-30T23:34:45.997Z</time>
      </trkpt>
      <trkpt lat="43.0154" lon="-0.78713">
        <ele>1448.07</ele>
        <time>2024-05-30T23:34:57.182Z</time>
      </trkpt>
      <trkpt lat="43.01541" lon="-0.78763">
        <ele>1448.26</ele>
        <time>2024-05-30T23:35:08.374Z</time>
      </trkpt>
      <trkpt lat="43.01547" lon="-0.78793">
        <ele>1448.27</ele>
        <time>2024-05-30T23:35:19.571Z</time>
      </trkpt>
      <trkpt lat="43.01569" lon="-0.78838">
        <ele>1447.76</ele>
        <time>2024-05-30T23:35:30.776Z</time>
      </trkpt>
      <trkpt lat="43.01577" lon="-0.78858">
        <ele>1447.4</ele>
        <time>2024-05-30T23:35:41.984Z</time>
      </trkpt>
      <trkpt lat="43.01579" lon="-0.78877">
        <ele>1447.02</ele>
        <time>2024-05-30T23:35:53.195Z</time>
      </trkpt>
      <trkpt lat="43.01579" lon="-0.78894">
        <ele>1446.55</ele>
        <time>2024-05-30T23:36:04.409Z</time>
      </trkpt>
      <trkpt lat="43.0156" lon="-0.78949">
        <ele>1445.94</ele>
        <time>2024-05-30T23:36:15.631Z</time>
      </trkpt>
      <trkpt lat="43.01556" lon="-0.7897">
        <ele>1445.19</ele>
        <time>2024-05-30T23:36:26.857Z</time>
      </trkpt>
      <trkpt lat="43.01553" lon="-0.79101">
        <ele>1443.95</ele>
        <time>2024-05-30T23:36:38.102Z</time>
      </trkpt>
      <trkpt lat="43.01553" lon="-0.79136">
        <ele>1442.93</ele>
        <time>2024-05-30T23:36:49.352Z</time>
      </trkpt>
      <trkpt lat="43.01557" lon="-0.79164">
        <ele>1441.81</ele>
        <time>2024-05-30T23:37:00.606Z</time>
      </trkpt>
      <trkpt lat="43.01571" lon="-0.79223">
        <ele>1440.67</ele>
        <time>2024-05-30T23:37:11.869Z</time>
      </trkpt>
      <trkpt lat="43.01572" lon="-0.79241">
        <ele>1439.5</ele>
        <time>2024-05-30T23:37:23.135Z</time>
      </trkpt>
      <trkpt lat="43.01569" lon="-0.79257">
        <ele>1438.34</ele>
        <time>2024-05-30T23:37:34.403Z</time>
      </trkpt>
      <trkpt lat="43.01571" lon="-0.79278">
        <ele>1437.04</ele>
        <time>2024-05-30T23:37:45.674Z</time>
      </trkpt>
      <trkpt lat="43.01582" lon="-0.79308">
        <ele>1435.68</ele>
        <time>2024-05-30T23:37:56.950Z</time>
      </trkpt>
      <trkpt lat="43.01589" lon="-0.79322">
        <ele>1434.22</ele>
        <time>2024-05-30T23:38:08.229Z</time>
      </trkpt>
      <trkpt lat="43.01596" lon="-0.7933">
        <ele>1432.77</ele>
        <time>2024-05-30T23:38:19.510Z</time>
      </trkpt>
      <trkpt lat="43.01627" lon="-0.79357">
        <ele>1431.07</ele>
        <time>2024-05-30T23:38:30.798Z</time>
      </trkpt>
      <trkpt lat="43.01658" lon="-0.7939">
        <ele>1429.02</ele>
        <time>2024-05-30T23:38:42.094Z</time>
      </trkpt>
      <trkpt lat="43.01666" lon="-0.79413">
        <ele>1427.52</ele>
        <time>2024-05-30T23:38:53.394Z</time>
      </trkpt>
      <trkpt lat="43.01706" lon="-0.79487">
        <ele>1425.79</ele>
        <time>2024-05-30T23:39:04.707Z</time>
      </trkpt>
      <trkpt lat="43.01724" lon="-0.79526">
        <ele>1424.31</ele>
        <time>2024-05-30T23:39:16.027Z</time>
      </trkpt>
      <trkpt lat="43.01749" lon="-0.79552">
        <ele>1422.62</ele>
        <time>2024-05-30T23:39:27.353Z</time>
      </trkpt>
      <trkpt lat="43.01752" lon="-0.79557">
        <ele>1420.97</ele>
        <time>2024-05-30T23:39:38.680Z</time>
      </trkpt>
      <trkpt lat="43.01756" lon="-0.79589">
        <ele>1419.36</ele>
        <time>2024-05-30T23:39:50.012Z</time>
      </trkpt>
      <trkpt lat="43.01762" lon="-0.796">
        <ele>1417.58</ele>
        <time>2024-05-30T23:40:01.346Z</time>
      </trkpt>
      <trkpt lat="43.01781" lon="-0.79626">
        <ele>1415.75</ele>
        <time>2024-05-30T23:40:12.685Z</time>
      </trkpt>
      <trkpt lat="43.01787" lon="-0.79627">
        <ele>1413.95</ele>
        <time>2024-05-30T23:40:24.026Z</time>
      </trkpt>
      <trkpt lat="43.01794" lon="-0.79622">
        <ele>1412.11</ele>
        <time>2024-05-30T23:40:35.368Z</time>
      </trkpt>
      <trkpt lat="43.01797" lon="-0.79615">
        <ele>1410.28</ele>
        <time>2024-05-30T23:40:46.711Z</time>
      </trkpt>
      <trkpt lat="43.01801" lon="-0.79592">
        <ele>1408.38</ele>
        <time>2024-05-30T23:40:58.058Z</time>
      </trkpt>
      <trkpt lat="43.01806" lon="-0.79581">
        <ele>1406.42</ele>
        <time>2024-05-30T23:41:09.407Z</time>
      </trkpt>
      <trkpt lat="43.01813" lon="-0.79573">
        <ele>1404.47</ele>
        <time>2024-05-30T23:41:20.757Z</time>
      </trkpt>
      <trkpt lat="43.01826" lon="-0.79566">
        <ele>1402.48</ele>
        <time>2024-05-30T23:41:32.110Z</time>
      </trkpt>
      <trkpt lat="43.01836" lon="-0.79564">
        <ele>1400.54</ele>
        <time>2024-05-30T23:41:43.465Z</time>
      </trkpt>
      <trkpt lat="43.01908" lon="-0.79584">
        <ele>1398.29</ele>
        <time>2024-05-30T23:41:54.835Z</time>
      </trkpt>
      <trkpt lat="43.01914" lon="-0.79589">
        <ele>1396.45</ele>
        <time>2024-05-30T23:42:06.206Z</time>
      </trkpt>
      <trkpt lat="43.01945" lon="-0.79629">
        <ele>1394.74</ele>
        <time>2024-05-30T23:42:17.586Z</time>
      </trkpt>
      <trkpt lat="43.01954" lon="-0.79637">
        <ele>1392.9</ele>
        <time>2024-05-30T23:42:28.968Z</time>
      </trkpt>
      <trkpt lat="43.01964" lon="-0.7964">
        <ele>1391.02</ele>
        <time>2024-05-30T23:42:40.352Z</time>
      </trkpt>
      <trkpt lat="43.02008" lon="-0.79633">
        <ele>1388.79</ele>
        <time>2024-05-30T23:42:51.745Z</time>
      </trkpt>
      <trkpt lat="43.02018" lon="-0.79637">
        <ele>1386.94</ele>
        <time>2024-05-30T23:43:03.140Z</time>
      </trkpt>
      <trkpt lat="43.02024" lon="-0.79645">
        <ele>1385.18</ele>
        <time>2024-05-30T23:43:14.537Z</time>
      </trkpt>
      <trkpt lat="43.02032" lon="-0.79664">
        <ele>1383.58</ele>
        <time>2024-05-30T23:43:25.937Z</time>
      </trkpt>
      <trkpt lat="43.02036" lon="-0.79671">
        <ele>1381.86</ele>
        <time>2024-05-30T23:43:37.338Z</time>
      </trkpt>
      <trkpt lat="43.02049" lon="-0.79674">
        <ele>1379.98</ele>
        <time>2024-05-30T23:43:48.742Z</time>
      </trkpt>
      <trkpt lat="43.02063" lon="-0.79673">
        <ele>1378.05</ele>
        <time>2024-05-30T23:44:00.149Z</time>
      </trkpt>
      <trkpt lat="43.02073" lon="-0.79675">
        <ele>1376.18</ele>
        <time>2024-05-30T23:44:11.558Z</time>
      </trkpt>
      <trkpt lat="43.0208" lon="-0.79679">
        <ele>1374.36</ele>
        <time>2024-05-30T23:44:22.968Z</time>
      </trkpt>
      <trkpt lat="43.02114" lon="-0.79717">
        <ele>1372.4</ele>
        <time>2024-05-30T23:44:34.387Z</time>
      </trkpt>
      <trkpt lat="43.02131" lon="-0.79742">
        <ele>1370.51</ele>
        <time>2024-05-30T23:44:45.811Z</time>
      </trkpt>
      <trkpt lat="43.02148" lon="-0.79794">
        <ele>1368.68</ele>
        <time>2024-05-30T23:44:57.243Z</time>
      </trkpt>
      <trkpt lat="43.02151" lon="-0.7981">
        <ele>1366.98</ele>
        <time>2024-05-30T23:45:08.678Z</time>
      </trkpt>
      <trkpt lat="43.02157" lon="-0.79823">
        <ele>1365.25</ele>
        <time>2024-05-30T23:45:20.115Z</time>
      </trkpt>
      <trkpt lat="43.02176" lon="-0.7984">
        <ele>1363.39</ele>
        <time>2024-05-30T23:45:31.557Z</time>
      </trkpt>
      <trkpt lat="43.02183" lon="-0.79851">
        <ele>1361.72</ele>
        <time>2024-05-30T23:45:43.001Z</time>
      </trkpt>
      <trkpt lat="43.02196" lon="-0.79884">
        <ele>1360.3</ele>
        <time>2024-05-30T23:45:54.450Z</time>
      </trkpt>
      <trkpt lat="43.02205" lon="-0.79892">
        <ele>1358.66</ele>
        <time>2024-05-30T23:46:05.901Z</time>
      </trkpt>
      <trkpt lat="43.02225" lon="-0.79891">
        <ele>1356.78</ele>
        <time>2024-05-30T23:46:17.356Z</time>
      </trkpt>
      <trkpt lat="43.0227" lon="-0.79905">
        <ele>1355.03</ele>
        <time>2024-05-30T23:46:28.821Z</time>
      </trkpt>
      <trkpt lat="43.02308" lon="-0.79905">
        <ele>1353.09</ele>
        <time>2024-05-30T23:46:40.293Z</time>
      </trkpt>
      <trkpt lat="43.0233" lon="-0.79911">
        <ele>1351.39</ele>
        <time>2024-05-30T23:46:51.770Z</time>
      </trkpt>
      <trkpt lat="43.0235" lon="-0.79905">
        <ele>1349.55</ele>
        <time>2024-05-30T23:47:03.251Z</time>
      </trkpt>
      <trkpt lat="43.02395" lon="-0.79884">
        <ele>1347.64</ele>
        <time>2024-05-30T23:47:14.741Z</time>
      </trkpt>
      <trkpt lat="43.02411" lon="-0.79872">
        <ele>1345.88</ele>
        <time>2024-05-30T23:47:26.235Z</time>
      </trkpt>
      <trkpt lat="43.02427" lon="-0.79852">
        <ele>1344.22</ele>
        <time>2024-05-30T23:47:37.733Z</time>
      </trkpt>
      <trkpt lat="43.02436" lon="-0.79833">
        <ele>1342.52</ele>
        <time>2024-05-30T23:47:49.235Z</time>
      </trkpt>
      <trkpt lat="43.02446" lon="-0.79798">
        <ele>1340.69</ele>
        <time>2024-05-30T23:48:00.742Z</time>
      </trkpt>
      <trkpt lat="43.02454" lon="-0.79782">
        <ele>1338.93</ele>
        <time>2024-05-30T23:48:12.252Z</time>
      </trkpt>
      <trkpt lat="43.02459" lon="-0.79776">
        <ele>1337.32</ele>
        <time>2024-05-30T23:48:23.763Z</time>
      </trkpt>
      <trkpt lat="43.02467" lon="-0.79773">
        <ele>1335.73</ele>
        <time>2024-05-30T23:48:35.276Z</time>
      </trkpt>
      <trkpt lat="43.02478" lon="-0.79777">
        <ele>1334.21</ele>
        <time>2024-05-30T23:48:46.791Z</time>
      </trkpt>
      <trkpt lat="43.02488" lon="-0.79788">
        <ele>1332.77</ele>
        <time>2024-05-30T23:48:58.309Z</time>
      </trkpt>
      <trkpt lat="43.02493" lon="-0.79801">
        <ele>1331.34</ele>
        <time>2024-05-30T23:49:09.829Z</time>
      </trkpt>
      <trkpt lat="43.02496" lon="-0.79814">
        <ele>1329.96</ele>
        <time>2024-05-30T23:49:21.351Z</time>
      </trkpt>
      <trkpt lat="43.02491" lon="-0.79857">
        <ele>1328.68</ele>
        <time>2024-05-30T23:49:32.879Z</time>
      </trkpt>
      <trkpt lat="43.02496" lon="-0.79905">
        <ele>1327.07</ele>
        <time>2024-05-30T23:49:44.414Z</time>
      </trkpt>
      <trkpt lat="43.02492" lon="-0.79964">
        <ele>1325.48</ele>
        <time>2024-05-30T23:49:55.958Z</time>
      </trkpt>
      <trkpt lat="43.0249" lon="-0.79974">
        <ele>1324.13</ele>
        <time>2024-05-30T23:50:07.504Z</time>
      </trkpt>
      <trkpt lat="43.0248" lon="-0.80003">
        <ele>1322.96</ele>
        <time>2024-05-30T23:50:19.054Z</time>
      </trkpt>
      <trkpt lat="43.02479" lon="-0.80017">
        <ele>1321.59</ele>
        <time>2024-05-30T23:50:30.606Z</time>
      </trkpt>
      <trkpt lat="43.02486" lon="-0.80095">
        <ele>1319.87</ele>
        <time>2024-05-30T23:50:42.170Z</time>
      </trkpt>
      <trkpt lat="43.02497" lon="-0.80133">
        <ele>1318.51</ele>
        <time>2024-05-30T23:50:53.740Z</time>
      </trkpt>
      <trkpt lat="43.02501" lon="-0.8016">
        <ele>1317.16</ele>
        <time>2024-05-30T23:51:05.314Z</time>
      </trkpt>
      <trkpt lat="43.02501" lon="-0.80181">
        <ele>1315.81</ele>
        <time>2024-05-30T23:51:16.891Z</time>
      </trkpt>
      <trkpt lat="43.02491" lon="-0.80246">
        <ele>1314.27</ele>
        <time>2024-05-30T23:51:28.478Z</time>
      </trkpt>
      <trkpt lat="43.0248" lon="-0.80289">
        <ele>1312.66</ele>
        <time>2024-05-30T23:51:40.072Z</time>
      </trkpt>
      <trkpt lat="43.02475" lon="-0.80305">
        <ele>1311.39</ele>
        <time>2024-05-30T23:51:51.668Z</time>
      </trkpt>
      <trkpt lat="43.02456" lon="-0.80338">
        <ele>1310.36</ele>
        <time>2024-05-30T23:52:03.270Z</time>
      </trkpt>
      <trkpt lat="43.02453" lon="-0.8035">
        <ele>1308.89</ele>
        <time>2024-05-30T23:52:14.874Z</time>
      </trkpt>
      <trkpt lat="43.02453" lon="-0.80358">
        <ele>1307.34</ele>
        <time>2024-05-30T23:52:26.479Z</time>
      </trkpt>
      <trkpt lat="43.02455" lon="-0.80362">
        <ele>1305.75</ele>
        <time>2024-05-30T23:52:38.085Z</time>
      </trkpt>
      <trkpt lat="43.02459" lon="-0.80365">
        <ele>1304.1</ele>
        <time>2024-05-30T23:52:49.692Z</time>
      </trkpt>
      <trkpt lat="43.02464" lon="-0.80363">
        <ele>1302.43</ele>
        <time>2024-05-30T23:53:01.300Z</time>
      </trkpt>
      <trkpt lat="43.02483" lon="-0.80331">
        <ele>1300.65</ele>
        <time>2024-05-30T23:53:12.914Z</time>
      </trkpt>
      <trkpt lat="43.02496" lon="-0.80301">
        <ele>1298.9</ele>
        <time>2024-05-30T23:53:24.533Z</time>
      </trkpt>
      <trkpt lat="43.02515" lon="-0.80251">
        <ele>1297.28</ele>
        <time>2024-05-30T23:53:36.160Z</time>
      </trkpt>
      <trkpt lat="43.02521" lon="-0.8024">
        <ele>1295.55</ele>
        <time>2024-05-30T23:53:47.789Z</time>
      </trkpt>
      <trkpt lat="43.02534" lon="-0.80222">
        <ele>1293.71</ele>
        <time>2024-05-30T23:53:59.422Z</time>
      </trkpt>
      <trkpt lat="43.02573" lon="-0.80192">
        <ele>1291.61</ele>
        <time>2024-05-30T23:54:11.064Z</time>
      </trkpt>
      <trkpt lat="43.02592" lon="-0.80165">
        <ele>1289.49</ele>
        <time>2024-05-30T23:54:22.712Z</time>
      </trkpt>
      <trkpt lat="43.02613" lon="-0.80126">
        <ele>1287.3</ele>
        <time>2024-05-30T23:54:34.367Z</time>
      </trkpt>
      <trkpt lat="43.02619" lon="-0.80104">
        <ele>1285.15</ele>
        <time>2024-05-30T23:54:46.025Z</time>
      </trkpt>
      <trkpt lat="43.02621" lon="-0.80088">
        <ele>1283</ele>
        <time>2024-05-30T23:54:57.685Z</time>
      </trkpt>
      <trkpt lat="43.0262" lon="-0.80067">
        <ele>1280.8</ele>
        <time>2024-05-30T23:55:09.349Z</time>
      </trkpt>
      <trkpt lat="43.02617" lon="-0.80054">
        <ele>1278.55</ele>
        <time>2024-05-30T23:55:21.015Z</time>
      </trkpt>
      <trkpt lat="43.02612" lon="-0.80039">
        <ele>1276.25</ele>
        <time>2024-05-30T23:55:32.683Z</time>
      </trkpt>
      <trkpt lat="43.02604" lon="-0.80027">
        <ele>1273.99</ele>
        <time>2024-05-30T23:55:44.353Z</time>
      </trkpt>
      <trkpt lat="43.02588" lon="-0.80015">
        <ele>1271.79</ele>
        <time>2024-05-30T23:55:56.027Z</time>
      </trkpt>
      <trkpt lat="43.02584" lon="-0.80007">
        <ele>1269.47</ele>
        <time>2024-05-30T23:56:07.702Z</time>
      </trkpt>
      <trkpt lat="43.02581" lon="-0.79997">
        <ele>1267.05</ele>
        <time>2024-05-30T23:56:19.379Z</time>
      </trkpt>
      <trkpt lat="43.02584" lon="-0.79969">
        <ele>1264.62</ele>
        <time>2024-05-30T23:56:31.060Z</time>
      </trkpt>
      <trkpt lat="43.02591" lon="-0.7995">
        <ele>1261.98</ele>
        <time>2024-05-30T23:56:42.744Z</time>
      </trkpt>
      <trkpt lat="43.026" lon="-0.79938">
        <ele>1259.21</ele>
        <time>2024-05-30T23:56:54.431Z</time>
      </trkpt>
      <trkpt lat="43.02647" lon="-0.79891">
        <ele>1256.08</ele>
        <time>2024-05-30T23:57:06.129Z</time>
      </trkpt>
      <trkpt lat="43.02655" lon="-0.79875">
        <ele>1253.32</ele>
        <time>2024-05-30T23:57:17.830Z</time>
      </trkpt>
      <trkpt lat="43.02668" lon="-0.79831">
        <ele>1250.54</ele>
        <time>2024-05-30T23:57:29.538Z</time>
      </trkpt>
      <trkpt lat="43.02685" lon="-0.79795">
        <ele>1247.4</ele>
        <time>2024-05-30T23:57:41.252Z</time>
      </trkpt>
      <trkpt lat="43.02692" lon="-0.79763">
        <ele>1244.41</ele>
        <time>2024-05-30T23:57:52.971Z</time>
      </trkpt>
      <trkpt lat="43.02699" lon="-0.7974">
        <ele>1241.46</ele>
        <time>2024-05-30T23:58:04.694Z</time>
      </trkpt>
      <trkpt lat="43.02749" lon="-0.79635">
        <ele>1238.14</ele>
        <time>2024-05-30T23:58:16.435Z</time>
      </trkpt>
      <trkpt lat="43.02753" lon="-0.79616">
        <ele>1235.26</ele>
        <time>2024-05-30T23:58:28.179Z</time>
      </trkpt>
      <trkpt lat="43.0275" lon="-0.79604">
        <ele>1232.43</ele>
        <time>2024-05-30T23:58:39.925Z</time>
      </trkpt>
      <trkpt lat="43.02746" lon="-0.79594">
        <ele>1229.58</ele>
        <time>2024-05-30T23:58:51.673Z</time>
      </trkpt>
      <trkpt lat="43.02737" lon="-0.79587">
        <ele>1226.76</ele>
        <time>2024-05-30T23:59:03.423Z</time>
      </trkpt>
      <trkpt lat="43.02717" lon="-0.79584">
        <ele>1224.03</ele>
        <time>2024-05-30T23:59:15.177Z</time>
      </trkpt>
      <trkpt lat="43.02665" lon="-0.79584">
        <ele>1221.49</ele>
        <time>2024-05-30T23:59:26.941Z</time>
      </trkpt>
      <trkpt lat="43.02661" lon="-0.79582">
        <ele>1218.72</ele>
        <time>2024-05-30T23:59:38.706Z</time>
      </trkpt>
      <trkpt lat="43.02658" lon="-0.79577">
        <ele>1215.92</ele>
        <time>2024-05-30T23:59:50.472Z</time>
      </trkpt>
      <trkpt lat="43.02657" lon="-0.79573">
        <ele>1213.11</ele>
        <time>2024-05-31T00:00:02.239Z</time>
      </trkpt>
      <trkpt lat="43.02658" lon="-0.79568">
        <ele>1210.27</ele>
        <time>2024-05-31T00:00:14.007Z</time>
      </trkpt>
      <trkpt lat="43.02662" lon="-0.79565">
        <ele>1207.42</ele>
        <time>2024-05-31T00:00:25.775Z</time>
      </trkpt>
      <trkpt lat="43.0269" lon="-0.79568">
        <ele>1204.51</ele>
        <time>2024-05-31T00:00:37.549Z</time>
      </trkpt>
      <trkpt lat="43.02733" lon="-0.79557">
        <ele>1201.48</ele>
        <time>2024-05-31T00:00:49.332Z</time>
      </trkpt>
      <trkpt lat="43.02775" lon="-0.79544">
        <ele>1198.51</ele>
        <time>2024-05-31T00:01:01.123Z</time>
      </trkpt>
      <trkpt lat="43.02804" lon="-0.79543">
        <ele>1195.73</ele>
        <time>2024-05-31T00:01:12.920Z</time>
      </trkpt>
      <trkpt lat="43.02818" lon="-0.79535">
        <ele>1192.93</ele>
        <time>2024-05-31T00:01:24.720Z</time>
      </trkpt>
      <trkpt lat="43.02877" lon="-0.79487">
        <ele>1189.8</ele>
        <time>2024-05-31T00:01:36.534Z</time>
      </trkpt>
      <trkpt lat="43.02911" lon="-0.79466">
        <ele>1186.68</ele>
        <time>2024-05-31T00:01:48.355Z</time>
      </trkpt>
      <trkpt lat="43.02971" lon="-0.79447">
        <ele>1183.57</ele>
        <time>2024-05-31T00:02:00.189Z</time>
      </trkpt>
      <trkpt lat="43.03" lon="-0.79435">
        <ele>1180.71</ele>
        <time>2024-05-31T00:02:12.029Z</time>
      </trkpt>
      <trkpt lat="43.03022" lon="-0.79428">
        <ele>1177.9</ele>
        <time>2024-05-31T00:02:23.873Z</time>
      </trkpt>
      <trkpt lat="43.03046" lon="-0.79426">
        <ele>1175.07</ele>
        <time>2024-05-31T00:02:35.722Z</time>
      </trkpt>
      <trkpt lat="43.03093" lon="-0.79456">
        <ele>1172.49</ele>
        <time>2024-05-31T00:02:47.582Z</time>
      </trkpt>
      <trkpt lat="43.03169" lon="-0.79486">
        <ele>1169.17</ele>
        <time>2024-05-31T00:02:59.457Z</time>
      </trkpt>
      <trkpt lat="43.03185" lon="-0.795">
        <ele>1166.51</ele>
        <time>2024-05-31T00:03:11.336Z</time>
      </trkpt>
      <trkpt lat="43.03188" lon="-0.79512">
        <ele>1164.02</ele>
        <time>2024-05-31T00:03:23.217Z</time>
      </trkpt>
      <trkpt lat="43.03189" lon="-0.79526">
        <ele>1161.53</ele>
        <time>2024-05-31T00:03:35.100Z</time>
      </trkpt>
      <trkpt lat="43.03187" lon="-0.79548">
        <ele>1159.09</ele>
        <time>2024-05-31T00:03:46.986Z</time>
      </trkpt>
      <trkpt lat="43.03172" lon="-0.79618">
        <ele>1156.41</ele>
        <time>2024-05-31T00:03:58.883Z</time>
      </trkpt>
      <trkpt lat="43.03165" lon="-0.79643">
        <ele>1153.89</ele>
        <time>2024-05-31T00:04:10.784Z</time>
      </trkpt>
      <trkpt lat="43.03156" lon="-0.79662">
        <ele>1151.56</ele>
        <time>2024-05-31T00:04:22.688Z</time>
      </trkpt>
      <trkpt lat="43.0314" lon="-0.79676">
        <ele>1149.31</ele>
        <time>2024-05-31T00:04:34.596Z</time>
      </trkpt>
      <trkpt lat="43.03121" lon="-0.79679">
        <ele>1147.18</ele>
        <time>2024-05-31T00:04:46.508Z</time>
      </trkpt>
      <trkpt lat="43.03104" lon="-0.79677">
        <ele>1145.1</ele>
        <time>2024-05-31T00:04:58.423Z</time>
      </trkpt>
      <trkpt lat="43.03099" lon="-0.79683">
        <ele>1142.92</ele>
        <time>2024-05-31T00:05:10.340Z</time>
      </trkpt>
      <trkpt lat="43.031" lon="-0.79692">
        <ele>1140.71</ele>
        <time>2024-05-31T00:05:22.258Z</time>
      </trkpt>
      <trkpt lat="43.03103" lon="-0.79695">
        <ele>1138.58</ele>
        <time>2024-05-31T00:05:34.177Z</time>
      </trkpt>
      <trkpt lat="43.03131" lon="-0.79697">
        <ele>1136.41</ele>
        <time>2024-05-31T00:05:46.101Z</time>
      </trkpt>
      <trkpt lat="43.0315" lon="-0.797">
        <ele>1134.23</ele>
        <time>2024-05-31T00:05:58.029Z</time>
      </trkpt>
      <trkpt lat="43.03164" lon="-0.79696">
        <ele>1132.08</ele>
        <time>2024-05-31T00:06:09.960Z</time>
      </trkpt>
      <trkpt lat="43.03172" lon="-0.7969">
        <ele>1129.99</ele>
        <time>2024-05-31T00:06:21.893Z</time>
      </trkpt>
      <trkpt lat="43.03183" lon="-0.79675">
        <ele>1127.89</ele>
        <time>2024-05-31T00:06:33.829Z</time>
      </trkpt>
      <trkpt lat="43.03257" lon="-0.79543">
        <ele>1125.4</ele>
        <time>2024-05-31T00:06:45.789Z</time>
      </trkpt>
      <trkpt lat="43.03268" lon="-0.79515">
        <ele>1123.16</ele>
        <time>2024-05-31T00:06:57.754Z</time>
      </trkpt>
      <trkpt lat="43.03274" lon="-0.79476">
        <ele>1120.89</ele>
        <time>2024-05-31T00:07:09.725Z</time>
      </trkpt>
      <trkpt lat="43.03275" lon="-0.79455">
        <ele>1118.73</ele>
        <time>2024-05-31T00:07:21.699Z</time>
      </trkpt>
      <trkpt lat="43.03264" lon="-0.79438">
        <ele>1116.65</ele>
        <time>2024-05-31T00:07:33.676Z</time>
      </trkpt>
      <trkpt lat="43.0325" lon="-0.79424">
        <ele>1114.55</ele>
        <time>2024-05-31T00:07:45.657Z</time>
      </trkpt>
      <trkpt lat="43.03236" lon="-0.79382">
        <ele>1112.16</ele>
        <time>2024-05-31T00:07:57.644Z</time>
      </trkpt>
      <trkpt lat="43.03216" lon="-0.79339">
        <ele>1110</ele>
        <time>2024-05-31T00:08:09.639Z</time>
      </trkpt>
      <trkpt lat="43.03198" lon="-0.7932">
        <ele>1107.84</ele>
        <time>2024-05-31T00:08:21.638Z</time>
      </trkpt>
      <trkpt lat="43.03138" lon="-0.79285">
        <ele>1105.79</ele>
        <time>2024-05-31T00:08:33.651Z</time>
      </trkpt>
      <trkpt lat="43.03134" lon="-0.79273">
        <ele>1103.5</ele>
        <time>2024-05-31T00:08:45.665Z</time>
      </trkpt>
      <trkpt lat="43.03138" lon="-0.79268">
        <ele>1101.21</ele>
        <time>2024-05-31T00:08:57.681Z</time>
      </trkpt>
      <trkpt lat="43.03146" lon="-0.79271">
        <ele>1098.94</ele>
        <time>2024-05-31T00:09:09.698Z</time>
      </trkpt>
      <trkpt lat="43.03164" lon="-0.79283">
        <ele>1096.66</ele>
        <time>2024-05-31T00:09:21.719Z</time>
      </trkpt>
      <trkpt lat="43.03179" lon="-0.79289">
        <ele>1094.25</ele>
        <time>2024-05-31T00:09:33.743Z</time>
      </trkpt>
      <trkpt lat="43.03213" lon="-0.79291">
        <ele>1091.77</ele>
        <time>2024-05-31T00:09:45.774Z</time>
      </trkpt>
      <trkpt lat="43.0326" lon="-0.79302">
        <ele>1089.11</ele>
        <time>2024-05-31T00:09:57.815Z</time>
      </trkpt>
      <trkpt lat="43.03308" lon="-0.79316">
        <ele>1086.41</ele>
        <time>2024-05-31T00:10:09.866Z</time>
      </trkpt>
      <trkpt lat="43.03326" lon="-0.79325">
        <ele>1083.71</ele>
        <time>2024-05-31T00:10:21.920Z</time>
      </trkpt>
      <trkpt lat="43.03342" lon="-0.79346">
        <ele>1081.04</ele>
        <time>2024-05-31T00:10:33.979Z</time>
      </trkpt>
      <trkpt lat="43.03368" lon="-0.7941">
        <ele>1078.26</ele>
        <time>2024-05-31T00:10:46.049Z</time>
      </trkpt>
      <trkpt lat="43.03375" lon="-0.79466">
        <ele>1075.47</ele>
        <time>2024-05-31T00:10:58.127Z</time>
      </trkpt>
      <trkpt lat="43.03376" lon="-0.7956">
        <ele>1072.39</ele>
        <time>2024-05-31T00:11:10.219Z</time>
      </trkpt>
      <trkpt lat="43.0336" lon="-0.79666">
        <ele>1069.26</ele>
        <time>2024-05-31T00:11:22.327Z</time>
      </trkpt>
      <trkpt lat="43.03335" lon="-0.7974">
        <ele>1066.5</ele>
        <time>2024-05-31T00:11:34.446Z</time>
      </trkpt>
      <trkpt lat="43.03324" lon="-0.79781">
        <ele>1063.56</ele>
        <time>2024-05-31T00:11:46.572Z</time>
      </trkpt>
      <trkpt lat="43.0332" lon="-0.79813">
        <ele>1060.58</ele>
        <time>2024-05-31T00:11:58.703Z</time>
      </trkpt>
      <trkpt lat="43.03323" lon="-0.79828">
        <ele>1057.41</ele>
        <time>2024-05-31T00:12:10.836Z</time>
      </trkpt>
      <trkpt lat="43.03333" lon="-0.7983">
        <ele>1054.03</ele>
        <time>2024-05-31T00:12:22.971Z</time>
      </trkpt>
      <trkpt lat="43.03339" lon="-0.79806">
        <ele>1050.9</ele>
        <time>2024-05-31T00:12:35.110Z</time>
      </trkpt>
      <trkpt lat="43.03345" lon="-0.79773">
        <ele>1047.91</ele>
        <time>2024-05-31T00:12:47.254Z</time>
      </trkpt>
      <trkpt lat="43.03355" lon="-0.79747">
        <ele>1044.67</ele>
        <time>2024-05-31T00:12:59.402Z</time>
      </trkpt>
      <trkpt lat="43.03392" lon="-0.79689">
        <ele>1040.91</ele>
        <time>2024-05-31T00:13:11.561Z</time>
      </trkpt>
      <trkpt lat="43.03421" lon="-0.79622">
        <ele>1037.31</ele>
        <time>2024-05-31T00:13:23.732Z</time>
      </trkpt>
      <trkpt lat="43.03436" lon="-0.79549">
        <ele>1034.15</ele>
        <time>2024-05-31T00:13:35.914Z</time>
      </trkpt>
      <trkpt lat="43.03465" lon="-0.79482">
        <ele>1030.58</ele>
        <time>2024-05-31T00:13:48.107Z</time>
      </trkpt>
      <trkpt lat="43.0347" lon="-0.79449">
        <ele>1027.2</ele>
        <time>2024-05-31T00:14:00.305Z</time>
      </trkpt>
      <trkpt lat="43.0347" lon="-0.79423">
        <ele>1023.9</ele>
        <time>2024-05-31T00:14:12.507Z</time>
      </trkpt>
      <trkpt lat="43.03472" lon="-0.79415">
        <ele>1020.53</ele>
        <time>2024-05-31T00:14:24.710Z</time>
      </trkpt>
      <trkpt lat="43.03479" lon="-0.79412">
        <ele>1017.07</ele>
        <time>2024-05-31T00:14:36.915Z</time>
      </trkpt>
      <trkpt lat="43.03485" lon="-0.79461">
        <ele>1013.87</ele>
        <time>2024-05-31T00:14:49.127Z</time>
      </trkpt>
      <trkpt lat="43.03461" lon="-0.79582">
        <ele>1010.69</ele>
        <time>2024-05-31T00:15:01.357Z</time>
      </trkpt>
      <trkpt lat="43.03473" lon="-0.79649">
        <ele>1006.92</ele>
        <time>2024-05-31T00:15:13.597Z</time>
      </trkpt>
      <trkpt lat="43.03466" lon="-0.7971">
        <ele>1003.62</ele>
        <time>2024-05-31T00:15:25.846Z</time>
      </trkpt>
      <trkpt lat="43.03455" lon="-0.79742">
        <ele>1000.47</ele>
        <time>2024-05-31T00:15:38.101Z</time>
      </trkpt>
      <trkpt lat="43.03438" lon="-0.7977">
        <ele>997.48</ele>
        <time>2024-05-31T00:15:50.361Z</time>
      </trkpt>
      <trkpt lat="43.03431" lon="-0.79786">
        <ele>994.34</ele>
        <time>2024-05-31T00:16:02.624Z</time>
      </trkpt>
      <trkpt lat="43.03433" lon="-0.79801">
        <ele>990.9</ele>
        <time>2024-05-31T00:16:14.889Z</time>
      </trkpt>
      <trkpt lat="43.0344" lon="-0.798">
        <ele>987.59</ele>
        <time>2024-05-31T00:16:27.155Z</time>
      </trkpt>
      <trkpt lat="43.03463" lon="-0.79758">
        <ele>984.46</ele>
        <time>2024-05-31T00:16:39.429Z</time>
      </trkpt>
      <trkpt lat="43.0349" lon="-0.79713">
        <ele>981.01</ele>
        <time>2024-05-31T00:16:51.712Z</time>
      </trkpt>
      <trkpt lat="43.03507" lon="-0.79672">
        <ele>977.74</ele>
        <time>2024-05-31T00:17:04.002Z</time>
      </trkpt>
      <trkpt lat="43.03511" lon="-0.7965">
        <ele>974.55</ele>
        <time>2024-05-31T00:17:16.295Z</time>
      </trkpt>
      <trkpt lat="43.03509" lon="-0.79603">
        <ele>971.63</ele>
        <time>2024-05-31T00:17:28.595Z</time>
      </trkpt>
      <trkpt lat="43.03516" lon="-0.79583">
        <ele>968.47</ele>
        <time>2024-05-31T00:17:40.898Z</time>
      </trkpt>
      <trkpt lat="43.03565" lon="-0.79507">
        <ele>964.49</ele>
        <time>2024-05-31T00:17:53.216Z</time>
      </trkpt>
      <trkpt lat="43.03584" lon="-0.79459">
        <ele>961.15</ele>
        <time>2024-05-31T00:18:05.542Z</time>
      </trkpt>
      <trkpt lat="43.03587" lon="-0.79427">
        <ele>957.99</ele>
        <time>2024-05-31T00:18:17.873Z</time>
      </trkpt>
      <trkpt lat="43.03574" lon="-0.79397">
        <ele>955.09</ele>
        <time>2024-05-31T00:18:30.209Z</time>
      </trkpt>
      <trkpt lat="43.03575" lon="-0.79384">
        <ele>952.01</ele>
        <time>2024-05-31T00:18:42.547Z</time>
      </trkpt>
      <trkpt lat="43.03584" lon="-0.79384">
        <ele>948.92</ele>
        <time>2024-05-31T00:18:54.886Z</time>
      </trkpt>
      <trkpt lat="43.03596" lon="-0.79394">
        <ele>945.9</ele>
        <time>2024-05-31T00:19:07.228Z</time>
      </trkpt>
      <trkpt lat="43.03608" lon="-0.79429">
        <ele>943.04</ele>
        <time>2024-05-31T00:19:19.576Z</time>
      </trkpt>
      <trkpt lat="43.03612" lon="-0.79452">
        <ele>940.23</ele>
        <time>2024-05-31T00:19:31.927Z</time>
      </trkpt>
      <trkpt lat="43.03612" lon="-0.79517">
        <ele>937.32</ele>
        <time>2024-05-31T00:19:44.288Z</time>
      </trkpt>
      <trkpt lat="43.03602" lon="-0.79541">
        <ele>934.73</ele>
        <time>2024-05-31T00:19:56.653Z</time>
      </trkpt>
      <trkpt lat="43.03592" lon="-0.79559">
        <ele>932.1</ele>
        <time>2024-05-31T00:20:09.021Z</time>
      </trkpt>
      <trkpt lat="43.03592" lon="-0.79572">
        <ele>929.28</ele>
        <time>2024-05-31T00:20:21.391Z</time>
      </trkpt>
      <trkpt lat="43.03596" lon="-0.79581">
        <ele>926.41</ele>
        <time>2024-05-31T00:20:33.763Z</time>
      </trkpt>
      <trkpt lat="43.03602" lon="-0.79577">
        <ele>923.63</ele>
        <time>2024-05-31T00:20:46.136Z</time>
      </trkpt>
      <trkpt lat="43.03641" lon="-0.79502">
        <ele>920.44</ele>
        <time>2024-05-31T00:20:58.522Z</time>
      </trkpt>
      <trkpt lat="43.0365" lon="-0.79456">
        <ele>917.57</ele>
        <time>2024-05-31T00:21:10.915Z</time>
      </trkpt>
      <trkpt lat="43.03662" lon="-0.79379">
        <ele>914.5</ele>
        <time>2024-05-31T00:21:23.320Z</time>
      </trkpt>
      <trkpt lat="43.03648" lon="-0.79345">
        <ele>911.86</ele>
        <time>2024-05-31T00:21:35.731Z</time>
      </trkpt>
      <trkpt lat="43.03591" lon="-0.79283">
        <ele>909.62</ele>
        <time>2024-05-31T00:21:48.156Z</time>
      </trkpt>
      <trkpt lat="43.03589" lon="-0.79265">
        <ele>906.85</ele>
        <time>2024-05-31T00:22:00.584Z</time>
      </trkpt>
      <trkpt lat="43.03592" lon="-0.79228">
        <ele>904.03</ele>
        <time>2024-05-31T00:22:13.017Z</time>
      </trkpt>
      <trkpt lat="43.0358" lon="-0.7918">
        <ele>901.53</ele>
        <time>2024-05-31T00:22:25.458Z</time>
      </trkpt>
      <trkpt lat="43.03596" lon="-0.79119">
        <ele>898.66</ele>
        <time>2024-05-31T00:22:37.908Z</time>
      </trkpt>
      <trkpt lat="43.03602" lon="-0.79052">
        <ele>896.21</ele>
        <time>2024-05-31T00:22:50.368Z</time>
      </trkpt>
      <trkpt lat="43.03614" lon="-0.78996">
        <ele>893.13</ele>
        <time>2024-05-31T00:23:02.837Z</time>
      </trkpt>
      <trkpt lat="43.03609" lon="-0.78968">
        <ele>890.67</ele>
        <time>2024-05-31T00:23:15.310Z</time>
      </trkpt>
      <trkpt lat="43.03596" lon="-0.78953">
        <ele>888.36</ele>
        <time>2024-05-31T00:23:27.786Z</time>
      </trkpt>
      <trkpt lat="43.03568" lon="-0.78948">
        <ele>886.31</ele>
        <time>2024-05-31T00:23:40.268Z</time>
      </trkpt>
      <trkpt lat="43.03535" lon="-0.78935">
        <ele>884.07</ele>
        <time>2024-05-31T00:23:52.757Z</time>
      </trkpt>
      <trkpt lat="43.03521" lon="-0.78922">
        <ele>881.67</ele>
        <time>2024-05-31T00:24:05.249Z</time>
      </trkpt>
      <trkpt lat="43.03521" lon="-0.78908">
        <ele>879.11</ele>
        <time>2024-05-31T00:24:17.743Z</time>
      </trkpt>
      <trkpt lat="43.03524" lon="-0.78904">
        <ele>876.78</ele>
        <time>2024-05-31T00:24:30.238Z</time>
      </trkpt>
      <trkpt lat="43.03526" lon="-0.78903">
        <ele>874.56</ele>
        <time>2024-05-31T00:24:42.734Z</time>
      </trkpt>
      <trkpt lat="43.03538" lon="-0.78908">
        <ele>872.38</ele>
        <time>2024-05-31T00:24:55.232Z</time>
      </trkpt>
      <trkpt lat="43.03551" lon="-0.78917">
        <ele>870.26</ele>
        <time>2024-05-31T00:25:07.733Z</time>
      </trkpt>
      <trkpt lat="43.03566" lon="-0.78925">
        <ele>868.12</ele>
        <time>2024-05-31T00:25:20.237Z</time>
      </trkpt>
      <trkpt lat="43.03602" lon="-0.78918">
        <ele>865.51</ele>
        <time>2024-05-31T00:25:32.749Z</time>
      </trkpt>
      <trkpt lat="43.03617" lon="-0.7892">
        <ele>863.25</ele>
        <time>2024-05-31T00:25:45.264Z</time>
      </trkpt>
      <trkpt lat="43.03634" lon="-0.78934">
        <ele>861.1</ele>
        <time>2024-05-31T00:25:57.783Z</time>
      </trkpt>
      <trkpt lat="43.0364" lon="-0.78944">
        <ele>859.05</ele>
        <time>2024-05-31T00:26:10.304Z</time>
      </trkpt>
      <trkpt lat="43.03646" lon="-0.78978">
        <ele>857.1</ele>
        <time>2024-05-31T00:26:22.830Z</time>
      </trkpt>
      <trkpt lat="43.03653" lon="-0.7899">
        <ele>854.91</ele>
        <time>2024-05-31T00:26:35.358Z</time>
      </trkpt>
      <trkpt lat="43.0366" lon="-0.7899">
        <ele>852.75</ele>
        <time>2024-05-31T00:26:47.887Z</time>
      </trkpt>
      <trkpt lat="43.03662" lon="-0.78981">
        <ele>850.7</ele>
        <time>2024-05-31T00:27:00.418Z</time>
      </trkpt>
      <trkpt lat="43.03661" lon="-0.78969">
        <ele>848.7</ele>
        <time>2024-05-31T00:27:12.950Z</time>
      </trkpt>
      <trkpt lat="43.03648" lon="-0.78929">
        <ele>846.72</ele>
        <time>2024-05-31T00:27:25.489Z</time>
      </trkpt>
      <trkpt lat="43.03634" lon="-0.78907">
        <ele>844.69</ele>
        <time>2024-05-31T00:27:38.032Z</time>
      </trkpt>
      <trkpt lat="43.03604" lon="-0.7888">
        <ele>842.58</ele>
        <time>2024-05-31T00:27:50.582Z</time>
      </trkpt>
      <trkpt lat="43.0357" lon="-0.78875">
        <ele>840.86</ele>
        <time>2024-05-31T00:28:03.139Z</time>
      </trkpt>
      <trkpt lat="43.03549" lon="-0.78819">
        <ele>838.37</ele>
        <time>2024-05-31T00:28:15.705Z</time>
      </trkpt>
      <trkpt lat="43.03539" lon="-0.78797">
        <ele>836.28</ele>
        <time>2024-05-31T00:28:28.275Z</time>
      </trkpt>
      <trkpt lat="43.03543" lon="-0.78782">
        <ele>834.19</ele>
        <time>2024-05-31T00:28:40.848Z</time>
      </trkpt>
      <trkpt lat="43.03552" lon="-0.7877">
        <ele>832.14</ele>
        <time>2024-05-31T00:28:53.423Z</time>
      </trkpt>
      <trkpt lat="43.03562" lon="-0.78762">
        <ele>830.13</ele>
        <time>2024-05-31T00:29:06.000Z</time>
      </trkpt>
      <trkpt lat="43.03572" lon="-0.78761">
        <ele>828.2</ele>
        <time>2024-05-31T00:29:18.579Z</time>
      </trkpt>
      <trkpt lat="43.0358" lon="-0.78771">
        <ele>826.32</ele>
        <time>2024-05-31T00:29:31.161Z</time>
      </trkpt>
      <trkpt lat="43.03585" lon="-0.78798">
        <ele>824.54</ele>
        <time>2024-05-31T00:29:43.747Z</time>
      </trkpt>
      <trkpt lat="43.03585" lon="-0.78826">
        <ele>822.96</ele>
        <time>2024-05-31T00:29:56.337Z</time>
      </trkpt>
      <trkpt lat="43.03595" lon="-0.7884">
        <ele>821.15</ele>
        <time>2024-05-31T00:30:08.930Z</time>
      </trkpt>
      <trkpt lat="43.03646" lon="-0.78845">
        <ele>818.78</ele>
        <time>2024-05-31T00:30:21.533Z</time>
      </trkpt>
      <trkpt lat="43.03671" lon="-0.78866">
        <ele>816.85</ele>
        <time>2024-05-31T00:30:34.142Z</time>
      </trkpt>
      <trkpt lat="43.03685" lon="-0.78884">
        <ele>815.07</ele>
        <time>2024-05-31T00:30:46.755Z</time>
      </trkpt>
      <trkpt lat="43.03702" lon="-0.78892">
        <ele>813.1</ele>
        <time>2024-05-31T00:30:59.371Z</time>
      </trkpt>
      <trkpt lat="43.03728" lon="-0.7888">
        <ele>810.88</ele>
        <time>2024-05-31T00:31:11.993Z</time>
      </trkpt>
      <trkpt lat="43.03747" lon="-0.78884">
        <ele>809</ele>
        <time>2024-05-31T00:31:24.618Z</time>
      </trkpt>
      <trkpt lat="43.03769" lon="-0.78898">
        <ele>807.11</ele>
        <time>2024-05-31T00:31:37.248Z</time>
      </trkpt>
      <trkpt lat="43.03778" lon="-0.78893">
        <ele>805.29</ele>
        <time>2024-05-31T00:31:49.880Z</time>
      </trkpt>
      <trkpt lat="43.03781" lon="-0.78887">
        <ele>803.61</ele>
        <time>2024-05-31T00:32:02.513Z</time>
      </trkpt>
      <trkpt lat="43.03781" lon="-0.78874">
        <ele>802</ele>
        <time>2024-05-31T00:32:15.148Z</time>
      </trkpt>
      <trkpt lat="43.03774" lon="-0.78858">
        <ele>800.5</ele>
        <time>2024-05-31T00:32:27.786Z</time>
      </trkpt>
      <trkpt lat="43.03761" lon="-0.78835">
        <ele>798.87</ele>
        <time>2024-05-31T00:32:40.428Z</time>
      </trkpt>
      <trkpt lat="43.03751" lon="-0.78826">
        <ele>797.26</ele>
        <time>2024-05-31T00:32:53.073Z</time>
      </trkpt>
      <trkpt lat="43.03741" lon="-0.78826">
        <ele>795.77</ele>
        <time>2024-05-31T00:33:05.720Z</time>
      </trkpt>
      <trkpt lat="43.03713" lon="-0.78836">
        <ele>794.54</ele>
        <time>2024-05-31T00:33:18.372Z</time>
      </trkpt>
      <trkpt lat="43.03706" lon="-0.78829">
        <ele>792.97</ele>
        <time>2024-05-31T00:33:31.026Z</time>
      </trkpt>
      <trkpt lat="43.03695" lon="-0.7879">
        <ele>791.07</ele>
        <time>2024-05-31T00:33:43.686Z</time>
      </trkpt>
      <trkpt lat="43.03684" lon="-0.78775">
        <ele>789.42</ele>
        <time>2024-05-31T00:33:56.349Z</time>
      </trkpt>
      <trkpt lat="43.03666" lon="-0.78769">
        <ele>788.15</ele>
        <time>2024-05-31T00:34:09.016Z</time>
      </trkpt>
      <trkpt lat="43.0366" lon="-0.78763">
        <ele>786.63</ele>
        <time>2024-05-31T00:34:21.685Z</time>
      </trkpt>
      <trkpt lat="43.03658" lon="-0.78745">
        <ele>784.8</ele>
        <time>2024-05-31T00:34:34.356Z</time>
      </trkpt>
      <trkpt lat="43.03661" lon="-0.78721">
        <ele>782.78</ele>
        <time>2024-05-31T00:34:47.031Z</time>
      </trkpt>
      <trkpt lat="43.03662" lon="-0.78691">
        <ele>780.82</ele>
        <time>2024-05-31T00:34:59.710Z</time>
      </trkpt>
      <trkpt lat="43.03659" lon="-0.78665">
        <ele>779</ele>
        <time>2024-05-31T00:35:12.393Z</time>
      </trkpt>
      <trkpt lat="43.03638" lon="-0.78635">
        <ele>777.36</ele>
        <time>2024-05-31T00:35:25.082Z</time>
      </trkpt>
      <trkpt lat="43.03615" lon="-0.78617">
        <ele>775.54</ele>
        <time>2024-05-31T00:35:37.776Z</time>
      </trkpt>
      <trkpt lat="43.03595" lon="-0.78604">
        <ele>773.76</ele>
        <time>2024-05-31T00:35:50.475Z</time>
      </trkpt>
      <trkpt lat="43.03584" lon="-0.78599">
        <ele>771.93</ele>
        <time>2024-05-31T00:36:03.176Z</time>
      </trkpt>
      <trkpt lat="43.03572" lon="-0.78605">
        <ele>770.24</ele>
        <time>2024-05-31T00:36:15.880Z</time>
      </trkpt>
      <trkpt lat="43.03514" lon="-0.78647">
        <ele>768.95</ele>
        <time>2024-05-31T00:36:28.597Z</time>
      </trkpt>
      <trkpt lat="43.03498" lon="-0.7865">
        <ele>766.82</ele>
        <time>2024-05-31T00:36:41.317Z</time>
      </trkpt>
      <trkpt lat="43.03491" lon="-0.78643">
        <ele>764.53</ele>
        <time>2024-05-31T00:36:54.039Z</time>
      </trkpt>
      <trkpt lat="43.03488" lon="-0.78632">
        <ele>762.32</ele>
        <time>2024-05-31T00:37:06.763Z</time>
      </trkpt>
      <trkpt lat="43.03487" lon="-0.78625">
        <ele>760.07</ele>
        <time>2024-05-31T00:37:19.488Z</time>
      </trkpt>
      <trkpt lat="43.0349" lon="-0.78611">
        <ele>757.71</ele>
        <time>2024-05-31T00:37:32.215Z</time>
      </trkpt>
      <trkpt lat="43.03495" lon="-0.78603">
        <ele>755.3</ele>
        <time>2024-05-31T00:37:44.943Z</time>
      </trkpt>
      <trkpt lat="43.03552" lon="-0.78525">
        <ele>752.6</ele>
        <time>2024-05-31T00:37:57.687Z</time>
      </trkpt>
      <trkpt lat="43.03571" lon="-0.78504">
        <ele>749.86</ele>
        <time>2024-05-31T00:38:10.436Z</time>
      </trkpt>
      <trkpt lat="43.03584" lon="-0.785">
        <ele>747.24</ele>
        <time>2024-05-31T00:38:23.188Z</time>
      </trkpt>
      <trkpt lat="43.03598" lon="-0.78502">
        <ele>744.44</ele>
        <time>2024-05-31T00:38:35.943Z</time>
      </trkpt>
      <trkpt lat="43.0364" lon="-0.78516">
        <ele>741.03</ele>
        <time>2024-05-31T00:38:48.707Z</time>
      </trkpt>
      <trkpt lat="43.03656" lon="-0.78518">
        <ele>737.98</ele>
        <time>2024-05-31T00:39:01.474Z</time>
      </trkpt>
      <trkpt lat="43.03748" lon="-0.78516">
        <ele>734.38</ele>
        <time>2024-05-31T00:39:14.259Z</time>
      </trkpt>
      <trkpt lat="43.03763" lon="-0.78511">
        <ele>731.26</ele>
        <time>2024-05-31T00:39:27.047Z</time>
      </trkpt>
      <trkpt lat="43.0378" lon="-0.78496">
        <ele>728.11</ele>
        <time>2024-05-31T00:39:39.839Z</time>
      </trkpt>
      <trkpt lat="43.03829" lon="-0.78459">
        <ele>724.72</ele>
        <time>2024-05-31T00:39:52.642Z</time>
      </trkpt>
      <trkpt lat="43.03849" lon="-0.78438">
        <ele>721.67</ele>
        <time>2024-05-31T00:40:05.451Z</time>
      </trkpt>
      <trkpt lat="43.03858" lon="-0.78432">
        <ele>718.47</ele>
        <time>2024-05-31T00:40:18.262Z</time>
      </trkpt>
      <trkpt lat="43.03868" lon="-0.7843">
        <ele>715.13</ele>
        <time>2024-05-31T00:40:31.075Z</time>
      </trkpt>
      <trkpt lat="43.03878" lon="-0.78432">
        <ele>711.72</ele>
        <time>2024-05-31T00:40:43.890Z</time>
      </trkpt>
      <trkpt lat="43.039" lon="-0.78447">
        <ele>708.09</ele>
        <time>2024-05-31T00:40:56.709Z</time>
      </trkpt>
      <trkpt lat="43.03914" lon="-0.78448">
        <ele>704.74</ele>
        <time>2024-05-31T00:41:09.531Z</time>
      </trkpt>
      <trkpt lat="43.03937" lon="-0.78453">
        <ele>701.39</ele>
        <time>2024-05-31T00:41:22.358Z</time>
      </trkpt>
      <trkpt lat="43.03948" lon="-0.78464">
        <ele>697.73</ele>
        <time>2024-05-31T00:41:35.188Z</time>
      </trkpt>
      <trkpt lat="43.03968" lon="-0.78507">
        <ele>693.74</ele>
        <time>2024-05-31T00:41:48.025Z</time>
      </trkpt>
      <trkpt lat="43.03987" lon="-0.78533">
        <ele>689.91</ele>
        <time>2024-05-31T00:42:00.868Z</time>
      </trkpt>
      <trkpt lat="43.04004" lon="-0.78572">
        <ele>685.89</ele>
        <time>2024-05-31T00:42:13.717Z</time>
      </trkpt>
      <trkpt lat="43.04016" lon="-0.78582">
        <ele>682.18</ele>
        <time>2024-05-31T00:42:26.569Z</time>
      </trkpt>
      <trkpt lat="43.04049" lon="-0.78592">
        <ele>678.47</ele>
        <time>2024-05-31T00:42:39.428Z</time>
      </trkpt>
      <trkpt lat="43.04067" lon="-0.78607">
        <ele>674.81</ele>
        <time>2024-05-31T00:42:52.291Z</time>
      </trkpt>
      <trkpt lat="43.04097" lon="-0.78662">
        <ele>670.98</ele>
        <time>2024-05-31T00:43:05.164Z</time>
      </trkpt>
      <trkpt lat="43.04129" lon="-0.78734">
        <ele>666.94</ele>
        <time>2024-05-31T00:43:18.049Z</time>
      </trkpt>
      <trkpt lat="43.04154" lon="-0.7876">
        <ele>663.2</ele>
        <time>2024-05-31T00:43:30.941Z</time>
      </trkpt>
      <trkpt lat="43.04163" lon="-0.78779">
        <ele>659.51</ele>
        <time>2024-05-31T00:43:43.836Z</time>
      </trkpt>
      <trkpt lat="43.04169" lon="-0.78797">
        <ele>655.78</ele>
        <time>2024-05-31T00:43:56.734Z</time>
      </trkpt>
      <trkpt lat="43.04172" lon="-0.78817">
        <ele>652.05</ele>
        <time>2024-05-31T00:44:09.635Z</time>
      </trkpt>
      <trkpt lat="43.04183" lon="-0.78842">
        <ele>648.32</ele>
        <time>2024-05-31T00:44:22.540Z</time>
      </trkpt>
      <trkpt lat="43.04196" lon="-0.7885">
        <ele>644.84</ele>
        <time>2024-05-31T00:44:35.448Z</time>
      </trkpt>
      <trkpt lat="43.0421" lon="-0.78852">
        <ele>641.35</ele>
        <time>2024-05-31T00:44:48.359Z</time>
      </trkpt>
      <trkpt lat="43.04265" lon="-0.78839">
        <ele>637.62</ele>
        <time>2024-05-31T00:45:01.281Z</time>
      </trkpt>
      <trkpt lat="43.04276" lon="-0.7884">
        <ele>634.18</ele>
        <time>2024-05-31T00:45:14.205Z</time>
      </trkpt>
      <trkpt lat="43.0431" lon="-0.78855">
        <ele>630.47</ele>
        <time>2024-05-31T00:45:27.136Z</time>
      </trkpt>
      <trkpt lat="43.04322" lon="-0.78853">
        <ele>627.13</ele>
        <time>2024-05-31T00:45:40.070Z</time>
      </trkpt>
      <trkpt lat="43.04348" lon="-0.78839">
        <ele>623.8</ele>
        <time>2024-05-31T00:45:53.009Z</time>
      </trkpt>
      <trkpt lat="43.04388" lon="-0.78812">
        <ele>620.83</ele>
        <time>2024-05-31T00:46:05.957Z</time>
      </trkpt>
      <trkpt lat="43.04403" lon="-0.7881">
        <ele>617.57</ele>
        <time>2024-05-31T00:46:18.908Z</time>
      </trkpt>
      <trkpt lat="43.04408" lon="-0.78814">
        <ele>614.39</ele>
        <time>2024-05-31T00:46:31.860Z</time>
      </trkpt>
      <trkpt lat="43.04424" lon="-0.78827">
        <ele>611.24</ele>
        <time>2024-05-31T00:46:44.816Z</time>
      </trkpt>
      <trkpt lat="43.04444" lon="-0.78848">
        <ele>608.01</ele>
        <time>2024-05-31T00:46:57.777Z</time>
      </trkpt>
      <trkpt lat="43.04477" lon="-0.78876">
        <ele>604.92</ele>
        <time>2024-05-31T00:47:10.746Z</time>
      </trkpt>
      <trkpt lat="43.04508" lon="-0.78907">
        <ele>601.82</ele>
        <time>2024-05-31T00:47:23.723Z</time>
      </trkpt>
      <trkpt lat="43.04536" lon="-0.78939">
        <ele>598.66</ele>
        <time>2024-05-31T00:47:36.707Z</time>
      </trkpt>
      <trkpt lat="43.04571" lon="-0.78964">
        <ele>595.46</ele>
        <time>2024-05-31T00:47:49.699Z</time>
      </trkpt>
      <trkpt lat="43.04597" lon="-0.79017">
        <ele>592.19</ele>
        <time>2024-05-31T00:48:02.700Z</time>
      </trkpt>
      <trkpt lat="43.04607" lon="-0.79024">
        <ele>589.29</ele>
        <time>2024-05-31T00:48:15.703Z</time>
      </trkpt>
      <trkpt lat="43.04622" lon="-0.7903">
        <ele>586.27</ele>
        <time>2024-05-31T00:48:28.710Z</time>
      </trkpt>
      <trkpt lat="43.04646" lon="-0.79031">
        <ele>583.31</ele>
        <time>2024-05-31T00:48:41.721Z</time>
      </trkpt>
      <trkpt lat="43.04673" lon="-0.79029">
        <ele>580.34</ele>
        <time>2024-05-31T00:48:54.738Z</time>
      </trkpt>
      <trkpt lat="43.04727" lon="-0.79013">
        <ele>577.33</ele>
        <time>2024-05-31T00:49:07.766Z</time>
      </trkpt>
      <trkpt lat="43.04754" lon="-0.79012">
        <ele>574.41</ele>
        <time>2024-05-31T00:49:20.799Z</time>
      </trkpt>
      <trkpt lat="43.04809" lon="-0.79021">
        <ele>571.4</ele>
        <time>2024-05-31T00:49:33.843Z</time>
      </trkpt>
      <trkpt lat="43.04826" lon="-0.79026">
        <ele>568.55</ele>
        <time>2024-05-31T00:49:46.891Z</time>
      </trkpt>
      <trkpt lat="43.04841" lon="-0.79038">
        <ele>565.7</ele>
        <time>2024-05-31T00:49:59.942Z</time>
      </trkpt>
      <trkpt lat="43.04874" lon="-0.79075">
        <ele>562.94</ele>
        <time>2024-05-31T00:50:13.002Z</time>
      </trkpt>
      <trkpt lat="43.04883" lon="-0.79082">
        <ele>560.13</ele>
        <time>2024-05-31T00:50:26.064Z</time>
      </trkpt>
      <trkpt lat="43.04963" lon="-0.79115">
        <ele>557.29</ele>
        <time>2024-05-31T00:50:39.143Z</time>
      </trkpt>
      <trkpt lat="43.04978" lon="-0.79128">
        <ele>554.37</ele>
        <time>2024-05-31T00:50:52.225Z</time>
      </trkpt>
      <trkpt lat="43.04991" lon="-0.79149">
        <ele>551.34</ele>
        <time>2024-05-31T00:51:05.311Z</time>
      </trkpt>
      <trkpt lat="43.05001" lon="-0.79174">
        <ele>548.24</ele>
        <time>2024-05-31T00:51:18.401Z</time>
      </trkpt>
      <trkpt lat="43.05009" lon="-0.79209">
        <ele>545.07</ele>
        <time>2024-05-31T00:51:31.497Z</time>
      </trkpt>
      <trkpt lat="43.05019" lon="-0.79241">
        <ele>541.83</ele>
        <time>2024-05-31T00:51:44.598Z</time>
      </trkpt>
      <trkpt lat="43.05023" lon="-0.79287">
        <ele>538.36</ele>
        <time>2024-05-31T00:51:57.706Z</time>
      </trkpt>
      <trkpt lat="43.05033" lon="-0.79335">
        <ele>534.93</ele>
        <time>2024-05-31T00:52:10.821Z</time>
      </trkpt>
      <trkpt lat="43.05029" lon="-0.79382">
        <ele>531.42</ele>
        <time>2024-05-31T00:52:23.943Z</time>
      </trkpt>
      <trkpt lat="43.05036" lon="-0.79398">
        <ele>528.04</ele>
        <time>2024-05-31T00:52:37.068Z</time>
      </trkpt>
      <trkpt lat="43.05045" lon="-0.79406">
        <ele>524.62</ele>
        <time>2024-05-31T00:52:50.195Z</time>
      </trkpt>
      <trkpt lat="43.05113" lon="-0.79431">
        <ele>520.73</ele>
        <time>2024-05-31T00:53:03.336Z</time>
      </trkpt>
      <trkpt lat="43.05135" lon="-0.79437">
        <ele>517.27</ele>
        <time>2024-05-31T00:53:16.481Z</time>
      </trkpt>
      <trkpt lat="43.05157" lon="-0.79448">
        <ele>513.71</ele>
        <time>2024-05-31T00:53:29.631Z</time>
      </trkpt>
      <trkpt lat="43.05183" lon="-0.79479">
        <ele>509.9</ele>
        <time>2024-05-31T00:53:42.788Z</time>
      </trkpt>
      <trkpt lat="43.05202" lon="-0.79494">
        <ele>506.23</ele>
        <time>2024-05-31T00:53:55.949Z</time>
      </trkpt>
      <trkpt lat="43.05259" lon="-0.79521">
        <ele>502.48</ele>
        <time>2024-05-31T00:54:09.122Z</time>
      </trkpt>
      <trkpt lat="43.05265" lon="-0.79519">
        <ele>499.05</ele>
        <time>2024-05-31T00:54:22.297Z</time>
      </trkpt>
      <trkpt lat="43.05383" lon="-0.79489">
        <ele>495.09</ele>
        <time>2024-05-31T00:54:35.496Z</time>
      </trkpt>
      <trkpt lat="43.054" lon="-0.7948">
        <ele>491.68</ele>
        <time>2024-05-31T00:54:48.698Z</time>
      </trkpt>
      <trkpt lat="43.05436" lon="-0.79451">
        <ele>488.17</ele>
        <time>2024-05-31T00:55:01.909Z</time>
      </trkpt>
      <trkpt lat="43.05539" lon="-0.79438">
        <ele>484.37</ele>
        <time>2024-05-31T00:55:15.140Z</time>
      </trkpt>
      <trkpt lat="43.05604" lon="-0.79425">
        <ele>481.02</ele>
        <time>2024-05-31T00:55:28.384Z</time>
      </trkpt>
      <trkpt lat="43.05632" lon="-0.79413">
        <ele>478.03</ele>
        <time>2024-05-31T00:55:41.634Z</time>
      </trkpt>
      <trkpt lat="43.05643" lon="-0.79404">
        <ele>475.15</ele>
        <time>2024-05-31T00:55:54.887Z</time>
      </trkpt>
      <trkpt lat="43.05654" lon="-0.79385">
        <ele>472.24</ele>
        <time>2024-05-31T00:56:08.143Z</time>
      </trkpt>
      <trkpt lat="43.05668" lon="-0.79366">
        <ele>469.38</ele>
        <time>2024-05-31T00:56:21.403Z</time>
      </trkpt>
      <trkpt lat="43.05741" lon="-0.79292">
        <ele>466.36</ele>
        <time>2024-05-31T00:56:34.682Z</time>
      </trkpt>
      <trkpt lat="43.05763" lon="-0.79265">
        <ele>463.48</ele>
        <time>2024-05-31T00:56:47.966Z</time>
      </trkpt>
      <trkpt lat="43.05784" lon="-0.79233">
        <ele>460.82</ele>
        <time>2024-05-31T00:57:01.257Z</time>
      </trkpt>
      <trkpt lat="43.05799" lon="-0.79204">
        <ele>458.26</ele>
        <time>2024-05-31T00:57:14.553Z</time>
      </trkpt>
      <trkpt lat="43.05834" lon="-0.7917">
        <ele>455.8</ele>
        <time>2024-05-31T00:57:27.858Z</time>
      </trkpt>
      <trkpt lat="43.05866" lon="-0.79132">
        <ele>453.39</ele>
        <time>2024-05-31T00:57:41.171Z</time>
      </trkpt>
      <trkpt lat="43.05889" lon="-0.79112">
        <ele>451.15</ele>
        <time>2024-05-31T00:57:54.490Z</time>
      </trkpt>
      <trkpt lat="43.05903" lon="-0.79104">
        <ele>449.02</ele>
        <time>2024-05-31T00:58:07.812Z</time>
      </trkpt>
      <trkpt lat="43.05926" lon="-0.79096">
        <ele>446.85</ele>
        <time>2024-05-31T00:58:21.138Z</time>
      </trkpt>
      <trkpt lat="43.05962" lon="-0.79099">
        <ele>444.84</ele>
        <time>2024-05-31T00:58:34.472Z</time>
      </trkpt>
      <trkpt lat="43.05992" lon="-0.7911">
        <ele>443</ele>
        <time>2024-05-31T00:58:47.812Z</time>
      </trkpt>
      <trkpt lat="43.06008" lon="-0.79112">
        <ele>441.2</ele>
        <time>2024-05-31T00:59:01.155Z</time>
      </trkpt>
      <trkpt lat="43.06022" lon="-0.79108">
        <ele>439.43</ele>
        <time>2024-05-31T00:59:14.501Z</time>
      </trkpt>
      <trkpt lat="43.06061" lon="-0.79091">
        <ele>437.68</ele>
        <time>2024-05-31T00:59:27.855Z</time>
      </trkpt>
      <trkpt lat="43.06091" lon="-0.79075">
        <ele>436.06</ele>
        <time>2024-05-31T00:59:41.215Z</time>
      </trkpt>
      <trkpt lat="43.0611" lon="-0.79068">
        <ele>434.45</ele>
        <time>2024-05-31T00:59:54.579Z</time>
      </trkpt>
      <trkpt lat="43.06126" lon="-0.79067">
        <ele>432.92</ele>
        <time>2024-05-31T01:00:07.947Z</time>
      </trkpt>
      <trkpt lat="43.06133" lon="-0.79067">
        <ele>431.54</ele>
        <time>2024-05-31T01:00:21.316Z</time>
      </trkpt>
      <trkpt lat="43.06147" lon="-0.79072">
        <ele>430.19</ele>
        <time>2024-05-31T01:00:34.688Z</time>
      </trkpt>
      <trkpt lat="43.0623" lon="-0.79115">
        <ele>428.86</ele>
        <time>2024-05-31T01:00:48.078Z</time>
      </trkpt>
      <trkpt lat="43.06239" lon="-0.79115">
        <ele>427.64</ele>
        <time>2024-05-31T01:01:01.469Z</time>
      </trkpt>
      <trkpt lat="43.06245" lon="-0.79112">
        <ele>426.41</ele>
        <time>2024-05-31T01:01:14.862Z</time>
      </trkpt>
      <trkpt lat="43.06271" lon="-0.79089">
        <ele>425.14</ele>
        <time>2024-05-31T01:01:28.261Z</time>
      </trkpt>
      <trkpt lat="43.06281" lon="-0.79086">
        <ele>423.96</ele>
        <time>2024-05-31T01:01:41.662Z</time>
      </trkpt>
      <trkpt lat="43.06316" lon="-0.79082">
        <ele>422.69</ele>
        <time>2024-05-31T01:01:55.070Z</time>
      </trkpt>
      <trkpt lat="43.0641" lon="-0.79079">
        <ele>421.3</ele>
        <time>2024-05-31T01:02:08.497Z</time>
      </trkpt>
      <trkpt lat="43.06458" lon="-0.79079">
        <ele>420.2</ele>
        <time>2024-05-31T01:02:21.933Z</time>
      </trkpt>
      <trkpt lat="43.06554" lon="-0.79084">
        <ele>418.94</ele>
        <time>2024-05-31T01:02:35.389Z</time>
      </trkpt>
      <trkpt lat="43.06581" lon="-0.79081">
        <ele>417.87</ele>
        <time>2024-05-31T01:02:48.850Z</time>
      </trkpt>
      <trkpt lat="43.06601" lon="-0.79073">
        <ele>416.7</ele>
        <time>2024-05-31T01:03:02.315Z</time>
      </trkpt>
      <trkpt lat="43.06616" lon="-0.79065">
        <ele>415.46</ele>
        <time>2024-05-31T01:03:15.783Z</time>
      </trkpt>
      <trkpt lat="43.06642" lon="-0.7904">
        <ele>414.12</ele>
        <time>2024-05-31T01:03:29.258Z</time>
      </trkpt>
      <trkpt lat="43.06659" lon="-0.79028">
        <ele>412.81</ele>
        <time>2024-05-31T01:03:42.737Z</time>
      </trkpt>
      <trkpt lat="43.06717" lon="-0.78997">
        <ele>411.41</ele>
        <time>2024-05-31T01:03:56.228Z</time>
      </trkpt>
      <trkpt lat="43.06738" lon="-0.78984">
        <ele>410.18</ele>
        <time>2024-05-31T01:04:09.724Z</time>
      </trkpt>
      <trkpt lat="43.0683" lon="-0.78914">
        <ele>409.06</ele>
        <time>2024-05-31T01:04:23.241Z</time>
      </trkpt>
      <trkpt lat="43.06844" lon="-0.78905">
        <ele>407.74</ele>
        <time>2024-05-31T01:04:36.761Z</time>
      </trkpt>
      <trkpt lat="43.06879" lon="-0.78891">
        <ele>406.38</ele>
        <time>2024-05-31T01:04:50.288Z</time>
      </trkpt>
      <trkpt lat="43.07025" lon="-0.78848">
        <ele>404.73</ele>
        <time>2024-05-31T01:05:03.845Z</time>
      </trkpt>
      <trkpt lat="43.07036" lon="-0.78846">
        <ele>403.45</ele>
        <time>2024-05-31T01:05:17.404Z</time>
      </trkpt>
      <trkpt lat="43.07077" lon="-0.78845">
        <ele>402.11</ele>
        <time>2024-05-31T01:05:30.971Z</time>
      </trkpt>
      <trkpt lat="43.07096" lon="-0.78837">
        <ele>400.84</ele>
        <time>2024-05-31T01:05:44.542Z</time>
      </trkpt>
      <trkpt lat="43.07153" lon="-0.78801">
        <ele>399.55</ele>
        <time>2024-05-31T01:05:58.126Z</time>
      </trkpt>
      <trkpt lat="43.07282" lon="-0.78733">
        <ele>397.92</ele>
        <time>2024-05-31T01:06:11.738Z</time>
      </trkpt>
      <trkpt lat="43.07316" lon="-0.78713">
        <ele>396.63</ele>
        <time>2024-05-31T01:06:25.357Z</time>
      </trkpt>
      <trkpt lat="43.07327" lon="-0.78711">
        <ele>395.31</ele>
        <time>2024-05-31T01:06:38.978Z</time>
      </trkpt>
      <trkpt lat="43.07342" lon="-0.78716">
        <ele>393.93</ele>
        <time>2024-05-31T01:06:52.602Z</time>
      </trkpt>
      <trkpt lat="43.07373" lon="-0.78737">
        <ele>392.49</ele>
        <time>2024-05-31T01:07:06.233Z</time>
      </trkpt>
      <trkpt lat="43.07387" lon="-0.7874">
        <ele>390.92</ele>
        <time>2024-05-31T01:07:19.867Z</time>
      </trkpt>
      <trkpt lat="43.07457" lon="-0.78722">
        <ele>389.25</ele>
        <time>2024-05-31T01:07:33.515Z</time>
      </trkpt>
      <trkpt lat="43.07483" lon="-0.78712">
        <ele>387.55</ele>
        <time>2024-05-31T01:07:47.169Z</time>
      </trkpt>
      <trkpt lat="43.07547" lon="-0.78674">
        <ele>385.7</ele>
        <time>2024-05-31T01:08:00.837Z</time>
      </trkpt>
      <trkpt lat="43.07563" lon="-0.7866">
        <ele>383.94</ele>
        <time>2024-05-31T01:08:14.508Z</time>
      </trkpt>
      <trkpt lat="43.07626" lon="-0.78592">
        <ele>381.95</ele>
        <time>2024-05-31T01:08:28.196Z</time>
      </trkpt>
      <trkpt lat="43.07903" lon="-0.78403">
        <ele>379.95</ele>
        <time>2024-05-31T01:08:41.945Z</time>
      </trkpt>
      <trkpt lat="43.07969" lon="-0.78373">
        <ele>378.24</ele>
        <time>2024-05-31T01:08:55.708Z</time>
      </trkpt>
      <trkpt lat="43.0803" lon="-0.78351">
        <ele>376.53</ele>
        <time>2024-05-31T01:09:09.484Z</time>
      </trkpt>
      <trkpt lat="43.08099" lon="-0.78352">
        <ele>374.87</ele>
        <time>2024-05-31T01:09:23.274Z</time>
      </trkpt>
      <trkpt lat="43.08192" lon="-0.78359">
        <ele>373.58</ele>
        <time>2024-05-31T01:09:37.082Z</time>
      </trkpt>
      <trkpt lat="43.08212" lon="-0.78355">
        <ele>371.95</ele>
        <time>2024-05-31T01:09:50.894Z</time>
      </trkpt>
      <trkpt lat="43.08242" lon="-0.78341">
        <ele>369.89</ele>
        <time>2024-05-31T01:10:04.713Z</time>
      </trkpt>
      <trkpt lat="43.08411" lon="-0.78316">
        <ele>367.86</ele>
        <time>2024-05-31T01:10:18.566Z</time>
      </trkpt>
      <trkpt lat="43.08502" lon="-0.7831">
        <ele>366.09</ele>
        <time>2024-05-31T01:10:32.437Z</time>
      </trkpt>
      <trkpt lat="43.08587" lon="-0.78308">
        <ele>364.61</ele>
        <time>2024-05-31T01:10:46.325Z</time>
      </trkpt>
      <trkpt lat="43.087" lon="-0.78321">
        <ele>363.06</ele>
        <time>2024-05-31T01:11:00.236Z</time>
      </trkpt>
      <trkpt lat="43.08733" lon="-0.78321">
        <ele>361.36</ele>
        <time>2024-05-31T01:11:14.153Z</time>
      </trkpt>
      <trkpt lat="43.08751" lon="-0.78318">
        <ele>359.8</ele>
        <time>2024-05-31T01:11:28.074Z</time>
      </trkpt>
      <trkpt lat="43.08792" lon="-0.783">
        <ele>358.27</ele>
        <time>2024-05-31T01:11:42.004Z</time>
      </trkpt>
      <trkpt lat="43.08825" lon="-0.7829">
        <ele>356.99</ele>
        <time>2024-05-31T01:11:55.940Z</time>
      </trkpt>
      <trkpt lat="43.08852" lon="-0.78285">
        <ele>355.71</ele>
        <time>2024-05-31T01:12:09.882Z</time>
      </trkpt>
      <trkpt lat="43.09002" lon="-0.78268">
        <ele>354.04</ele>
        <time>2024-05-31T01:12:23.854Z</time>
      </trkpt>
      <trkpt lat="43.09019" lon="-0.78264">
        <ele>352.72</ele>
        <time>2024-05-31T01:12:37.829Z</time>
      </trkpt>
      <trkpt lat="43.09052" lon="-0.78252">
        <ele>351.33</ele>
        <time>2024-05-31T01:12:51.811Z</time>
      </trkpt>
      <trkpt lat="43.09067" lon="-0.78243">
        <ele>349.93</ele>
        <time>2024-05-31T01:13:05.796Z</time>
      </trkpt>
      <trkpt lat="43.09092" lon="-0.78237">
        <ele>348.6</ele>
        <time>2024-05-31T01:13:19.786Z</time>
      </trkpt>
      <trkpt lat="43.09167" lon="-0.78227">
        <ele>347.35</ele>
        <time>2024-05-31T01:13:33.792Z</time>
      </trkpt>
      <trkpt lat="43.09261" lon="-0.78226">
        <ele>345.99</ele>
        <time>2024-05-31T01:13:47.816Z</time>
      </trkpt>
      <trkpt lat="43.09277" lon="-0.78221">
        <ele>344.99</ele>
        <time>2024-05-31T01:14:01.844Z</time>
      </trkpt>
      <trkpt lat="43.09306" lon="-0.78201">
        <ele>344.08</ele>
        <time>2024-05-31T01:14:15.878Z</time>
      </trkpt>
      <trkpt lat="43.09364" lon="-0.7815">
        <ele>343.11</ele>
        <time>2024-05-31T01:14:29.926Z</time>
      </trkpt>
      <trkpt lat="43.09429" lon="-0.78112">
        <ele>342.25</ele>
        <time>2024-05-31T01:14:43.988Z</time>
      </trkpt>
      <trkpt lat="43.09523" lon="-0.78064">
        <ele>341.55</ele>
        <time>2024-05-31T01:14:58.070Z</time>
      </trkpt>
      <trkpt lat="43.09568" lon="-0.78026">
        <ele>341.1</ele>
        <time>2024-05-31T01:15:12.163Z</time>
      </trkpt>
      <trkpt lat="43.09587" lon="-0.78012">
        <ele>340.6</ele>
        <time>2024-05-31T01:15:26.260Z</time>
      </trkpt>
    </trkseg>
  </trk>
</gpx>